[[{"header":{"parameterUnit":"m.s-1","parameterCategory":1,"la1":30.6,"la2":29.2853,"lo1":-89.7004,"lo2":-87.6739,"dy":0.0162,"dx":0.0183,"nx":112,"ny":82,"refTime":"2026-04-08T12:00:00:Z","depth":0,"parameterNumber":2,"parameterNumberName":"U-component_of_WINDS"},"data":[0.0,0.0,0.0,0.0,0.0,0.0,0.0,0.0,0.0,0.0,0.0,0.0,0.0,0.0,0.0,0.0,0.0,0.0,0.0,0.0,0.0,0.0,0.0,0.0,0.0,0.0,0.0,0.0,0.0,0.0,0.0,0.0,0.0,0.0,0.0,0.0,0.0,0.0,0.0,0.0,0.0,0.0,0.0,0.0,0.0,0.0,0.0,0.0,0.0,0.0,0.0,0.0,0.0,0.0,0.0,0.0,0.0,0.0,0.0,0.0,0.0,0.0,0.0,0.0,0.0,0.0,0.0,0.0,0.0,0.0,0.0,0.0,0.0,0.0,0.0,0.0,0.0,0.0,0.0,0.0,0.0,0.0,0.0,0.0,0.0,0.0,0.0,0.0,0.0,0.0,-3.3897,-3.958,-4.6346,-4.9526,-4.7327,-4.506,-4.1557,-3.6352,0.0,0.0,0.0,0.0,0.0,0.0,0.0,0.0,0.0,0.0,0.0,0.0,0.0,0.0,0.0,0.0,0.0,0.0,0.0,0.0,0.0,0.0,0.0,0.0,0.0,0.0,0.0,0.0,0.0,0.0,0.0,0.0,0.0,0.0,0.0,0.0,0.0,0.0,0.0,0.0,0.0,0.0,0.0,0.0,0.0,0.0,0.0,0.0,0.0,0.0,0.0,0.0,0.0,0.0,0.0,0.0,0.0,0.0,0.0,0.0,0.0,0.0,0.0,0.0,0.0,0.0,0.0,0.0,0.0,0.0,0.0,0.0,0.0,0.0,0.0,0.0,0.0,0.0,0.0,0.0,0.0,0.0,0.0,0.0,0.0,0.0,0.0,0.0,0.0,0.0,0.0,0.0,0.0,0.0,0.0,0.0,0.0,0.0,0.0,0.0,0.0,0.0,0.0,0.0,-3.6975,-4.479,-4.9424,-5.1082,-4.8849,-4.665,-4.3403,-3.8744,0.0,0.0,0.0,0.0,0.0,0.0,0.0,0.0,0.0,0.0,0.0,0.0,0.0,0.0,0.0,0.0,0.0,0.0,0.0,0.0,0.0,0.0,0.0,0.0,0.0,0.0,0.0,0.0,0.0,0.0,0.0,0.0,0.0,0.0,0.0,0.0,0.0,0.0,0.0,0.0,0.0,0.0,0.0,0.0,0.0,0.0,0.0,0.0,0.0,0.0,0.0,0.0,0.0,0.0,0.0,0.0,0.0,0.0,0.0,0.0,0.0,0.0,0.0,0.0,0.0,0.0,0.0,0.0,0.0,0.0,0.0,0.0,0.0,0.0,0.0,0.0,0.0,0.0,0.0,0.0,0.0,0.0,0.0,0.0,0.0,0.0,0.0,0.0,0.0,0.0,0.0,0.0,0.0,0.0,0.0,0.0,0.0,0.0,0.0,0.0,0.0,0.0,0.0,-3.6874,-4.2489,-4.7462,-5.0574,-5.1386,-4.9187,-4.6616,-4.2997,-3.8115,-3.2178,0.0,0.0,0.0,0.0,0.0,0.0,0.0,0.0,0.0,0.0,0.0,0.0,0.0,0.0,0.0,0.0,0.0,0.0,0.0,0.0,0.0,0.0,0.0,0.0,0.0,0.0,0.0,0.0,0.0,0.0,0.0,0.0,0.0,0.0,0.0,0.0,0.0,0.0,0.0,0.0,0.0,0.0,0.0,0.0,0.0,0.0,0.0,0.0,0.0,0.0,0.0,0.0,0.0,0.0,0.0,0.0,0.0,0.0,0.0,0.0,0.0,0.0,0.0,0.0,0.0,0.0,0.0,0.0,0.0,0.0,0.0,0.0,0.0,0.0,0.0,0.0,0.0,0.0,0.0,0.0,0.0,0.0,0.0,0.0,0.0,0.0,0.0,0.0,0.0,0.0,0.0,0.0,0.0,0.0,0.0,0.0,0.0,0.0,0.0,0.0,0.0,0.0,-4.3031,-4.7462,-4.9323,-5.1352,-5.1623,-4.9221,-4.594,-4.1907,-3.6863,-3.1447,0.0,0.0,0.0,0.0,0.0,0.0,0.0,0.0,0.0,0.0,0.0,0.0,0.0,0.0,0.0,0.0,0.0,0.0,0.0,0.0,0.0,0.0,0.0,0.0,0.0,0.0,0.0,0.0,0.0,0.0,0.0,0.0,0.0,0.0,0.0,0.0,0.0,0.0,0.0,0.0,0.0,0.0,0.0,0.0,0.0,0.0,0.0,0.0,0.0,0.0,0.0,0.0,0.0,0.0,0.0,0.0,0.0,0.0,0.0,0.0,0.0,0.0,0.0,0.0,0.0,0.0,0.0,0.0,0.0,0.0,0.0,0.0,0.0,0.0,0.0,0.0,0.0,0.0,0.0,0.0,0.0,0.0,0.0,0.0,0.0,0.0,0.0,0.0,0.0,0.0,0.0,0.0,0.0,0.0,0.0,0.0,0.0,0.0,0.0,0.0,0.0,0.0,-4.6109,-5.0101,-5.098,-5.2469,-5.2232,-4.9255,-4.4993,-4.0527,-3.5971,-3.0142,0.0,0.0,0.0,0.0,0.0,0.0,0.0,0.0,0.0,0.0,0.0,0.0,0.0,0.0,0.0,0.0,0.0,0.0,0.0,0.0,0.0,0.0,0.0,0.0,0.0,0.0,0.0,0.0,0.0,0.0,0.0,0.0,0.0,0.0,0.0,0.0,0.0,0.0,0.0,0.0,0.0,0.0,0.0,0.0,0.0,0.0,0.0,0.0,0.0,0.0,0.0,0.0,0.0,0.0,0.0,0.0,0.0,0.0,0.0,0.0,0.0,0.0,0.0,0.0,0.0,0.0,0.0,0.0,0.0,0.0,0.0,0.0,0.0,0.0,0.0,0.0,0.0,0.0,0.0,0.0,0.0,0.0,0.0,0.0,0.0,0.0,0.0,0.0,0.0,0.0,0.0,0.0,0.0,0.0,0.0,0.0,0.0,0.0,0.0,0.0,0.0,0.0,-4.6413,-5.0371,0.0,-5.2604,-5.2266,-4.9255,-4.5297,-4.0865,-3.5904,0.0,0.0,0.0,0.0,0.0,0.0,0.0,0.0,0.0,0.0,0.0,0.0,0.0,0.0,0.0,0.0,0.0,0.0,0.0,0.0,0.0,0.0,0.0,0.0,0.0,0.0,0.0,0.0,0.0,0.0,0.0,0.0,0.0,0.0,0.0,0.0,0.0,0.0,0.0,0.0,0.0,0.0,0.0,0.0,0.0,0.0,0.0,0.0,0.0,0.0,0.0,0.0,0.0,0.0,0.0,0.0,0.0,0.0,0.0,0.0,0.0,0.0,0.0,0.0,0.0,0.0,0.0,0.0,0.0,0.0,0.0,0.0,0.0,0.0,0.0,0.0,0.0,0.0,0.0,0.0,0.0,0.0,0.0,0.0,0.0,0.0,0.0,0.0,0.0,0.0,0.0,0.0,0.0,0.0,0.0,0.0,0.0,0.0,0.0,0.0,0.0,0.0,-4.0493,-4.6616,-5.0642,0.0,-5.2604,-5.2266,-4.9255,-4.5568,-4.1178,-3.5938,0.0,0.0,0.0,0.0,0.0,0.0,0.0,0.0,0.0,0.0,0.0,0.0,0.0,0.0,0.0,0.0,0.0,0.0,0.0,0.0,0.0,0.0,0.0,0.0,0.0,0.0,0.0,0.0,0.0,0.0,0.0,0.0,0.0,0.0,0.0,0.0,0.0,0.0,0.0,0.0,0.0,0.0,0.0,0.0,0.0,0.0,0.0,0.0,0.0,0.0,0.0,0.0,0.0,0.0,0.0,0.0,0.0,0.0,0.0,0.0,0.0,0.0,0.0,0.0,0.0,0.0,0.0,0.0,0.0,0.0,0.0,0.0,0.0,0.0,0.0,0.0,0.0,0.0,0.0,0.0,0.0,0.0,0.0,0.0,0.0,0.0,0.0,0.0,0.0,0.0,0.0,0.0,0.0,0.0,0.0,0.0,0.0,0.0,0.0,0.0,0.0,0.0,-4.0629,-4.7056,-5.1185,-5.1185,-5.2604,-5.23,-4.9255,-4.5602,-4.1178,0.0,0.0,0.0,0.0,0.0,0.0,0.0,0.0,0.0,0.0,0.0,0.0,0.0,0.0,0.0,0.0,0.0,0.0,0.0,0.0,0.0,0.0,0.0,0.0,0.0,0.0,0.0,0.0,0.0,0.0,0.0,0.0,0.0,0.0,0.0,0.0,0.0,0.0,0.0,0.0,0.0,0.0,0.0,0.0,0.0,0.0,0.0,0.0,0.0,0.0,0.0,0.0,0.0,0.0,0.0,0.0,0.0,0.0,0.0,0.0,0.0,0.0,0.0,0.0,0.0,0.0,0.0,0.0,0.0,0.0,0.0,0.0,0.0,0.0,0.0,0.0,0.0,0.0,0.0,0.0,0.0,0.0,0.0,0.0,0.0,0.0,0.0,0.0,0.0,0.0,0.0,0.0,0.0,0.0,0.0,0.0,0.0,0.0,0.0,0.0,0.0,0.0,0.0,-4.0561,-4.7056,-5.1185,-5.1185,-5.2604,-5.2503,-4.9999,-4.7327,-4.3335,-3.756,0.0,0.0,0.0,0.0,0.0,0.0,0.0,0.0,0.0,0.0,0.0,0.0,0.0,0.0,0.0,0.0,0.0,0.0,0.0,0.0,0.0,0.0,0.0,0.0,0.0,0.0,0.0,0.0,0.0,0.0,0.0,0.0,0.0,0.0,0.0,0.0,0.0,0.0,0.0,0.0,0.0,0.0,0.0,0.0,0.0,0.0,0.0,0.0,0.0,0.0,0.0,0.0,0.0,0.0,0.0,0.0,0.0,0.0,0.0,0.0,0.0,0.0,0.0,0.0,0.0,0.0,0.0,0.0,0.0,0.0,0.0,0.0,0.0,0.0,0.0,0.0,0.0,0.0,0.0,0.0,0.0,0.0,0.0,0.0,0.0,0.0,0.0,0.0,0.0,0.0,0.0,0.0,0.0,0.0,0.0,0.0,0.0,0.0,0.0,0.0,0.0,0.0,-4.0121,-4.6887,-5.1185,-5.1185,-5.2604,-5.2706,-5.071,-4.9052,-4.5432,-3.9174,0.0,0.0,0.0,0.0,0.0,0.0,0.0,0.0,0.0,0.0,0.0,0.0,0.0,0.0,0.0,0.0,0.0,0.0,0.0,0.0,0.0,0.0,0.0,0.0,0.0,0.0,0.0,0.0,0.0,0.0,0.0,0.0,0.0,0.0,0.0,0.0,0.0,0.0,0.0,0.0,0.0,0.0,0.0,0.0,0.0,0.0,0.0,0.0,0.0,0.0,0.0,0.0,0.0,0.0,0.0,0.0,0.0,0.0,0.0,0.0,0.0,0.0,0.0,0.0,0.0,0.0,0.0,0.0,0.0,0.0,0.0,0.0,0.0,0.0,0.0,0.0,0.0,0.0,0.0,0.0,0.0,0.0,0.0,0.0,0.0,0.0,0.0,0.0,0.0,0.0,0.0,0.0,0.0,0.0,0.0,0.0,0.0,0.0,0.0,0.0,0.0,0.0,-3.9639,-4.665,-5.1185,-5.1185,-5.2604,-5.2875,-5.1352,-5.0507,-4.7259,-4.062,0.0,0.0,0.0,0.0,0.0,0.0,0.0,0.0,0.0,0.0,0.0,0.0,0.0,0.0,0.0,0.0,0.0,0.0,0.0,0.0,0.0,0.0,0.0,0.0,0.0,0.0,0.0,0.0,0.0,0.0,0.0,0.0,0.0,0.0,0.0,0.0,0.0,0.0,0.0,0.0,0.0,0.0,0.0,0.0,0.0,0.0,0.0,0.0,0.0,0.0,0.0,0.0,0.0,0.0,0.0,0.0,0.0,0.0,0.0,0.0,-3.3795,0.0,0.0,0.0,0.0,0.0,0.0,0.0,0.0,0.0,0.0,0.0,0.0,0.0,0.0,0.0,0.0,0.0,0.0,0.0,0.0,0.0,0.0,0.0,0.0,0.0,0.0,0.0,0.0,0.0,0.0,0.0,0.0,0.0,0.0,0.0,0.0,0.0,0.0,0.0,0.0,0.0,-4.0324,-4.6955,-5.1185,-5.1185,-5.2604,-5.2875,-5.1352,-5.0507,-4.7496,-4.1339,-3.6603,0.0,0.0,0.0,0.0,0.0,0.0,0.0,0.0,0.0,0.0,0.0,0.0,0.0,0.0,0.0,0.0,0.0,0.0,0.0,0.0,0.0,0.0,0.0,0.0,0.0,0.0,0.0,0.0,0.0,0.0,0.0,0.0,0.0,0.0,0.0,0.0,0.0,0.0,0.0,0.0,0.0,0.0,0.0,0.0,0.0,0.0,0.0,0.0,0.0,0.0,0.0,0.0,0.0,0.0,0.0,0.0,0.0,0.0,0.0,0.0,-3.6671,0.0,0.0,0.0,0.0,0.0,0.0,0.0,0.0,0.0,0.0,0.0,0.0,0.0,0.0,0.0,0.0,0.0,0.0,0.0,0.0,0.0,0.0,0.0,0.0,0.0,0.0,0.0,0.0,0.0,0.0,0.0,0.0,0.0,0.0,0.0,0.0,0.0,0.0,0.0,0.0,-4.0561,-4.7056,-5.1185,-5.1185,-5.2604,-5.2875,-5.1352,-5.0845,-4.8071,-4.2117,-3.8193,0.0,0.0,0.0,0.0,0.0,0.0,0.0,0.0,0.0,0.0,0.0,0.0,0.0,0.0,0.0,0.0,0.0,0.0,0.0,0.0,0.0,0.0,0.0,0.0,0.0,0.0,0.0,0.0,0.0,0.0,0.0,0.0,0.0,0.0,0.0,0.0,0.0,0.0,0.0,0.0,0.0,0.0,0.0,0.0,0.0,0.0,0.0,0.0,0.0,0.0,0.0,0.0,0.0,-5.0717,-5.1557,-5.1382,-5.2245,-5.2666,-5.2464,-4.7509,-4.4298,-4.2489,-4.1753,0.0,0.0,0.0,0.0,0.0,0.0,0.0,0.0,0.0,0.0,0.0,0.0,0.0,0.0,0.0,0.0,0.0,0.0,0.0,0.0,0.0,0.0,0.0,0.0,-4.1914,-4.1576,0.0,0.0,0.0,0.0,0.0,0.0,0.0,0.0,0.0,0.0,0.0,0.0,-4.0798,-4.7022,-5.1014,-5.1014,-5.2266,-5.2536,-5.115,-5.1014,-4.8646,-4.3031,-4.0054,-3.5926,0.0,0.0,0.0,0.0,0.0,0.0,0.0,0.0,0.0,0.0,0.0,0.0,0.0,0.0,0.0,0.0,0.0,0.0,0.0,0.0,0.0,0.0,0.0,0.0,0.0,0.0,0.0,0.0,0.0,0.0,0.0,0.0,-3.4164,-3.5243,0.0,0.0,0.0,0.0,0.0,0.0,0.0,0.0,0.0,0.0,0.0,0.0,0.0,-4.8049,-5.057,-5.3745,-5.5701,-5.6475,-5.7394,-5.8016,-5.8365,-5.818,-5.8393,-5.8805,-5.7843,0.0,-4.7902,-4.7192,0.0,0.0,0.0,0.0,0.0,0.0,0.0,0.0,0.0,0.0,0.0,0.0,0.0,0.0,0.0,0.0,0.0,0.0,0.0,0.0,0.0,0.0,-4.5128,-4.5737,-4.6955,-4.797,0.0,-4.3978,-3.9681,-3.7449,-3.4675,0.0,0.0,0.0,0.0,0.0,0.0,0.0,-4.1576,-4.6887,-5.0236,-5.0236,-5.1014,-5.1183,-5.0304,-5.0236,-4.8545,-4.4547,-4.2049,-3.8667,-3.3964,-3.092,0.0,0.0,0.0,0.0,0.0,0.0,0.0,0.0,0.0,0.0,0.0,0.0,0.0,0.0,0.0,0.0,0.0,0.0,0.0,0.0,0.0,0.0,0.0,0.0,0.0,0.0,0.0,0.0,0.0,-3.4588,-3.7951,-3.8473,-3.8744,-3.8563,0.0,0.0,0.0,0.0,0.0,0.0,0.0,0.0,0.0,-4.96,-5.3134,-5.6036,-5.8178,-6.1934,-6.4017,-6.4408,-6.5516,-6.6061,-6.6073,-6.6109,-6.6166,-6.6145,-6.5803,-6.3018,-5.8413,-5.3618,-4.9695,-4.638,0.0,0.0,0.0,0.0,-4.2252,-4.3098,-4.4587,-4.435,0.0,-4.2651,0.0,0.0,0.0,0.0,0.0,0.0,0.0,0.0,0.0,0.0,-4.824,-4.8578,-4.9458,-5.0338,-5.0642,-4.8342,-4.5534,0.0,-4.0121,-3.684,-3.3884,0.0,0.0,0.0,0.0,-3.8836,-4.2455,-4.7124,-5.0101,-5.0101,-5.0777,-5.0913,-5.0135,-5.0101,-4.8883,-4.6007,-4.4113,-4.1474,-3.7821,-3.4754,-3.1576,0.0,0.0,0.0,0.0,0.0,0.0,0.0,0.0,0.0,0.0,0.0,0.0,0.0,0.0,0.0,0.0,0.0,0.0,0.0,0.0,0.0,0.0,0.0,0.0,0.0,0.0,0.0,0.0,-3.9113,-4.223,-4.2976,-4.3546,-4.3389,0.0,0.0,0.0,0.0,0.0,0.0,-5.0818,-5.2594,-5.4447,-5.6319,-5.9881,-6.2777,-6.4745,-6.8255,-7.0071,-7.0143,-7.147,-7.187,-7.1553,-7.1582,-7.1387,-7.1004,-7.0332,-6.8749,-6.6141,-5.9766,-5.5277,-5.2097,-4.9357,-4.78,-4.7255,-4.7767,-4.8443,-4.9289,-5.0777,-5.0439,-4.9289,-4.8917,-4.6481,-4.347,-4.2211,0.0,0.0,0.0,0.0,-4.4722,-4.6616,-4.9187,-5.1251,-5.1251,-5.1826,-5.23,-5.2131,-5.1488,-5.0202,0.0,-4.4384,-4.117,-3.842,0.0,0.0,0.0,0.0,-4.1068,-4.3646,-4.7564,-5.0033,-4.983,-5.0304,-5.0405,-4.9864,-4.983,-4.8951,-4.6921,-4.5568,-4.3538,-4.0502,-3.7865,-3.4822,-3.1292,0.0,0.0,0.0,0.0,0.0,0.0,0.0,0.0,0.0,0.0,0.0,0.0,0.0,0.0,0.0,0.0,0.0,0.0,0.0,0.0,0.0,0.0,0.0,0.0,0.0,0.0,0.0,0.0,0.0,-5.0272,-5.0023,0.0,0.0,0.0,0.0,-5.1594,-5.3927,-5.6165,-5.833,-5.9222,-6.1033,-6.4041,-6.5113,-6.6785,-6.9242,-7.1093,-7.2055,-7.2058,-7.2921,-7.3214,-7.2971,-7.2047,-7.141,-7.1016,-6.9838,-6.8548,-6.7069,-6.4954,-6.1907,-5.8355,-5.6089,-5.4769,-5.4093,-5.4126,-5.4634,-5.548,-5.6934,-5.6934,-5.6055,-5.4668,-5.1217,-4.7496,-4.6684,-4.5872,0.0,0.0,-4.8003,-4.9898,-5.071,-5.2638,-5.4363,-5.4363,-5.4938,-5.531,-5.4566,-5.3856,-5.2232,0.0,-4.6007,-4.3701,-4.1373,0.0,-3.8091,-3.9589,-4.1719,-4.3747,-4.5399,-4.824,-4.983,-4.912,-4.9086,-4.912,-4.9052,-4.9052,-4.8409,-4.6887,-4.6075,-4.4282,-4.1271,-3.9648,-3.7381,-3.4336,-3.0668,0.0,0.0,0.0,0.0,0.0,0.0,0.0,0.0,0.0,0.0,0.0,0.0,0.0,0.0,0.0,0.0,0.0,0.0,0.0,0.0,0.0,0.0,0.0,0.0,0.0,0.0,0.0,0.0,-5.4822,-5.6186,0.0,-5.6247,-5.5703,-5.6439,-5.9128,-6.1968,-6.4181,-6.5488,-6.7234,-6.8718,-6.9805,-7.1103,-7.2253,-7.3116,-7.4266,-7.4841,-7.4841,-7.513,-7.5241,-7.5137,-7.4276,-7.3642,-7.3225,-7.2015,-7.0657,-6.9174,-6.797,-6.5079,-6.1219,-5.9847,-5.8829,-5.8152,-5.8152,-5.8321,-5.8626,-5.9133,-5.8829,-5.7915,-5.5953,-5.389,-5.1995,-5.071,-4.983,-4.939,-5.0135,-5.1285,-5.2469,-5.3213,-5.4329,-5.531,-5.531,-5.5513,-5.5513,-5.4769,-5.3619,-5.2198,-5.0405,-4.8984,-4.7733,-4.6447,-4.479,-4.3809,-4.4316,-4.55,-4.6655,-4.7699,-4.9154,-4.9999,-4.9729,-4.9289,-4.9018,-4.9018,-4.8578,-4.8071,-4.7564,-4.594,-4.4485,-4.3403,-4.1474,-3.9242,-3.6738,-3.3038,-2.977,0.0,0.0,0.0,0.0,0.0,0.0,0.0,0.0,0.0,0.0,0.0,0.0,0.0,0.0,0.0,0.0,0.0,0.0,0.0,0.0,0.0,0.0,0.0,0.0,0.0,-5.2736,-5.7525,-5.9398,-6.1281,-6.2223,-6.1679,-6.139,-6.2114,-6.4251,-6.7148,-6.9032,-6.9605,-7.1313,-7.2436,-7.269,-7.374,-7.454,-7.5083,-7.5913,-7.6275,-7.6275,-7.6275,-7.6275,-7.6275,-7.5478,-7.4916,-7.4469,-7.3261,-7.1871,-7.0466,-6.9667,-6.7487,-6.4517,-6.3255,-6.2448,-6.1941,-6.1434,-6.1264,-6.1231,-6.096,-6.0385,-5.9539,-5.8084,-5.69,-5.5886,-5.4871,-5.4059,-5.3551,-5.4059,-5.4566,-5.5108,-5.5581,-5.6089,-5.6461,-5.6461,-5.6461,-5.6089,-5.4871,-5.3585,-5.2401,-5.142,-5.0608,-4.9864,-4.912,-4.8409,-4.7902,-4.7902,-4.8545,-4.919,-4.9695,-5.0405,-5.0642,-5.0135,-4.9661,-4.9255,-4.9018,-4.8342,-4.7669,-4.7162,-4.5534,-4.4276,-4.347,-4.2016,-4.0155,-3.7956,-3.3728,-3.0074,-2.7046,0.0,0.0,0.0,0.0,0.0,0.0,0.0,0.0,0.0,0.0,0.0,0.0,0.0,0.0,0.0,0.0,0.0,0.0,0.0,0.0,0.0,0.0,0.0,-5.1049,-5.6921,-6.186,-6.4251,-6.5265,-6.5772,-6.5772,-6.5084,-6.5265,-6.6858,-6.9176,-7.048,-7.048,-7.1168,-7.1929,-7.2726,-7.2726,-7.3486,-7.5083,-7.5913,-7.6275,-7.6275,-7.6275,-7.6275,-7.6275,-7.5478,-7.4916,-7.4539,-7.3331,-7.205,-7.0796,-7.0158,-6.9358,-6.8284,-6.6494,-6.5771,-6.5602,-6.4106,-6.3565,-6.3429,-6.2685,-6.1975,-6.1366,-6.1332,-6.0283,-5.9066,-5.9032,-5.849,-5.7881,-5.7848,-5.7848,-5.7814,-5.7848,-5.7848,-5.7848,-5.7881,-5.7881,-5.7306,-5.5108,-5.4025,-5.3044,-5.1523,-5.0642,-4.9898,-4.9221,-4.9729,-5.0202,-5.0202,-5.0811,0.0,-5.1252,-5.1894,-5.1725,-5.027,-5.0101,-4.9796,-4.9052,-4.8308,-4.7229,-4.5771,-4.4925,-4.3532,-4.1305,-4.117,-4.0121,-3.7889,-3.276,-2.8721,-2.5694,0.0,0.0,0.0,0.0,0.0,0.0,0.0,0.0,0.0,0.0,0.0,0.0,0.0,0.0,0.0,0.0,0.0,0.0,0.0,0.0,0.0,-4.9375,-5.3566,-5.5317,-6.0566,-6.5192,-6.7583,-6.9068,-6.9865,-6.9865,-6.9684,-6.9973,-7.1024,-7.2219,-7.2943,-7.2943,-7.2581,-7.2762,-7.3559,-7.3016,-7.3486,-7.5083,-7.5913,-7.6275,-7.6275,-7.6275,-7.6275,-7.6275,-7.5478,-7.4916,-7.4469,-7.3261,-7.237,-7.1722,-7.0639,-7.0062,-6.9704,-6.8049,-6.7336,-6.7072,-6.5954,-6.4992,-6.4208,-6.3463,-6.3057,-6.2719,-6.167,-6.1028,-6.0452,-5.9336,-5.849,-5.778,-5.7239,-5.6731,-5.6427,-5.6968,-5.7103,-5.7239,-5.7746,-5.7881,-5.7442,-5.5784,-5.4397,-5.3213,-5.2198,-5.142,-5.1014,-5.1352,-5.2029,-5.257,-5.257,-5.2739,0.0,-5.2875,-5.2536,-5.1961,-5.1014,-5.0405,-4.9593,-4.8308,-4.753,-4.6481,-4.4993,-4.3639,-4.2388,-4.1271,-4.0696,-3.9073,-3.6276,-3.3254,-3.0499,0.0,0.0,0.0,0.0,0.0,0.0,0.0,0.0,0.0,0.0,0.0,0.0,0.0,0.0,0.0,0.0,0.0,0.0,0.0,0.0,0.0,0.0,-5.424,-5.8673,-6.0919,-6.4613,-6.7873,-6.9901,-7.1241,-7.2146,-7.2472,-7.2509,-7.2726,-7.3197,-7.3957,-7.4106,-7.345,-7.2979,-7.2762,-7.2907,-7.2762,-7.3305,-7.4576,-7.5732,-7.6275,-7.6275,-7.6275,-7.6275,-7.6275,-7.5804,-7.5352,-7.4867,-7.3868,-7.3112,-7.2498,-7.1314,-7.0785,0.0,0.0,0.0,0.0,0.0,-6.5589,-6.4546,-6.4106,-6.3768,-6.3362,-6.2516,-6.1806,-6.1061,-5.9844,-5.8524,-5.7273,-5.6562,-5.5615,-5.4972,-5.5683,-5.6122,-5.6528,-5.7273,-5.7442,-5.7036,-5.5581,-5.4059,-5.2773,-5.1995,-5.1488,0.0,-5.2164,-5.2976,-5.3518,-5.3518,-5.3518,-5.3518,-5.3518,-5.3078,-5.2503,-5.1758,-5.1014,-5.0101,-4.8917,-4.7564,0.0,0.0,0.0,-4.2286,-4.1238,-4.0189,0.0,0.0,0.0,0.0,0.0,0.0,0.0,0.0,-2.7672,-2.8601,0.0,0.0,0.0,0.0,0.0,0.0,0.0,0.0,0.0,0.0,0.0,0.0,0.0,0.0,0.0,0.0,-5.8493,-6.3354,-6.6496,-6.838,-6.9973,-7.1458,-7.2291,-7.3016,-7.3849,-7.3921,-7.3957,-7.403,-7.4685,-7.4468,-7.3052,0.0,0.0,0.0,0.0,-7.3124,-7.403,-7.5551,-7.6275,-7.6275,-7.6275,-7.6275,-7.6275,-7.6275,-7.5969,-7.5406,-7.4713,-7.3981,-7.3118,-7.2047,-7.1464,-7.1161,-6.9808,-6.8978,-6.8416,-6.6975,-6.5799,-6.485,-6.4749,0.0,0.0,-6.3565,-6.2618,-6.1366,-6.0385,-5.8626,-5.6765,-5.5953,-5.4634,-5.3687,-5.4499,-5.5209,-5.5919,-5.6731,-5.6934,-5.6528,-5.5141,-5.3653,-5.2367,-5.1725,-5.1454,-5.1589,-5.23,-5.3044,-5.3518,-5.3518,-5.3518,-5.3518,-5.3518,-5.3518,-5.3179,-5.2401,0.0,0.0,-5.0033,-4.8173,-4.665,-4.5771,-4.422,-4.2801,-4.1508,-4.002,-3.8937,-3.8294,-3.6874,-3.5791,-3.5115,-3.4472,-3.4539,-3.5182,-3.2138,-3.2171,0.0,0.0,0.0,0.0,0.0,0.0,0.0,0.0,0.0,0.0,0.0,0.0,0.0,0.0,0.0,-5.7137,-6.1251,-6.483,-6.7402,-6.9684,-7.1422,-7.2364,-7.2617,-7.3016,-7.3849,-7.3921,-7.4175,-7.4793,-7.5011,-7.4938,-7.4649,-7.3414,-7.2943,-7.345,-7.2979,-7.3414,-7.483,-7.5804,-7.6275,-7.6275,0.0,0.0,-7.6275,-7.6275,-7.59,-7.5118,-7.4299,-7.3878,-7.3733,-7.2816,-7.2404,-7.2194,-7.0275,-6.9124,-6.8486,-6.7792,-6.7046,-6.6305,-6.5696,-6.5392,-6.5087,-6.3903,-6.3328,-6.2719,-6.0723,-5.8964,0.0,-5.6089,-5.4634,-5.3822,-5.5141,-5.5615,-5.6055,-5.7374,-5.7679,-5.7442,-5.6562,-5.5209,-5.4093,-5.3957,-5.2942,-5.2334,-5.3145,-5.3416,-5.3518,-5.3518,-5.3518,-5.3518,-5.3518,-5.3518,-5.3179,-5.2401,-5.2164,-5.1319,-4.939,-4.8815,-4.7767,-4.5838,-4.422,-4.3274,-4.297,-4.1576,-4.0696,-4.0561,-3.9681,-3.9165,-3.9029,-3.887,-3.9183,-3.9817,-3.6208,-3.5182,0.0,0.0,0.0,0.0,0.0,0.0,0.0,0.0,0.0,0.0,0.0,-4.7484,-5.0737,0.0,-5.7465,-6.0934,-6.3834,-6.6424,-6.885,-7.0517,-7.1965,-7.316,-7.3305,-7.3776,-7.4971,-7.5116,-7.5261,-7.5659,-7.5696,-7.5515,-7.5119,-7.4356,-7.3921,-7.3921,-7.3921,-7.4319,-7.5083,-7.5913,-7.6275,-7.6275,-7.6275,-7.6275,-7.6275,-7.6275,-7.5934,-7.5262,-7.4487,-7.4178,-7.4096,-7.3294,-7.2654,-7.2029,-7.07,-6.9658,-6.8828,-6.8201,-6.7441,-6.6779,-6.6373,-6.6,-6.5561,-6.485,-6.4106,-6.3226,-6.1704,-5.9945,-5.822,-5.7103,-5.575,-5.4871,-5.5953,-5.6258,-5.6528,-5.7645,-5.7611,-5.7239,-5.6867,-5.5649,-5.46,-5.46,-5.3687,-5.3044,-5.345,-5.3518,-5.3518,-5.3518,-5.3518,-5.3518,-5.3518,-5.3518,-5.3348,-5.2942,-5.2536,-5.1691,-5.0236,-4.9086,-4.7834,-4.6346,-4.4823,-4.4012,-4.4012,-4.2557,-4.1745,-4.1745,-4.1373,-4.1196,-4.1196,-4.1204,-4.1407,-4.1711,-3.9817,-3.9174,0.0,0.0,0.0,0.0,0.0,0.0,0.0,-4.2828,-4.4014,-4.7775,-5.0799,-5.3629,-5.6112,-5.8993,-6.1745,-6.4069,-6.5826,-6.771,-6.9953,-7.0929,-7.1942,-7.3458,-7.378,-7.4537,-7.613,-7.6275,-7.6275,-7.6275,-7.6275,-7.6022,-7.537,-7.5334,-7.5044,-7.4392,-7.5008,-7.5334,-7.5334,-7.5985,-7.6275,-7.6275,-7.6275,-7.6275,-7.6275,-7.6275,-7.6003,-7.5514,-7.4823,-7.4408,-7.4142,-7.3555,-7.2683,-7.173,-7.0939,-7.0005,-6.9113,-6.8314,-6.7482,-6.6812,-6.6812,-6.6406,-6.5865,-6.573,-6.4783,-6.3565,-6.2651,-6.0892,-5.9066,-5.8321,-5.7137,-5.6325,-5.7036,-5.7239,-5.7374,-5.7949,-5.7645,-5.7205,-5.7036,-5.5953,-5.5006,-5.5006,-5.4329,-5.3721,-5.3721,-5.3585,-5.3518,-5.3518,-5.3518,-5.3518,-5.3518,-5.3518,-5.3518,-5.3518,-5.2909,-5.2232,-5.1488,-4.9526,-4.8071,-4.7462,-4.6041,-4.5229,-4.5229,-4.391,-4.3166,-4.3166,-4.3166,-4.3166,-4.3166,-4.3166,-4.3166,-4.3166,-4.3166,-4.2861,-3.4742,-3.6907,-4.0663,-4.3125,-4.5331,-4.7094,0.0,-4.8612,-4.9749,-5.208,-5.5819,-5.8937,-5.988,-6.251,-6.4867,-6.5904,-6.6767,-6.7918,-6.9645,-7.0541,-7.147,-7.2535,-7.3389,-7.4537,-7.613,-7.6275,-7.6275,-7.6275,-7.6275,-7.6239,-7.6167,-7.6167,-7.613,-7.6022,-7.613,-7.6167,-7.6167,-7.6239,-7.6275,-7.6275,-7.6275,-7.6275,-7.6275,-7.6275,-7.6072,-7.562,-7.4896,-7.4293,-7.3803,-7.3101,-7.2644,-7.2331,-7.0612,-6.9593,-6.8991,-6.8166,-6.7394,-6.6812,-6.6812,-6.6779,-6.6576,-6.5899,-6.5155,-6.4208,-6.2821,-6.1264,-5.981,-5.9099,-5.8287,-5.7814,-5.8558,-5.8761,-5.8795,-5.8863,-5.8829,-5.8592,-5.7915,-5.7137,-5.6562,-5.6562,-5.5412,-5.4465,-5.4465,-5.3923,-5.3518,-5.3518,-5.3518,-5.3518,-5.3518,-5.3518,-5.3518,-5.3518,-5.3416,-5.3044,-5.2232,-5.0744,-4.9796,-4.9729,-4.8342,-4.75,-4.75,-4.6752,-4.6278,-4.6278,-4.6278,-4.6278,-4.6278,-4.6278,-4.6278,-4.6278,-4.6278,-4.4857,-3.9478,-4.1677,-4.5196,-4.8308,-5.142,-5.3923,-5.4668,-5.5074,-5.6028,-5.8703,-6.1014,-6.291,-6.4056,-6.5284,-6.6265,-6.6875,-6.7016,-6.7608,-6.9287,-7.0179,-7.0888,-7.1546,-7.1769,-7.2653,-7.4718,-7.4899,-7.5116,-7.5587,-7.6022,-7.6275,-7.6275,-7.6275,-7.6275,-7.6275,-7.6275,-7.6275,-7.6275,-7.6275,-7.6275,-7.6275,-7.6275,-7.6242,-7.6106,-7.6003,-7.562,-7.5043,-7.4479,-7.394,-7.3472,-7.3072,-7.2493,-7.1885,-7.0937,-6.9858,-6.8713,-6.7912,-6.727,-6.6812,-6.6812,-6.6812,-6.6779,-6.644,-6.5831,-6.5019,-6.4005,-6.2922,-6.1941,-6.1197,-6.0757,-6.0588,-6.0892,-6.0655,-6.0351,-6.0351,-5.9674,-5.893,-5.8626,-5.7611,-5.6799,-5.6799,-5.5615,-5.46,-5.46,-5.3991,-5.3518,-5.3518,-5.3518,-5.3518,-5.3518,-5.3518,-5.3518,-5.3518,-5.3078,-5.2672,-5.2334,-5.0947,-5.0101,-5.0101,-4.8714,-4.7906,-4.7906,-4.7192,-4.6786,-4.6786,-4.6786,-4.6786,-4.6786,-4.6786,-4.6786,-4.6786,-4.6786,-4.6109,-4.2895,-4.5399,-4.8815,-5.2097,-5.5919,-5.8964,-5.9505,-5.9945,-6.0883,-6.3144,-6.4357,-6.5296,-6.6322,-6.6782,-6.7095,-6.7509,-6.7442,-6.7817,-6.9274,-6.9949,-7.0302,-7.0425,-6.9857,-7.0193,-7.2106,-7.3067,-7.3921,-7.4685,-7.5732,-7.6275,-7.6275,-7.6275,-7.6275,-7.6275,-7.6275,-7.6275,-7.6275,-7.6275,-7.6275,-7.6275,-7.6275,-7.6174,-7.59,-7.5549,-7.5008,-7.4367,-7.394,-7.3502,-7.306,-7.2804,-7.2199,-7.1422,-7.1089,-7.0166,-6.8947,-6.7959,-6.7275,-6.6812,-6.6812,-6.6812,-6.6812,-6.6812,-6.6305,-6.5595,-6.5053,-6.4241,-6.3396,-6.2854,-6.255,-6.2381,-6.2381,-6.2009,-6.1535,-6.1366,-6.0452,-5.9539,-5.9099,-5.8186,-5.734,-5.7137,-5.6089,-5.5209,-5.5209,-5.4431,-5.3788,-5.3788,-5.3619,-5.3518,-5.3518,-5.3518,-5.3518,-5.3518,-5.2976,-5.2638,-5.2638,-5.1454,-5.071,-5.071,-4.9526,-4.8717,-4.8545,-4.8003,-4.7597,-4.7394,-4.7394,-4.7394,-4.7394,-4.7394,-4.7394,-4.7394,-4.7394,-4.7394,-4.3938,-4.7733,-5.1623,-5.3957,-5.7881,-6.1197,-6.1231,-6.2347,-6.343,-6.3589,-6.4703,-6.5617,-6.5589,-6.6571,-6.7545,-6.7978,-6.8426,-6.8929,-6.9743,-6.9885,-6.9707,-6.91,-6.7843,-6.7335,-6.8189,-7.0966,-7.3088,-7.3885,-7.5406,-7.6275,-7.6275,-7.6275,-7.6275,-7.6275,-7.6275,-7.6275,-7.6275,-7.6275,-7.6275,-7.6275,-7.6275,-7.6106,-7.569,-7.4898,-7.4261,-7.3799,-7.3397,-7.2949,-7.249,-7.2167,-7.1722,-7.1255,-7.051,-7.0206,-6.9969,-6.8479,-6.7421,-6.6812,-6.6812,-6.6812,-6.6812,-6.6812,-6.6305,-6.5696,-6.5662,-6.4647,-6.3531,-6.3497,-6.2956,-6.2381,-6.2381,-6.2381,-6.2178,-6.1467,-6.1264,-6.0825,-5.9336,-5.8964,-5.8727,-5.8017,-5.7239,-5.6731,-5.6731,-5.5513,-5.4566,-5.4566,-5.3957,-5.3518,-5.3518,-5.3518,-5.3518,-5.3518,-5.3484,-5.345,-5.345,-5.2706,-5.2232,-5.2232,-5.1522,-5.0777,-5.0067,-4.9999,-4.9661,-4.8951,-4.8951,-4.8951,-4.8951,-4.8951,-4.8951,-4.8951,-4.8951,-4.8951,-4.7225,-5.115,-5.4871,-5.7577,-6.0892,-6.3632,-6.4106,-6.4613,-6.4992,-6.5065,-6.4562,-6.4388,-6.5209,-6.5422,-6.5978,-6.7538,-6.8081,-6.8609,-6.9455,-6.949,-6.9173,-6.8505,-6.7023,-6.6033,-6.5786,-6.7695,-6.9699,-7.1496,-7.3108,-7.4221,-7.4724,-7.5262,-7.5478,-7.5478,-7.5478,-7.5478,-7.5478,-7.5478,-7.5478,-7.5478,-7.5227,-7.4897,-7.4487,-7.3948,-7.3432,-7.2984,-7.2728,-7.2432,-7.2167,-7.1864,-7.1546,-7.1278,-7.1041,-7.0635,-7.0128,-6.962,-6.8605,-6.7455,-6.6981,-6.6812,-6.6812,-6.6812,-6.6643,-6.6339,-6.5831,-6.5358,-6.4749,-6.3802,-6.3328,-6.3024,-6.2516,-6.2381,-6.2347,-6.2076,-6.167,-6.1163,-6.0655,-5.9742,-5.893,-5.8693,-5.7645,-5.6799,-5.6799,-5.5581,-5.4431,-5.3923,-5.3653,-5.3518,-5.3518,-5.3518,-5.3518,-5.3518,-5.3518,-5.3518,-5.3518,-5.2773,-5.23,-5.23,-5.1623,-5.1116,-5.0845,-5.0845,-5.071,-5.0441,-4.9965,-4.9729,-4.9729,-4.9255,-4.9018,-4.9018,-4.9018,-4.9018,-5.0541,-5.4431,-5.7881,-6.0317,-6.2956,-6.5053,-6.5256,-6.5493,-6.5501,-6.4717,-6.3204,-6.232,-6.338,-6.3251,-6.3815,-6.6173,-6.734,-6.8209,-6.905,-6.9085,-6.8733,-6.7922,-6.6591,-6.5578,-6.509,-6.5478,-6.6596,-6.8676,-7.0806,-7.2298,-7.3115,-7.4107,-7.4638,-7.4638,-7.4638,-7.4638,-7.4638,-7.4638,-7.4638,-7.4638,-7.422,-7.383,-7.3392,-7.3018,-7.2594,-7.2124,-7.2029,-7.1854,-7.1722,-7.159,-7.1412,-7.1312,-7.1312,-7.1007,-7.0567,-7.0297,-6.9553,-6.8571,-6.7557,-6.7015,-6.6812,-6.6812,-6.6812,-6.6711,-6.6237,-6.5899,-6.5493,-6.4546,-6.3903,-6.3396,-6.2922,-6.2584,-6.2381,-6.2381,-6.2042,-6.1535,-6.0994,-6.008,-5.9235,-5.8727,-5.7848,-5.7171,-5.7171,-5.619,-5.504,-5.4025,-5.389,-5.3788,-5.3551,-5.3518,-5.3518,-5.3518,-5.3518,-5.3518,-5.3518,-5.3044,-5.2739,-5.2739,-5.23,-5.1894,-5.1623,-5.1589,-5.1488,-5.1217,-5.0744,-5.0473,-5.0473,-5.0033,-4.9796,-4.9796,-4.9796,-4.9796,-5.3856,-5.7611,-6.0791,-6.2212,-6.4174,-6.5595,-6.4816,-6.5155,-6.5026,-6.2724,-6.0773,-5.9593,-6.0082,-6.0105,-6.103,-6.4004,-6.6174,-6.773,-6.8493,-6.8632,-6.8347,-6.7423,-6.6466,-6.583,-6.5795,-6.4453,-6.4237,-6.5689,0.0,-7.0712,-7.152,-7.2918,-7.3721,-7.3721,-7.3721,-7.3721,-7.3721,-7.3721,-7.3721,-7.3721,-7.3357,-7.2908,-7.2448,-7.2124,-7.1756,-7.1312,-7.1312,-7.1312,-7.1312,-7.1312,-7.1312,-7.1312,-7.1312,-7.1312,-7.1244,-7.05,-7.0229,-6.9992,-6.847,-6.7489,-6.688,-6.6812,-6.6812,-6.6812,-6.6812,-6.6305,-6.573,-6.5696,-6.4681,-6.3599,-6.3531,-6.299,-6.2448,-6.2415,-6.2381,-6.1975,-6.0486,-6.0148,-5.9674,-5.822,-5.7915,-5.7881,-5.7848,-5.7273,-5.6292,-5.4803,-5.46,-5.4329,-5.3585,-5.3518,-5.3518,-5.3518,-5.3518,-5.3518,-5.3518,-5.3518,-5.3518,-5.3518,-5.3518,-5.3179,-5.2401,-5.2367,-5.2029,-5.1352,-5.1285,-5.1285,-5.1285,-5.1219,-5.1185,-5.1185,-5.1185,-5.1185,-5.7848,-6.1839,-6.5053,-6.4884,-6.6102,-6.6981,-6.5696,-6.5121,-6.4069,-6.121,-5.8241,-5.6313,-5.6696,-5.6109,-5.6904,-6.1043,-6.3829,-6.5931,-6.7277,-6.786,-6.798,-6.7519,-6.6909,-6.6364,-6.5786,-6.5379,-6.5289,-6.5704,-6.7566,-6.9302,-7.062,-7.2069,-7.2901,-7.2901,-7.2901,-7.2901,-7.2901,-7.2901,-7.2901,-7.2901,-7.2644,-7.2382,-7.2124,-7.182,-7.1546,-7.1312,-7.1312,-7.1312,-7.1312,-7.1312,-7.1312,-7.1312,-7.1312,-7.1312,-7.1312,-7.1109,-7.0669,-7.006,-6.9113,-6.8267,-6.7523,-6.6981,-6.6812,-6.6812,-6.6812,-6.6677,-6.6406,-6.5831,-6.5425,-6.4884,-6.3802,-6.3362,-6.3091,-6.2516,-6.2381,-6.2144,-6.1197,-6.052,-5.9844,-5.8896,-5.8287,-5.7712,-5.7171,-5.6934,-5.6292,-5.4803,-5.46,-5.4329,-5.3585,-5.3518,-5.3518,-5.3518,-5.3518,-5.3518,-5.3518,-5.3518,-5.3518,-5.3518,-5.3518,-5.3416,-5.3213,-5.3179,-5.3112,-5.2942,-5.2334,-5.2029,-5.2029,-5.1488,-5.1185,-5.1185,-5.1185,-5.1185,-6.0791,-6.414,-6.6711,-6.6305,-6.6812,-6.688,-6.4715,-6.3159,-6.1147,-5.7672,-5.4267,-5.2085,-5.2676,-5.2741,-5.42,-5.8728,-6.2255,-6.4992,-6.65,-6.7049,-6.7307,-6.7394,-6.7022,-6.6779,-6.6677,-6.6677,-6.6812,-6.7151,-6.7679,-6.8549,-6.9746,-7.1217,-7.2038,-7.2038,-7.2038,-7.2038,-7.2038,-7.2038,-7.2038,-7.2038,-7.1942,-7.181,-7.1712,-7.1546,-7.1412,-7.1312,0.0,-7.1312,-7.1312,-7.1312,-7.1312,-7.1312,-7.1312,-7.1312,-7.1312,-7.1312,-7.1041,-7.0567,-6.9823,-6.9282,-6.8673,-6.7286,-6.6812,-6.6812,-6.6812,-6.6812,-6.6711,-6.6305,-6.5933,-6.5425,-6.4275,-6.3768,-6.3328,-6.2584,-6.2381,-6.2178,-6.1467,-6.0655,-5.9776,-5.8727,-5.8186,-5.7746,-5.734,-5.7273,-5.69,-5.575,-5.5547,-5.5175,-5.4126,-5.3687,-5.3518,-5.3518,-5.3518,-5.3518,-5.3518,-5.3518,-5.3518,-5.3518,-5.3518,-5.3518,-5.3518,-5.3518,-5.3518,-5.3518,-5.3078,-5.2841,-5.2841,-5.2435,-5.2232,-5.2232,-5.2232,-5.2232,-6.3226,-6.5561,-6.7218,-6.7015,-6.6948,-6.6102,-6.2821,-6.0182,-5.7281,-5.3154,-4.9459,-4.7245,-4.8317,-4.9632,-5.2027,-5.6499,-6.0789,-6.4118,-6.5653,-6.5926,-6.6221,-6.6942,-6.6904,-6.7151,-6.7996,-6.8233,-6.8639,-6.935,-6.8741,-6.8605,-6.9214,-7.0567,-7.1312,-7.1312,-7.1312,-7.1312,-7.1312,-7.1312,-7.1312,-7.1312,-7.1312,-7.1312,-7.1312,-7.1312,-7.1312,-7.1312,-7.1312,-7.1312,-7.1312,-7.1312,-7.1312,-7.1312,-7.1312,-7.1312,-7.1312,-7.1312,-7.1312,-7.121,-7.0466,-7.0195,-6.9823,-6.7658,-6.6948,-6.6948,-6.6846,-6.6812,-6.6812,-6.6812,-6.6339,-6.5628,-6.4816,-6.414,-6.3463,-6.2584,-6.2381,-6.2178,-6.1467,-6.0588,-5.9573,-5.8287,-5.7949,-5.7881,-5.7881,-5.7881,-5.7645,-5.69,-5.6799,-5.6258,-5.4769,-5.4025,-5.3619,-5.3518,-5.3518,-5.3518,-5.3518,-5.3518,-5.3518,-5.3518,-5.3518,-5.3518,-5.3518,-5.3518,-5.3518,-5.3518,-5.3518,-5.3518,-5.3518,-5.3518,-5.3518,-5.3518,-5.3518,-5.3518,-6.5933,-6.7895,-6.9282,-6.803,-6.7726,-6.644,-6.1603,-5.7848,-5.3991,-4.9202,-4.4921,-4.2496,-4.4048,-4.5951,-4.8627,-5.2951,-5.7696,-6.1346,-6.2871,-6.3617,-6.4458,-6.5812,-6.6482,-6.7354,-6.8774,-6.9992,-7.077,-7.0939,-7.0804,-7.05,-7.0026,-7.0838,-7.1312,-7.1312,-7.1312,-7.1312,-7.1312,-7.1312,-7.1312,-7.1312,-7.1312,-7.1312,-7.1312,-7.1312,-7.1312,-7.1312,-7.1312,0.0,-7.1312,-7.1312,-7.1312,-7.1312,-7.1312,-7.1312,-7.1312,-7.1312,-7.1312,-7.121,-7.0466,-7.0195,-6.9891,-6.8233,-6.7726,-6.759,-6.6981,-6.6812,-6.6812,-6.6812,-6.6711,-6.6305,-6.4952,-6.4512,-6.4072,-6.2719,-6.2381,-6.2178,-6.1467,-6.0182,-5.9133,-5.8863,-5.8321,-5.7881,-5.7881,-5.7881,-5.7645,-5.69,-5.6799,-5.6258,-5.4769,-5.4465,-5.416,-5.3585,-5.3518,-5.3518,-5.3518,-5.3518,-5.3518,-5.3518,-5.3518,-5.3518,-5.3518,-5.3518,-5.3518,-5.3518,-5.3518,-5.3518,-5.3518,-5.3518,-5.3518,-5.3518,-5.3518,-5.3518,-6.7184,-6.8741,-6.9722,-6.7827,-6.6745,-6.4715,-5.9099,-5.4329,-4.9788,-4.5131,-4.1072,-3.878,-4.0397,-4.243,-4.5289,-4.9657,-5.4534,-5.849,-6.0351,-6.1637,-6.2922,-6.4377,-6.5527,-6.6812,-6.8335,-7.0195,-7.1312,-7.1312,-7.1312,-7.1142,-7.0804,-7.1109,-7.1312,-7.1312,-7.1312,-7.1312,-7.1312,-7.1312,-7.1312,-7.1312,-7.1312,-7.1312,-7.1312,-7.1312,-7.1312,-7.1312,-7.1312,0.0,-7.1312,-7.1312,-7.1312,-7.1312,-7.1312,-7.1312,-7.1312,-7.1312,-7.1312,-7.1278,-7.0906,-7.077,-7.0534,-6.9011,-6.8233,-6.776,-6.7015,-6.6812,-6.6812,-6.6812,-6.6812,-6.6576,-6.5459,-6.4884,-6.4309,-6.3226,-6.2685,-6.2178,-6.1467,-6.0723,-5.9979,-5.9167,-5.8727,-5.8355,-5.7949,-5.7881,-5.778,-5.7408,-5.7374,-5.6968,-5.5886,-5.575,-5.5175,-5.3653,-5.3518,-5.3518,-5.3518,-5.3518,-5.3518,-5.3518,-5.3518,-5.3518,-5.3518,-5.3518,-5.3518,-5.3518,-5.3518,-5.3518,-5.3518,-5.3518,-5.3518,-5.3518,-5.3518,-5.3518,-6.7963,-6.9282,-6.9857,-6.7421,-6.5324,-6.2279,-5.6156,-5.0439,-4.5286,-4.1053,-3.7376,-3.5454,-3.6978,-3.9024,-4.1946,-4.6384,-5.1248,-5.5344,-5.7746,-5.9505,-6.1197,-6.2854,-6.4478,-6.6102,-6.7726,-6.9958,-7.1312,-7.1312,-7.1312,-7.1312,-7.1312,-7.1312,-7.1312,-7.1312,-7.1312,-7.1312,-7.1312,-7.1312,-7.1312,-7.1312,-7.1312,-7.1312,-7.1312,-7.1312,-7.1312,-7.1312,-7.1312,0.0,0.0,-7.1312,-7.1312,-7.1312,-7.1312,-7.1312,-7.1312,-7.1312,-7.1312,-7.1312,-7.1312,-7.1312,-7.1075,-6.9586,-6.8673,-6.7996,-6.7083,-6.6812,-6.6812,-6.6812,-6.677,-6.6559,-6.5857,-6.5215,-6.4573,-6.3694,-6.2956,-6.2245,-6.167,-6.14,-6.096,-5.9742,-5.937,-5.9066,-5.8457,-5.822,-5.8118,-5.8118,-5.7983,-5.7611,-5.69,-5.6799,-5.6089,-5.416,-5.3991,-5.3923,-5.3754,-5.3754,-5.3687,-5.3518,-5.3518,-5.3518,-5.3518,-5.3518,-5.3518,-5.3518,-5.3518,-5.3518,-5.3518,-5.3518,-5.3518,-5.3518,-5.3518,-5.3518,-6.8774,-7.006,-7.05,-6.7557,-6.4208,-5.9844,-5.3112,-4.6549,-4.073,-3.6907,-3.3749,-3.2076,-3.3601,-3.5701,-3.8681,-4.3098,-4.7631,-5.1623,-5.4566,-5.6833,-5.9032,-6.1231,-6.3396,-6.5527,-6.7692,-6.9958,-7.1312,-7.1312,-7.1312,-7.1312,-7.1312,-7.1312,-7.1312,-7.1312,-7.1312,-7.1312,-7.1312,-7.1312,-7.1312,-7.1312,-7.1312,-7.1312,-7.1312,-7.1312,-7.1312,-7.1312,-7.1312,-7.1312,0.0,-7.1312,-7.1312,-7.1312,-7.1312,-7.1312,-7.1312,-7.1312,-7.1312,-7.1312,-7.1312,-7.1312,-7.1075,-6.9586,-6.9045,-6.8707,-6.7252,-6.6812,-6.6812,-6.6812,-6.6677,-6.6381,-6.564,-6.5371,-6.5008,-6.3755,-6.2956,-6.2381,-6.2313,-6.1772,-6.1264,-6.1129,-6.052,-5.9979,-5.9911,-5.9336,-5.893,-5.893,-5.8321,-5.7611,-5.69,-5.6799,-5.6461,-5.5615,-5.5513,-5.5243,-5.4566,-5.4499,-5.4194,-5.3551,-5.3518,-5.3518,-5.3518,-5.3518,-5.3518,-5.3518,-5.3518,-5.3518,-5.3518,-5.3518,-5.3518,-5.3518,-5.3518,-5.3518,-6.6711,-6.847,-6.9147,-6.5696,-6.2009,-5.7476,-5.0777,-4.4384,-3.8937,-3.5622,-3.2949,-3.1529,-3.2544,-3.3829,-3.6062,-4.0087,-4.3741,-4.7293,-5.0744,-5.3551,-5.6089,-5.8321,-6.0554,-6.2956,-6.5662,-6.7929,-6.9823,-7.121,-7.1312,-7.1312,-7.1312,-7.1312,-7.1312,-7.1312,-7.1312,-7.1312,-7.1312,-7.1312,-7.1312,-7.1312,-7.1312,-7.1312,-7.1312,-7.1312,-7.1312,-7.1312,-7.1312,0.0,0.0,-7.1312,-7.1312,-7.1312,-7.1312,-7.1312,-7.1312,-7.1312,-7.1312,-7.1312,-7.1312,-7.1312,-7.1075,-6.9586,-6.9113,-6.8808,-6.7286,-6.6812,-6.677,-6.6643,-6.655,-6.6397,-6.5932,-6.5614,-6.5068,-6.3789,-6.3294,-6.2956,-6.2482,-6.2144,-6.1839,-6.14,-6.1028,-6.0655,-6.0182,-5.9505,-5.9032,-5.9032,-5.8355,-5.778,-5.7476,-5.7442,-5.734,-5.707,-5.6258,-5.5412,-5.4668,-5.46,-5.4296,-5.3551,-5.3518,-5.3518,-5.3518,-5.3518,-5.3518,-5.3518,-5.3518,-5.3518,-5.3518,-5.3518,-5.3518,-5.3518,-5.3518,-5.3518,-6.4512,-6.6846,-6.7861,-6.4106,-6.0013,-5.5209,-4.8748,-4.2455,-3.728,-3.4709,-3.2577,-3.136,-3.1887,-3.2577,-3.4167,-3.7449,-4.0493,-4.3673,-4.7192,-5.0642,-5.3585,-5.5581,-5.7983,-6.0554,-6.3362,-6.6203,-6.8842,-7.1142,-7.1312,-7.1312,-7.1312,-7.1312,-7.1312,-7.1312,-7.1312,-7.1312,-7.1312,-7.1312,-7.1312,-7.1312,-7.1312,-7.1312,-7.1312,-7.1312,-7.1312,-7.1312,-7.1312,0.0,0.0,-7.1312,-7.1312,-7.1312,-7.1312,-7.1312,-7.1312,-7.1312,-7.1312,-7.1312,-7.1312,-7.1312,-7.1075,-6.9586,-6.9113,-6.8808,-6.7201,-6.6686,-6.6643,-6.655,-6.6378,-6.6259,-6.6139,-6.5688,-6.5085,-6.4329,-6.3835,-6.3362,-6.2854,-6.255,-6.2245,-6.1738,-6.1637,-6.1434,-6.0892,-6.0182,-5.9607,-5.937,-5.8693,-5.8152,-5.7915,-5.7881,-5.7881,-5.7881,-5.6968,-5.6055,-5.531,-5.5243,-5.4938,-5.4194,-5.416,-5.4059,-5.3822,-5.3822,-5.3721,-5.3518,-5.3518,-5.3518,-5.3518,-5.3518,-5.3518,-5.3518,-5.3518,-5.3518,-6.2719,-6.5662,-6.7015,-6.3328,-5.849,-5.3078,-4.709,-4.0468,-3.5194,-3.3728,-3.2239,-3.119,-3.119,-3.1819,-3.3038,-3.5261,-3.8159,-4.1196,-4.4242,-4.8443,-5.1826,-5.3348,-5.6122,-5.8795,-6.1129,-6.5324,-6.8842,-7.1142,-7.1312,0.0,-7.1312,-7.1312,-7.1312,-7.1312,-7.1312,-7.1312,-7.1312,-7.1312,-7.1312,-7.1312,-7.1312,-7.1312,-7.1312,-7.1312,-7.1312,-7.1312,0.0,0.0,0.0,-7.1312,-7.1312,-7.1312,-7.1312,-7.1312,-7.1312,-7.1312,-7.1312,-7.1312,-7.1312,-7.1312,-7.1075,-6.9586,-6.9113,-6.8765,-6.7021,-6.6507,-6.6507,-6.6507,-6.6162,-6.5867,-6.6052,-6.556,-6.5109,-6.5579,-6.4546,-6.3531,-6.3497,-6.2922,-6.2381,-6.2381,-6.2381,-6.2381,-6.2381,-6.1772,-6.1028,-6.0216,-5.9471,-5.8727,-5.7983,-5.7881,-5.7881,-5.7881,-5.7881,-5.7577,-5.6833,-5.6799,-5.6461,-5.575,-5.5647,-5.5344,-5.46,-5.4566,-5.4262,-5.3518,-5.3518,-5.3518,-5.3518,-5.3518,-5.3518,-5.3518,-5.3518,-5.3518,-5.7239,-5.9979,-6.1061,-5.7848,-5.4262,-5.0067,-4.4621,-3.9343,-3.516,-3.3694,-3.2239,-3.119,-3.119,-3.1413,-3.2273,-3.4472,-3.6535,-3.9233,-4.3234,-4.7631,-5.1217,-5.3281,-5.7915,-6.1637,-6.3396,0.0,-6.9451,-7.1176,-7.1312,-7.1312,-7.1312,-7.1312,-7.1312,-7.1312,-7.1312,-7.1312,-7.1312,-7.1312,-7.1312,-7.1312,-7.1312,-7.1312,-7.1312,-7.1312,-7.1312,0.0,0.0,0.0,0.0,-7.1312,-7.1312,-7.1312,-7.1312,-7.1312,-7.1312,-7.1312,-7.1312,-7.1312,-7.1312,-7.1176,-7.0771,-6.9332,-6.8695,-6.8249,-6.6695,-6.6345,-6.6421,-6.6119,-6.578,-6.5647,-6.6009,-6.5928,-6.5755,-6.5714,-6.4952,-6.4106,-6.3632,-6.2922,-6.2381,-6.2381,-6.2381,-6.2381,-6.2381,-6.1772,-6.1231,-6.096,-6.025,-5.9674,-5.9438,-5.8964,-5.866,-5.866,-5.8186,-5.7577,-5.6867,-5.6799,-5.6494,-5.5749,-5.5681,-5.5378,-5.4634,-5.46,-5.4262,-5.3518,-5.3518,-5.3518,-5.3518,-5.3518,-5.3518,-5.3518,-5.3518,-5.3518,-5.1454,-5.46,-5.5852,-5.3145,-5.0439,-4.7124,-4.2185,-3.8024,-3.4776,-3.3288,-3.2036,-3.119,-3.119,-3.1447,-3.2158,-3.3829,-3.5611,-3.8251,-4.2388,-4.709,-5.1555,-5.5513,-5.9776,-6.3091,-6.485,-6.7218,-6.9383,-7.1176,-7.1312,-7.1312,-7.1312,-7.1312,-7.1312,-7.1312,-7.1312,-7.1312,-7.1312,-7.1312,-7.1312,-7.1312,-7.1312,-7.1312,-7.1312,-7.1312,-7.1312,0.0,0.0,0.0,0.0,-7.1312,-7.1312,-7.1312,-7.1312,-7.1312,-7.1312,-7.1312,-7.1312,-7.1278,-7.0973,-7.0693,-7.0243,-6.8762,-6.7869,-6.7202,-6.6266,-6.6086,-6.6162,-6.5736,-6.5514,-6.5514,-6.5878,-6.5999,-6.5995,-6.5986,-6.5234,-6.4356,-6.3883,-6.2972,-6.2229,-6.2229,-6.2229,-6.2229,-6.2229,-6.1857,-6.1486,-6.1182,-6.0743,-6.0342,-6.0148,-5.9708,-5.9336,-5.9032,-5.8592,-5.8017,-5.7273,-5.7205,-5.7036,-5.6562,-5.6528,-5.619,-5.5446,-5.5412,-5.5074,-5.4363,-5.4329,-5.4329,-5.4329,-5.4329,-5.4329,-5.4329,-5.4329,-5.4329,0.0,-4.9357,-5.1217,-4.9052,-4.6955,-4.4248,-3.9851,-3.6535,0.0,-3.2598,-3.1718,-3.119,-3.119,-3.1819,-3.2564,-3.3355,-3.5385,-3.8217,-4.2016,-4.7225,-5.3078,-5.9641,-6.1738,-6.3463,-6.5628,-6.7184,-6.8977,-7.1142,-7.1312,-7.1312,-7.1312,-7.1312,-7.1312,-7.1312,-7.1312,-7.1312,-7.1312,-7.1312,-7.1312,-7.1312,-7.1312,-7.1312,-7.1312,-7.1312,-7.1312,0.0,0.0,0.0,0.0,-7.1312,-7.1312,-7.1312,-7.1312,-7.1312,-7.1312,-7.1312,-7.1312,-7.121,-7.0466,-7.0028,-6.9525,-6.8011,-6.6732,-6.578,-6.578,-6.578,-6.5736,-6.547,-6.5425,-6.547,-6.5736,-6.578,-6.5911,-6.6378,-6.5388,-6.4311,-6.4327,-6.3107,-6.2064,-6.1997,-6.1997,-6.1997,-6.1997,-6.1997,-6.1761,-6.1088,-6.0987,-6.0829,-6.0313,-6.0216,-5.9911,-5.9268,-5.9099,-5.8727,-5.8017,-5.7915,-5.7881,-5.7881,-5.7881,-5.7577,-5.6833,-5.6799,-5.6461,-5.5681,-5.5681,-5.5681,-5.5681,-5.5681,-5.5681,-5.5681,-5.5681,-5.5681,-3.7763,0.0,-4.5974,-4.4282,-4.3064,-4.1407,0.0,-3.5419,-3.3389,-3.2496,-3.1718,-3.119,-3.119,-3.1819,-3.2733,-3.4032,-3.6163,-3.9343,-4.4215,-5.1352,-5.7915,-6.2956,-6.4343,-6.5561,-6.7218,-6.8741,-7.0128,-7.1244,-7.1312,-7.1312,-7.1312,-7.1312,-7.1312,-7.1312,-7.1312,-7.1312,-7.1312,-7.1312,-7.1312,-7.1312,-7.1312,-7.1312,-7.1312,-7.1312,-7.1312,0.0,0.0,0.0,-7.1312,-7.1312,-7.1312,-7.1312,-7.1312,-7.1312,-7.1312,-7.1312,-7.1312,-7.121,-7.0466,-6.9895,-6.9255,-6.7345,-6.6201,-6.5514,-6.5514,-6.5514,-6.547,-6.5425,-6.5425,-6.547,-6.5736,-6.578,-6.5911,-6.6378,-6.5673,-6.4749,-6.4386,-6.3422,-6.2501,-6.2058,-6.1877,-6.183,-6.1957,-6.1877,-6.1763,-6.1721,-6.1728,-6.1773,-6.1873,-6.1366,-6.096,-6.0791,-5.9708,-5.893,-5.8761,-5.822,-5.7881,-5.7881,-5.7881,-5.7577,-5.6833,-5.6799,-5.6461,-5.5681,-5.5681,-5.5681,-5.5681,-5.5681,-5.5681,-5.5681,-5.5681,-5.5681,-3.4281,-3.799,-4.1238,-4.0079,-3.9478,-3.8497,-3.5825,-3.3998,-3.2679,-3.1955,-3.1481,-3.1292,-3.165,-3.2327,-3.3389,-3.5272,-3.7719,-4.2083,-4.9729,-5.6089,-6.1637,-6.6136,-6.7015,-6.7827,0.0,-7.0195,-7.0872,-7.1278,-7.1312,-7.1312,-7.1312,-7.1312,-7.1312,-7.1312,-7.1312,-7.1312,-7.1312,-7.1312,-7.1312,-7.1312,-7.1312,-7.1312,-7.1312,-7.1312,-7.1312,0.0,0.0,0.0,-7.1312,-7.1312,-7.1312,-7.1278,-7.0939,-7.0804,-7.077,-7.0432,-7.0297,-7.0195,-6.9286,-6.8505,-6.758,-6.6422,-6.5757,-6.5425,-6.5425,-6.5425,-6.5425,-6.5425,-6.5425,-6.5425,-6.5603,-6.5603,-6.5692,-6.6119,-6.5507,-6.4796,-6.4564,-6.3501,-6.259,-6.2278,-6.1862,-6.1588,-6.1709,-6.1628,-6.1588,-6.1709,-6.1716,-6.187,-6.2183,-6.1852,-6.152,-6.1332,-6.0554,-5.9776,-5.9066,-5.8626,-5.8254,-5.7915,-5.7881,-5.7712,-5.7306,-5.7306,-5.7103,-5.6731,-5.6697,-5.6697,-5.6697,-5.6697,-5.6697,-5.6697,-5.6697,-5.6697,-3.3186,-3.5453,-3.7449,-3.6931,-3.6897,-3.6434,-3.4404,-3.3322,-3.2598,-3.1867,-3.1698,-3.1867,-3.253,-3.3423,-3.4844,-3.71,-4.0629,-4.638,-5.5818,-6.0283,-6.414,-6.8402,-6.891,0.0,-7.0838,-7.0973,-7.0973,-7.0973,-7.0973,-7.0973,-7.0973,-7.0973,-7.0973,-7.0973,-7.0973,-7.0973,-7.0973,-7.121,-7.1312,-7.1312,-7.1312,-7.1312,-7.1312,-7.1312,-7.1312,-7.1312,0.0,0.0,-7.1312,-7.1312,-7.1312,-7.1244,-7.0466,-7.0195,-7.0094,-6.9383,-6.9035,-6.889,-6.7853,-6.6765,-6.5736,-6.5514,-6.5425,-6.5425,-6.5425,-6.5425,-6.5425,-6.5425,-6.5425,-6.5425,-6.5425,-6.5425,-6.547,-6.5736,-6.527,-6.4804,-6.4714,-6.3715,-6.274,-6.2549,-6.1983,-6.1475,-6.1417,-6.1383,-6.1342,-6.1383,-6.1383,-6.1547,-6.1951,-6.1997,-6.184,-6.1496,-6.1366,-6.0791,-5.9471,-5.9268,-5.8896,-5.8254,-5.8017,-5.7881,-5.7881,-5.7881,-5.7881,-5.7881,-5.7881,-5.7881,-5.7881,-5.7881,-5.7881,-5.7881,-5.7881,-5.7881,-3.3051,-3.4675,-3.6096,-3.666,-3.7246,-3.7483,-3.6524,-3.5656,-3.4878,-3.4134,-3.3998,-3.4032,-3.4134,-3.5825,-3.7956,-4.0155,-4.6752,-5.3281,-5.8017,-6.1366,-6.4512,-6.7692,0.0,-6.8436,-6.935,-6.9451,-6.9451,-6.9451,-6.9451,-6.9451,-6.9451,-6.9451,-6.9451,-6.9451,-6.9451,-6.9451,-6.9451,-7.0703,-7.1312,-7.1312,-7.1312,-7.1312,-7.1312,-7.1312,-7.1312,-7.1312,0.0,-7.1312,-7.1312,-7.1312,-7.1312,-7.1244,-7.0466,-7.0195,-7.0094,-6.9383,-6.8948,-6.856,-6.7413,-6.6457,-6.5736,-6.5514,-6.5425,-6.5425,-6.5425,-6.5425,-6.5425,-6.5425,-6.5425,-6.5425,-6.5425,-6.5425,-6.547,-6.5736,-6.5504,-6.5183,-6.477,-6.4384,-6.38,-6.2707,-6.229,-6.1907,-6.1517,-6.1252,-6.121,-6.1383,-6.1383,-6.1547,-6.1957,-6.203,-6.2076,-6.2212,-6.167,-6.1197,-6.096,-6.0317,-5.9877,-5.9776,-5.8592,-5.7881,-5.7881,-5.7881,-5.7881,-5.7881,-5.7881,-5.7881,-5.7881,-5.7881,-5.7881,-5.7881,-5.7881,-5.7881,-3.3119,-3.4484,-3.587,-3.7077,-3.8565,-3.958,-3.9242,-3.9208,-3.8903,-3.7777,-3.7212,-3.7043,-3.7449,-3.9039,-4.1948,-4.7022,-5.2706,-5.7509,-6.0419,-6.3057,-6.5493,0.0,0.0,-6.8233,-6.9011,-6.9113,-6.9113,-6.9113,-6.9113,-6.9113,-6.9113,-6.9113,-6.9113,-6.9113,-6.9113,-6.9113,-6.9113,-6.9789,-7.0128,-7.0128,-7.0128,-7.0128,-7.0128,-7.0128,-7.0128,-7.0128,0.0,-7.0128,-7.0128,-7.0128,-7.0128,-7.0026,-6.9248,-6.8944,-6.8876,-6.8036,-6.7473,-6.7056,-6.6501,-6.5991,-6.5559,-6.547,-6.5425,-6.5425,-6.5425,-6.5425,-6.5425,-6.5425,-6.5425,-6.5425,-6.5425,-6.5425,-6.5425,-6.5559,-6.5514,-6.5326,-6.5127,-6.4718,-6.421,-6.3634,-6.3126,-6.2719,-6.2481,-6.2031,-6.1724,-6.1816,-6.1484,-6.1375,-6.179,-6.183,-6.1951,-6.2341,-6.2076,-6.1738,-6.1332,-6.096,-6.0385,-5.9573,-5.8863,-5.8321,-5.7915,-5.7881,-5.7881,-5.7881,-5.7881,-5.7881,-5.7881,-5.7881,-5.7881,-5.7881,-5.7881,-5.7881,-3.3144,-3.4349,-3.5735,-3.7483,-3.958,-4.1305,-4.1644,-4.2422,-4.276,-4.1636,-4.0967,-4.0696,-4.1102,-4.2794,-4.6346,-5.3179,-5.707,-6.0114,-6.255,-6.4512,-6.617,-6.7489,-6.7658,-6.7895,-6.8504,-6.8571,-6.8571,-6.8571,-6.8571,-6.8571,-6.8571,-6.8571,-6.8571,-6.8571,-6.8571,-6.8571,-6.8571,-6.8571,-6.8741,-6.9113,-6.9113,-6.9113,-6.9113,-6.9113,-6.9113,-6.9113,-6.9113,-6.9113,-6.9113,-6.9113,-6.9035,-6.8924,-6.8147,-6.7665,-6.7386,-6.6623,-6.6119,-6.578,-6.5736,-6.5559,-6.5425,-6.5425,-6.5425,-6.5425,-6.5425,-6.5425,-6.5425,-6.5425,-6.5425,-6.5425,-6.5425,-6.5425,-6.5425,-6.5425,-6.5425,-6.5425,-6.5425,-6.4995,-6.4564,-6.4399,-6.3902,-6.3471,-6.3348,-6.2719,-6.2221,-6.2221,-6.155,-6.1252,-6.1628,-6.1709,-6.187,-6.2341,-6.2381,-6.2178,-6.1603,-6.1569,-6.0994,-5.9641,-5.9201,-5.8761,-5.8186,-5.7983,-5.7881,-5.7881,-5.7881,-5.7881,-5.7881,-5.7881,-5.7881,-5.7881,-5.7881,-5.7881,-3.2997,-3.3878,-3.5115,-3.7347,-3.958,-4.1576,-4.2902,-4.4384,-4.5432,-4.5331,-4.5263,-4.5026,-4.4412,-4.7187,-5.1082,-5.5818,-5.8524,-6.1061,-6.4038,0.0,-6.5967,-6.6812,-6.688,-6.6914,-6.6981,-6.6981,-6.6981,-6.6981,-6.6981,-6.6981,-6.6981,-6.6981,-6.6981,-6.6981,-6.6981,-6.6981,-6.6981,-6.6981,-6.7692,-6.9113,-6.9113,-6.9113,-6.9113,-6.9113,-6.9113,-6.9113,-6.9113,-6.9113,-6.9113,-6.9113,-6.8948,-6.8638,-6.793,-6.706,-6.6206,-6.5911,-6.5824,-6.5736,-6.5514,-6.5425,-6.5425,-6.5425,-6.5425,-6.5425,-6.5425,-6.5425,-6.5425,-6.5425,-6.5425,-6.5425,-6.5425,-6.5425,-6.5425,-6.5425,-6.5425,-6.5425,-6.5425,-6.5359,-6.516,-6.4498,-6.4299,-6.4034,-6.3405,-6.2719,-6.2221,-6.2221,-6.155,-6.1252,-6.1628,-6.1709,-6.187,-6.2341,-6.2381,-6.2381,-6.2313,-6.2313,-6.1975,-6.1197,-5.981,-5.8998,-5.893,-5.8254,-5.7881,-5.7881,-5.7881,-5.7881,-5.7881,-5.7881,-5.7881,-5.7881,-5.7881,-5.7881,-3.3826,-3.452,-3.5622,-3.7449,-3.9918,-4.2625,-4.5539,-4.8105,-4.9999,-5.0473,-5.0541,-5.0033,-4.8308,-5.1082,-5.4431,-5.707,-6.0148,-6.2922,-6.4986,-6.5933,-6.6508,-6.6779,-6.6812,-6.6812,-6.6812,-6.6812,-6.6812,-6.6812,-6.6812,-6.6812,-6.6812,-6.6812,-6.6812,-6.6812,-6.6812,-6.6812,-6.6812,-6.6812,-6.7117,-6.7692,-6.7692,-6.7692,-6.7692,-6.7692,-6.7692,-6.7692,-6.7692,-6.7692,-6.7692,-6.7692,-6.7564,-6.7315,-6.6805,-6.6363,-6.5911,-6.5824,-6.5692,-6.5559,-6.5425,-6.5425,-6.5425,-6.5425,-6.5425,-6.5425,-6.5425,-6.5425,-6.5425,-6.5425,-6.5425,-6.5425,-6.5425,-6.5425,-6.5425,-6.5425,-6.5425,-6.5425,-6.5425,-6.5425,-6.5326,-6.5061,-6.4995,-6.4895,-6.4664,-6.4001,-6.358,-6.358,-6.2543,-6.1874,-6.2166,-6.1806,-6.1628,-6.1911,-6.207,-6.215,-6.215,-6.2302,-6.2279,-6.2009,-6.1028,-6.0216,-5.9708,-5.9404,-5.9268,-5.9268,-5.9268,-5.9268,-5.9268,-5.9268,-5.9268,-5.9268,-5.9268,-5.9032,-3.422,-3.4656,-3.5588,-3.734,-3.9994,-4.3198,-4.7181,-5.0511,-5.3078,-5.4296,-5.4363,-5.3653,-5.186,-5.3991,-5.663,-5.8321,-6.1366,-6.4106,-6.5797,-6.6474,-6.6812,-6.6812,-6.6812,-6.6812,-6.6812,-6.6812,-6.6812,-6.6812,-6.6812,-6.6812,-6.6812,-6.6812,-6.6812,-6.6812,-6.6812,-6.6812,-6.6812,-6.6812,-6.6812,-6.6812,-6.6728,-6.6686,-6.6686,-6.6686,-6.6643,-6.6601,-6.6601,-6.6643,-6.6686,-6.6686,-6.6558,-6.6345,-6.6009,-6.579,-6.5647,-6.5647,-6.5559,-6.5425,-6.5425,-6.5425,-6.5425,-6.5425,-6.5425,-6.5425,-6.5425,-6.5425,-6.5425,-6.5425,-6.5425,-6.5425,-6.5425,-6.5425,-6.5425,-6.5425,-6.5425,-6.5425,-6.5425,-6.5425,-6.5425,-6.5425,-6.5425,-6.5425,-6.5425,-6.4829,-6.4365,-6.4365,-6.315,-6.2264,-6.2441,-6.185,-6.1465,-6.1669,-6.1877,-6.1997,-6.1997,-6.2229,-6.2381,-6.2381,-6.1907,-6.1298,-6.052,-6.0216,-6.0114,-6.0114,-6.0114,-6.0114,-6.0114,-6.0114,-6.0114,-6.0114,-6.0114,-5.9844,-3.4016,-3.414,-3.4766,-3.7008,-3.9718,-4.3031,-4.7515,-5.1125,-5.416,-5.6393,-5.6258,-5.5513,-5.4769,-5.5818,-5.7543,-5.9742,-6.2042,-6.4268,-6.6508,-6.677,-6.677,-6.677,-6.677,-6.677,-6.6812,-6.6812,-6.6812,-6.6812,-6.6812,-6.6812,-6.6812,-6.6812,-6.6812,-6.677,-6.677,-6.677,-6.677,-6.677,-6.677,-6.677,-6.6592,-6.6507,-6.6507,-6.6507,-6.6345,-6.6095,-6.6095,-6.6259,-6.6507,-6.6507,-6.6345,-6.6052,-6.557,-6.5425,-6.5425,-6.5425,-6.5425,-6.5425,-6.5425,-6.5425,-6.5425,-6.5425,-6.5425,-6.5425,-6.5425,-6.5425,-6.5425,-6.5425,-6.5425,-6.5425,-6.5425,-6.5425,-6.5425,-6.5425,-6.5425,-6.5425,-6.5425,-6.5425,-6.5425,-6.5425,-6.5425,-6.5425,-6.5425,-6.4829,-6.4399,-6.4399,-6.3183,-6.2264,-6.2474,-6.185,-6.1465,-6.1669,-6.1877,-6.1997,-6.1997,-6.2229,-6.2381,-6.2381,-6.2381,-6.2076,-6.1332,-6.0554,-6.0114,-6.0114,-6.0114,-6.0114,-6.0114,-6.0114,-6.0114,-6.0114,-6.0114,-6.0114,-3.5248,-3.6009,-3.7175,-3.9852,-4.3103,-4.6714,-5.0693,-5.3139,-5.5595,-5.8972,-5.9111,-5.8103,-5.6459,-5.778,-5.9299,-5.9823,-6.2245,-6.4596,-6.6076,-6.6311,-6.6311,-6.6311,-6.6311,-6.6388,-6.6592,-6.6592,-6.6677,-6.677,-6.6812,-6.6728,-6.6592,-6.6592,-6.6473,-6.6311,-6.6311,-6.6311,-6.6311,-6.6311,-6.6311,-6.6311,-6.6225,-6.6302,-6.6507,-6.6302,-6.6182,-6.6095,-6.6095,-6.6259,-6.6464,-6.6302,-6.6086,-6.5867,-6.5514,-6.5425,-6.5425,-6.5425,-6.5425,-6.5425,-6.5425,-6.5425,-6.5425,-6.5425,-6.5425,-6.5425,-6.5425,-6.5425,-6.5425,-6.5425,-6.5425,-6.5425,-6.5425,-6.5425,-6.5425,-6.5425,-6.5425,-6.5425,-6.5425,-6.5425,-6.5425,-6.5425,-6.5425,-6.5425,-6.5425,-6.526,-6.5094,-6.5094,-6.4332,-6.3382,-6.2439,-6.2107,-6.1775,-6.1318,-6.1465,-6.1588,-6.1588,-6.179,-6.1911,-6.1911,-6.203,-6.2088,-6.2076,-6.1839,-6.1704,-6.1704,-6.1704,-6.1704,-6.1704,-6.1704,-6.1704,-6.1704,-6.1704,-6.1434,-3.5632,-3.7378,-3.9361,-4.2227,-4.6162,-5.0459,-5.4722,-5.6538,-5.8064,-6.078,-6.0751,-5.978,-5.8386,-5.9363,-6.0464,-6.065,-6.2623,-6.4623,-6.5938,-6.6095,-6.6095,-6.6095,-6.6095,-6.6215,-6.6464,-6.6507,-6.6592,-6.677,-6.6458,-6.6163,-6.6069,-6.5715,-6.5462,-6.5258,-6.5526,-6.566,-6.566,-6.5962,-6.6095,-6.6095,-6.6009,-6.6086,-6.6249,-6.6042,-6.5922,-6.5834,-6.5922,-6.6086,-6.6206,-6.6042,-6.5911,-6.578,-6.5514,-6.5425,-6.5425,-6.5425,-6.5425,-6.5425,-6.5425,-6.5425,-6.5425,-6.5425,-6.5425,-6.5425,-6.5425,-6.5425,-6.5425,-6.5425,-6.5425,-6.5425,-6.5425,-6.5425,-6.5425,-6.5425,-6.5425,-6.5425,-6.5425,-6.5425,-6.5425,-6.5425,-6.5425,-6.5425,-6.5425,-6.5425,-6.5425,-6.5425,-6.4829,-6.3879,-6.2387,-6.2221,-6.1914,-6.1185,-6.1293,-6.1383,-6.1383,-6.1588,-6.1709,-6.1709,-6.1877,-6.2076,-6.2229,-6.2341,-6.2381,-6.2381,-6.2381,-6.2381,-6.2381,-6.2381,-6.2381,-6.2381,-6.2381,-6.2144,-3.5446,-3.8295,-4.1337,-4.4324,-4.9094,-5.4229,-5.9098,-6.0451,-6.0872,-6.1782,-6.1379,-6.0819,-6.0304,-6.0695,-6.1318,-6.1951,-6.3064,-6.4312,-6.5684,-6.5851,-6.5851,-6.5851,-6.5851,-6.5971,-6.622,-6.622,-6.6347,-6.6525,-6.575,-6.5253,-6.5253,-6.4405,-6.3986,-6.3944,-6.4546,-6.4872,-6.4939,-6.5617,-6.5985,-6.6052,-6.5867,-6.5736,-6.5736,-6.5736,-6.5647,-6.5425,-6.5692,-6.578,-6.578,-6.578,-6.578,-6.5736,-6.5514,-6.5425,-6.5425,-6.5425,-6.5425,-6.5425,-6.5425,-6.5425,-6.5425,-6.5425,-6.5425,-6.5425,-6.5425,-6.5425,-6.5425,-6.5425,-6.5425,-6.5425,-6.5425,-6.5425,-6.5425,-6.5425,-6.5425,-6.5425,-6.5425,-6.5425,-6.5425,-6.5425,-6.5425,-6.5425,-6.5425,-6.5425,-6.5425,-6.5425,-6.4895,-6.3968,-6.2586,-6.242,-6.2113,-6.1384,-6.1451,-6.1583,-6.1483,-6.1647,-6.1695,-6.1628,-6.1837,-6.1957,-6.1957,-6.2229,-6.2381,-6.2381,-6.2381,-6.2381,-6.2381,-6.2381,-6.2381,-6.2381,-6.2381,-6.2381,-3.5943,-3.9421,-4.3032,-4.7139,-5.287,-5.8237,-6.1094,-6.1335,-6.1094,-6.1432,-6.1413,-6.132,-6.1354,-6.1891,-6.2379,-6.2382,-6.3099,-6.3715,-6.3886,-6.3909,-6.3909,-6.3909,-6.3909,-6.3995,-6.4209,-6.4209,-6.4337,-6.4548,-6.4413,-6.4187,-6.4018,-6.38,-6.3615,-6.3444,-6.361,-6.3942,-6.454,-6.4706,-6.5039,0.0,-6.5514,-6.5514,-6.5514,-6.5514,-6.547,-6.5425,-6.5692,-6.5692,-6.5514,-6.5692,-6.5692,-6.547,-6.5425,-6.5425,-6.5425,-6.5425,-6.5425,-6.5425,-6.5425,-6.5425,-6.5425,-6.5425,-6.5425,-6.5425,-6.5425,-6.5425,-6.5425,-6.5425,-6.5425,-6.5425,-6.5425,-6.5425,-6.5425,-6.5425,-6.5425,-6.5425,-6.5425,-6.5425,-6.5425,-6.5425,-6.5425,-6.5425,-6.5425,-6.5425,-6.5425,-6.5425,-6.5293,-6.4895,-6.4034,-6.3902,-6.3603,-6.2908,-6.2894,-6.2662,-6.2065,-6.2073,-6.185,-6.1244,-6.1424,-6.1547,-6.1547,-6.2104,-6.2381,-6.2381,-6.2381,-6.2381,-6.2381,-6.2381,-6.2381,-6.2381,-6.2381,-6.2381,-3.6439,-4.1044,-4.6245,-5.3135,-5.7409,-6.0357,-6.189,-6.1881,-6.1558,-6.1318,-6.1301,-6.1465,-6.1669,-6.1929,-6.2215,-6.2449,-6.2731,-6.3045,-6.3282,-6.3315,-6.3315,-6.3315,-6.3315,-6.3358,-6.3572,-6.3615,-6.37,-6.3986,-6.3534,-6.3208,-6.3082,-6.2623,-6.2372,-6.2245,-6.2619,-6.2984,-6.3348,-6.3713,-6.4034,-6.4399,-6.4399,-6.4399,-6.4399,-6.5094,-6.5425,-6.5425,-6.5559,-6.5514,-6.5425,-6.5559,-6.5514,-6.5425,-6.5425,-6.5425,-6.5425,-6.5425,-6.5425,-6.5425,-6.5425,-6.5425,-6.5425,-6.5425,-6.5425,-6.5425,-6.5425,-6.5425,-6.5425,-6.5425,-6.5425,-6.5425,-6.5425,-6.5425,-6.5425,-6.5425,-6.5425,-6.5425,-6.5425,-6.5425,-6.5425,-6.5425,-6.5425,-6.5425,-6.5425,-6.5425,-6.5425,-6.5425,-6.5425,-6.516,-6.4465,-6.4365,-6.41,-6.3415,-6.3315,-6.3017,-6.2288,-6.2221,-6.1881,-6.1152,-6.1293,-6.1383,-6.1383,-6.1911,-6.2189,-6.2189,-6.2341,-6.2381,-6.2381,-6.2381,-6.2381,-6.2381,-6.2381,-6.2381,-3.6605,-4.2833,-4.9955,-5.8734,-6.102,-6.1285,-6.2056,-6.2122,-6.1815,-6.1218,-6.121,-6.1383,-6.1547,-6.1465,-6.1575,-6.2174,-6.2107,-6.2255,-6.2808,-6.2908,-6.2908,-6.2908,-6.2908,-6.2993,-6.3164,-6.3164,-6.3248,-6.3459,-6.2724,-6.2274,-6.2274,-6.1501,-6.1119,-6.1119,-6.1682,-6.2089,-6.2221,-6.2818,-6.3183,-6.3315,-6.3315,-6.3315,-6.3348,-6.4498,-6.5061,-6.5061,-6.5194,-6.5227,-6.526,-6.5359,-6.5425,-6.5425,-6.5425,-6.5425,-6.5425,-6.5425,-6.5425,-6.5425,-6.5425,-6.5425,-6.5392,-6.5293,-6.5227,-6.5194,-6.5094,-6.5127,-6.5227,-6.5227,-6.5326,-6.5425,-6.5425,-6.5425,-6.5425,-6.5425,-6.5425,-6.5425,-6.5425,-6.5425,-6.5425,-6.5425,-6.5425,-6.5425,-6.5425,-6.5425,-6.5425,-6.5425,-6.5425,-6.5194,-6.463,-6.4564,-6.4332,-6.3703,-6.3637,-6.3338,-6.2652,-6.2586,-6.2245,-6.1516,-6.1617,-6.1742,-6.1742,-6.2078,-6.2213,-6.2078,-6.2296,-6.2381,-6.2381,-6.2381,-6.2381,-6.2381,-6.2381,-6.2381,-3.5843,-4.4291,-5.3003,-5.8734,-6.0622,-6.1285,-6.2056,-6.1682,-6.1218,-6.1119,-6.1119,-6.1161,-6.1202,-6.1161,-6.1161,-6.126,-6.1251,-6.1285,-6.1384,-6.1384,-6.1384,-6.1384,-6.1384,-6.1384,-6.1426,-6.1426,-6.1426,-6.1467,-6.1359,-6.1293,-6.1293,-6.1152,-6.1119,-6.1119,-6.1218,-6.155,-6.2221,-6.2321,-6.2685,-6.3315,-6.3315,-6.3315,-6.3315,-6.3471,-6.357,-6.3603,-6.4233,-6.4531,-6.4564,-6.516,-6.5425,-6.5425,-6.5425,-6.5425,-6.5425,-6.5425,-6.5425,-6.5425,-6.5425,-6.5425,-6.5326,-6.473,-6.4531,-6.4399,-6.3769,-6.3968,-6.4465,-6.4498,-6.4962,-6.5425,-6.5425,-6.5425,-6.5425,-6.5425,-6.5425,-6.5425,-6.5425,-6.5425,-6.5425,-6.5425,-6.5425,-6.5425,-6.5425,-6.5425,-6.5425,-6.5425,-6.5425,-6.5392,-6.5293,-6.5293,-6.5227,-6.5127,-6.5127,-6.4829,-6.4133,-6.4144,-6.3769,-6.304,-6.3017,-6.306,-6.306,-6.3273,-6.3099,-6.2432,-6.2407,-6.2381,-6.2381,-6.2381,-6.2381,-6.2381,-6.2381,-6.2381,-3.909,-4.6709,-5.3665,-5.9231,-6.0854,-6.1285,-6.2056,-6.1956,-6.1583,-6.1185,-6.1119,-6.1119,-6.1119,-6.1119,-6.1119,-6.1119,-6.1119,-6.1119,-6.1119,-6.1119,-6.1119,-6.1119,-6.1119,-6.1119,-6.1119,-6.1119,-6.1119,-6.1119,-6.1119,-6.1119,-6.1119,-6.1119,-6.1119,-6.1119,-6.1119,-6.1251,-6.1583,-6.1583,-6.1748,-6.2047,-6.2047,-6.2047,-6.2047,-6.2047,-6.251,-6.3348,-6.4067,-6.4365,-6.4432,-6.5127,-6.5425,-6.5425,-6.5425,-6.5425,-6.5425,-6.5425,-6.5425,-6.5425,-6.5425,-6.516,-6.4763,-6.4465,-6.4067,-6.3703,-6.3415,-6.3504,-6.3802,-6.4266,-6.4597,-6.4929,-6.5326,-6.5425,-6.5425,-6.5425,-6.5425,-6.5425,-6.5425,-6.5425,-6.5425,-6.5425,-6.5425,-6.5425,-6.5425,-6.5425,-6.5425,-6.5425,-6.5425,-6.5425,-6.5425,-6.5425,-6.5425,-6.5425,-6.5425,-6.5127,-6.4432,-6.4365,-6.4067,-6.3382,-6.3315,-6.3315,-6.3315,-6.3487,-6.3248,-6.2516,-6.2717,-6.2594,-6.2189,-6.2341,-6.2381,-6.2381,-6.2381,-6.2381,-4.0873,-4.6908,-5.1976,-5.7508,-5.9164,-5.9661,-6.0556,-6.0962,-6.102,-6.0854,-6.0821,-6.0887,-6.1086,-6.1119,-6.1119,-6.1119,-6.1119,-6.1119,-6.1119,-6.1119,-6.1119,-6.1119,-6.1119,-6.1119,-6.1119,-6.1119,-6.1119,-6.1119,-6.1119,-6.1119,-6.1119,-6.1119,-6.1119,-6.1119,-6.1119,-6.1119,-6.1119,-6.1119,-6.1119,-6.1119,-6.1119,-6.1119,-6.1119,-6.1119,-6.1682,-6.2775,-6.3504,-6.3846,-6.3902,-6.4796,-6.516,-6.516,-6.5326,-6.5425,-6.5425,-6.5425,-6.5425,-6.5425,-6.5425,-6.5061,-6.4597,-6.4167,-6.3703,-6.3249,-6.2842,-6.2974,-6.3415,-6.3978,-6.4365,-6.4763,-6.5293,-6.5425,-6.5425,-6.5425,-6.5425,-6.5425,-6.5425,-6.5425,-6.5425,-6.5425,-6.5425,-6.5425,-6.5425,-6.5425,-6.5425,-6.5425,-6.5425,-6.5425,-6.5425,-6.5425,-6.5425,-6.5425,-6.5425,-6.5194,-6.4697,-6.463,-6.4399,-6.3868,-6.3802,-6.3802,-6.3802,-6.4009,-6.3729,-6.2997,-6.3342,-6.3019,-6.1997,-6.2268,-6.2381,-6.2381,-6.2381,-6.2381,-3.8486,-4.2796,-4.7206,-5.1711,-5.3864,-5.5222,-5.6647,-5.7508,-5.8403,-5.9794,-6.0059,-6.0258,-6.0986,-6.1119,-6.1119,-6.1119,-6.1119,-6.1119,-6.1119,-6.1119,-6.1119,-6.1119,-6.1119,-6.1119,-6.1119,-6.1119,-6.1119,-6.1119,-6.1119,-6.1119,-6.1119,-6.1119,-6.1119,-6.1119,-6.1119,-6.1119,-6.1119,-6.1119,-6.1119,-6.1119,-6.1119,-6.1119,-6.1119,-6.1119,-6.1152,-6.1251,-6.198,-6.2321,-6.2453,-6.3835,-6.4432,-6.4498,-6.516,-6.5425,-6.5425,-6.5425,-6.5425,-6.5425,-6.5425,-6.5392,-6.5127,-6.3769,-6.3348,-6.3007,-6.1649,-6.2179,-6.3315,-6.3382,-6.4299,-6.5359,-6.5392,-6.5425,-6.5425,-6.5425,-6.5425,-6.5425,-6.5425,-6.5425,-6.5425,-6.5425,-6.5425,-6.5425,-6.5425,-6.5425,-6.5425,-6.5425,-6.5425,-6.5425,-6.5425,-6.5425,-6.5425,-6.5425,-6.5425,-6.5392,-6.5359,-6.5359,-6.5326,-6.5293,-6.5293,-6.5293,-6.5293,-6.5293,-6.4962,-6.431,-6.4527,-6.3726,-6.1997,-6.2268,-6.2381,-6.2381,-6.2381,-6.2381,-3.5039,-3.8652,-4.2597,-4.6477,-4.8895,-5.1082,-5.393,-5.5521,-5.7077,-5.9496,-5.9993,-6.0092,-6.0357,-6.0788,-6.1119,-6.1119,-6.1119,-6.1119,-6.1119,-6.1119,-6.1119,-6.1119,-6.1119,-6.1119,-6.1119,-6.1119,-6.1119,-6.1119,-6.1119,-6.1119,-6.1119,-6.1119,-6.1119,-6.1119,-6.1119,-6.1119,-6.1119,-6.1119,-6.1119,-6.1119,-6.1119,-6.1119,-6.1119,-6.1119,-6.1119,-6.1119,-6.1384,-6.1748,-6.2321,-6.3813,-6.4365,-6.4465,-6.516,-6.5425,-6.5425,-6.5425,-6.5425,-6.5425,-6.5425,-6.5127,-6.4664,-6.4167,-6.367,-6.3216,-6.2643,-6.2875,-6.3415,-6.3802,-6.4299,-6.4829,-6.5293,-6.5425,-6.5425,-6.5425,-6.5425,-6.5425,-6.5425,-6.5425,-6.5425,-6.5425,-6.5425,-6.5425,-6.5425,-6.5425,-6.5425,-6.5425,-6.5425,-6.5425,-6.5425,-6.5425,-6.5425,-6.5425,-6.5425,-6.5425,-6.5425,-6.5425,-6.5425,-6.5425,-6.5425,-6.5425,-6.5425,-6.5425,-6.5094,-6.4399,-6.4584,-6.3891,-6.233,-6.2656,-6.2622,-6.2183,-6.2302,-6.2381,-3.2464,-3.5214,-3.8288,-4.1674,-4.4158,-4.6609,-4.9756,-5.2208,-5.4626,-5.7574,-5.8535,-5.9032,-5.9529,-6.0026,-6.0357,-6.0357,-6.0357,-6.0357,-6.0357,-6.0589,-6.0755,-6.0755,-6.0953,-6.1119,-6.1119,-6.1119,-6.1119,-6.1119,-6.1119,0.0,-6.1119,-6.1119,-6.1119,-6.1119,-6.1119,-6.1119,-6.1119,-6.1119,-6.1119,-6.1119,-6.1119,-6.1119,-6.1119,-6.1119,-6.1119,-6.1119,-6.1119,-6.1384,-6.1947,-6.3405,-6.4001,-6.41,-6.5061,-6.5425,-6.5425,-6.5425,-6.5425,-6.5425,-6.5425,-6.5127,-6.4697,-6.4465,-6.4034,-6.3603,-6.3415,-6.3481,-6.3736,-6.4167,-6.4498,-6.4796,-6.5293,-6.5425,-6.5425,-6.5425,-6.5425,-6.5425,-6.5425,-6.5425,-6.5425,-6.5425,-6.5425,-6.5425,-6.5425,-6.5425,-6.5425,-6.5425,-6.5425,-6.5425,-6.5425,-6.5425,-6.5425,-6.5425,-6.5425,-6.5425,-6.5425,-6.5425,-6.5425,-6.5425,-6.5425,-6.5425,-6.5425,-6.5425,-6.5194,-6.473,-6.4862,-6.4318,-6.3088,-6.3131,-6.2737,-6.203,-6.2302,-6.2381,0.0,0.0,0.0,-3.7235,-3.956,-4.1773,-4.3992,-4.737,-5.0851,-5.3831,-5.562,-5.7077,-5.8601,-5.8866,-5.8866,-5.8833,-5.8866,-5.8899,-5.8899,-5.9529,-5.9993,-5.9993,-6.0622,-6.1086,-6.1119,-6.1119,-6.1119,-6.1119,-6.1119,-6.1119,-6.1119,-6.1119,-6.1119,-6.1119,-6.1119,-6.1119,-6.1119,-6.1119,-6.1119,-6.1119,-6.1119,-6.1119,-6.1119,-6.1119,-6.1119,-6.1119,-6.1119,-6.1119,-6.1218,-6.2676,-6.3315,-6.3448,-6.4862,-6.5425,-6.5425,-6.5425,-6.5425,-6.5425,-6.5425,-6.5425,-6.5293,-6.463,-6.4399,-6.4266,-6.3614,-6.3835,-6.4399,-6.4365,-6.4862,-6.5425,-6.5425,-6.5425,-6.5425,-6.5425,-6.5425,-6.5425,-6.5425,-6.5425,-6.5425,-6.5425,-6.5425,-6.5425,-6.5425,-6.5425,-6.5425,-6.5425,-6.5425,-6.5425,-6.5425,-6.5425,-6.5425,-6.5425,-6.5425,-6.5425,-6.5425,-6.5425,-6.5425,-6.5425,-6.5425,-6.5425,-6.5425,-6.5425,-6.5425,-6.5425,-6.5425,-6.5061,-6.4299,-6.3509,-6.2764,-6.2064,-6.2296,-6.2448,-2.8475,0.0,0.0,0.0,0.0,0.0,0.0,0.0,-4.6874,-5.1943,-5.4129,-5.5719,-5.774,-5.8104,-5.7906,-5.7376,-5.8204,-5.8899,-5.8899,-5.9065,-5.9396,-5.9926,-6.0191,-6.0523,-6.1053,-6.1119,-6.1119,0.0,-6.1119,-6.1119,-6.1119,-6.1119,-6.1119,-6.1119,-6.1119,-6.1119,-6.1119,-6.1119,-6.1119,-6.1119,-6.1119,-6.1119,-6.1119,-6.1119,-6.1119,-6.1119,-6.1119,-6.1119,-6.1218,-6.2676,-6.3315,-6.3448,-6.4862,-6.5425,-6.5425,-6.5425,-6.5425,-6.5425,-6.5425,-6.5425,-6.5392,-6.5194,-6.5127,-6.5094,-6.4895,-6.4962,-6.5127,-6.5127,-6.526,-6.5425,-6.5425,-6.5425,-6.5425,-6.5425,-6.5425,-6.5425,-6.5425,-6.5425,-6.5425,-6.5425,-6.5425,-6.5425,-6.5425,-6.5425,-6.5425,-6.5425,-6.5425,-6.5425,-6.5425,-6.5425,-6.5425,-6.5425,-6.5425,-6.5425,-6.5425,-6.5425,-6.5425,-6.5425,-6.5425,-6.5425,-6.5425,-6.5425,-6.5425,-6.5425,-6.5425,-6.5061,-6.4299,-6.4281,-6.3884,-6.315,-6.3598,-6.3843,-2.8754,-2.9251,-2.9926,-3.0224,0.0,0.0,-3.5909,-3.9421,-4.3495,0.0,-5.0353,-5.2373,-5.4295,-5.4626,-5.4593,-5.446,-5.5421,-5.6614,-5.7806,-5.8237,-5.8601,-5.9032,-5.9363,-5.9728,-6.0158,-6.0191,-6.0191,-6.0191,-6.0191,-6.0191,-6.0191,-6.049,-6.0655,-6.0655,-6.0953,-6.1119,-6.1119,-6.1119,-6.1119,-6.1119,-6.1119,-6.1119,-6.1119,-6.1119,-6.1119,-6.1119,-6.1119,-6.1119,-6.1185,-6.2345,-6.2851,-6.2984,-6.4399,-6.4962,-6.5028,-6.5326,-6.5425,-6.5425,-6.5425,-6.5425,-6.5425,-6.5425,-6.5425,-6.5425,-6.5425,-6.5425,-6.5425,-6.5425,-6.5425,-6.5425,-6.5425,-6.5425,-6.5425,-6.5425,-6.5425,-6.5425,-6.5425,-6.5425,-6.5425,-6.5425,-6.5425,-6.5425,-6.5425,-6.5425,-6.5425,-6.5425,-6.5425,-6.5425,-6.5425,-6.5425,-6.5425,-6.5425,-6.5425,-6.5425,-6.5425,-6.5425,-6.5425,-6.5425,-6.5425,-6.5425,-6.5425,-6.5425,-6.5425,-6.5425,-6.5425,-6.5194,-6.4763,-6.4717,-6.4433,-6.3911,-6.4161,-6.4409,-3.0679,-3.0721,0.0,-3.1449,-3.21,0.0,-3.3193,-3.6605,-4.0282,0.0,-4.5284,-4.7769,-4.9425,-4.9723,-4.9922,-5.0586,-5.1382,-5.297,-5.6017,-5.7077,-5.7608,-5.7773,-5.8369,-5.88,-5.8899,-5.8899,-5.8899,-5.8899,-5.8899,-5.8899,-5.8899,-5.9529,-5.9893,-5.9893,-6.0523,-6.092,-6.0986,-6.0986,-6.102,-6.1119,-6.1119,-6.1119,-6.1119,-6.1119,-6.1119,-6.1119,-6.1119,-6.1119,-6.1152,-6.1781,-6.2155,-6.2354,-6.3769,-6.4332,-6.4465,-6.516,-6.5425,-6.5425,-6.5425,-6.5425,-6.5425,-6.5425,-6.5425,-6.5425,-6.5425,-6.5425,-6.5425,-6.5425,-6.5425,-6.5425,-6.5425,-6.5425,-6.5425,-6.5425,-6.5425,-6.5425,-6.5425,-6.5425,-6.5425,-6.5425,-6.5425,-6.5425,-6.5425,-6.5425,-6.5425,-6.5425,-6.5425,-6.5425,-6.5425,-6.5425,-6.5425,-6.5425,-6.5425,-6.5425,-6.5425,-6.5425,-6.5425,-6.5425,-6.5425,-6.5425,-6.5425,-6.5425,-6.5425,-6.5425,-6.5425,-6.5425,-6.5425,-6.4972,-6.4686,-6.4472,-6.4472,-6.4596,-3.2221,-3.2266,-3.2166,-3.1714,0.0,0.0,-3.051,-3.2762,-3.5876,0.0,-4.111,-4.3495,-4.6179,-4.6643,-4.6709,-4.6841,-4.7968,-5.0286,-5.4361,-5.5549,-5.6481,-5.7641,-5.7906,-5.8237,-5.8833,-5.8899,-5.8899,-5.8899,-5.8899,-5.8899,-5.8899,-5.9032,-5.9098,-5.9098,-5.9264,-5.9595,-6.0225,-6.0225,-6.0523,-6.1119,-6.1119,-6.1119,-6.1119,-6.1119,-6.1119,-6.1119,-6.1119,-6.1119,-6.1119,-6.1251,-6.1649,-6.2354,-6.3802,-6.4365,-6.4465,-6.516,-6.5425,-6.5425,-6.5425,-6.5425,-6.5425,-6.5425,-6.5425,-6.5425,-6.5425,-6.5425,-6.5425,-6.5425,-6.5425,-6.5425,-6.5425,-6.5425,-6.5425,-6.5425,-6.5425,-6.5425,-6.5425,-6.5425,-6.5425,-6.5425,-6.5425,-6.5425,-6.5425,-6.5425,-6.5425,-6.5425,-6.5425,-6.5425,-6.5425,-6.5425,-6.5425,-6.5425,-6.5425,-6.5425,-6.5425,-6.5425,-6.5425,-6.5425,-6.5425,-6.5425,-6.5425,-6.5425,-6.5425,-6.5425,-6.5425,-6.5425,-6.5425,-6.5337,-6.5382,-6.5511,-6.5511,-6.5727,-3.4134,-3.3891,-3.3555,-3.2872,0.0,0.0,0.0,-3.1669,-3.3856,-3.6108,-3.7996,-3.9818,-4.1674,-4.2005,-4.2005,-4.2005,-4.3529,-4.5881,-4.916,-5.244,-5.5057,-5.6547,-5.7011,-5.7243,-5.7276,-5.7574,-5.7806,-5.7806,-5.7806,-5.7806,-5.7806,-5.8138,-5.8336,-5.8336,-5.8701,-5.9065,-5.9463,-5.9827,-6.0191,-6.0556,-6.092,-6.1119,-6.1119,-6.1119,-6.1119,-6.1119,-6.1119,-6.1119,-6.1119,-6.1119,-6.1318,-6.1781,-6.3272,-6.3835,-6.3968,-6.5028,-6.5425,-6.5425,-6.5425,-6.5425,-6.5425,-6.5425,-6.5425,-6.5425,-6.5425,-6.5425,-6.5425,-6.5425,-6.5425,-6.5425,-6.5425,-6.5425,-6.5425,-6.5425,-6.5425,-6.5425,-6.5425,-6.5425,-6.5425,-6.5425,-6.5425,-6.5425,-6.5425,-6.5425,-6.5425,-6.5425,-6.5425,-6.5425,-6.5425,-6.5425,-6.5425,-6.5425,-6.5425,-6.5425,-6.5425,-6.5425,-6.5425,-6.5425,-6.5425,-6.5425,-6.5425,-6.5425,-6.5425,-6.5425,-6.5425,-6.5425,-6.5425,-6.5425,-6.5559,-6.578,-6.578,-6.6042,0.0,0.0,0.0,0.0,0.0,-3.1747,0.0,0.0,0.0,-3.3988,-3.5214,0.0,0.0,0.0,0.0,0.0,0.0,0.0,0.0,-4.7934,0.0,-5.4295,-5.5189,-5.5487,-5.5057,-5.5653,-5.6117,-5.6249,-5.6282,-5.6349,-5.6481,-5.7177,-5.7574,-5.7574,-5.8171,-5.8535,-5.8668,-5.9429,-5.986,-6.0026,-6.0755,-6.1119,-6.1119,-6.1119,-6.1119,-6.1119,-6.1119,-6.1119,-6.1119,-6.1119,-6.1119,-6.1251,-6.2709,-6.3315,-6.3481,-6.4895,-6.5425,-6.5425,-6.5425,-6.5425,-6.5425,-6.5425,-6.5425,-6.5425,-6.5425,-6.5425,-6.5425,-6.5425,-6.5425,-6.5425,-6.5425,-6.5425,-6.5425,-6.5425,-6.5425,-6.5425,-6.5425,-6.5425,-6.5425,-6.5425,-6.5425,-6.5425,-6.5425,-6.5425,-6.5425,-6.5425,-6.5425,-6.5425,-6.5425,-6.5425,-6.5425,-6.5425,-6.5425,-6.5425,-6.5425,-6.5425,-6.5425,-6.5425,-6.5425,-6.5425,-6.5425,-6.5425,-6.5425,-6.5425,-6.5425,-6.5425,-6.5425,-6.5425,-6.5514,-6.5736,-6.5736,-6.5955,0.0,0.0,0.0,0.0,-3.5114,0.0,0.0,0.0,-3.0986,-3.1813,0.0,0.0,0.0,0.0,0.0,0.0,0.0,0.0,-3.9514,-4.1541,-4.4787,-5.0188,-5.1481,-5.2144,-5.2705,-5.3367,-5.4063,-5.4725,-5.4759,-5.5057,-5.5681,-5.6415,-5.6812,-5.6812,-5.6912,-5.7243,-5.7906,-5.8668,-5.9363,-6.0026,-6.0755,-6.1119,-6.1119,-6.1119,-6.1119,-6.1119,-6.1119,-6.1119,-6.1119,-6.1119,-6.1119,-6.1251,-6.2709,-6.3315,-6.3481,-6.4895,-6.5425,-6.5425,-6.5425,-6.5425,-6.5425,-6.5425,-6.5425,-6.5425,-6.5425,-6.5425,-6.5425,-6.5425,-6.5425,-6.5425,-6.5425,-6.5425,-6.5425,-6.5425,-6.5425,-6.5425,-6.5425,-6.5425,-6.5425,-6.5425,-6.5425,-6.5425,-6.5425,-6.5425,-6.5425,-6.5425,-6.5425,-6.5425,-6.5425,-6.5425,-6.5425,-6.5425,-6.5425,-6.5425,-6.5425,-6.5425,-6.5425,-6.5425,-6.5425,-6.5425,-6.5425,-6.5425,-6.5425,-6.5425,-6.5425,-6.5425,-6.5425,-6.5425,-6.5425,-6.547,-6.547,-6.5603,0.0,0.0,0.0,0.0,0.0,0.0,-3.1747,0.0,-3.1868,0.0,0.0,0.0,0.0,0.0,0.0,0.0,-3.3292,0.0,0.0,0.0,-4.0448,0.0,0.0,0.0,-5.1614,-5.2009,-5.2473,-5.3235,-5.287,-5.3334,-5.4854,-5.5686,-5.6249,-5.668,-5.668,-5.6846,-5.7144,-5.8303,-5.9065,-5.9363,-6.0556,-6.1119,-6.1119,-6.1119,-6.1119,-6.1119,-6.1119,-6.1119,-6.1119,-6.1119,-6.1119,-6.1251,-6.2709,-6.3315,-6.3481,-6.4895,-6.5425,-6.5425,-6.5425,-6.5425,-6.5425,-6.5425,-6.5425,-6.5425,-6.5425,-6.5425,-6.5425,-6.5425,-6.5425,-6.5425,-6.5425,-6.5425,-6.5425,-6.5425,-6.5425,-6.5425,-6.5425,-6.5425,-6.5425,-6.5425,-6.5425,-6.5425,-6.5425,-6.5425,-6.5425,-6.5425,-6.5425,-6.5425,-6.5425,-6.5425,-6.5425,-6.5425,-6.5425,-6.5425,-6.5425,-6.5425,-6.5425,-6.5425,-6.5425,-6.5425,-6.5425,-6.5425,-6.5425,-6.5425,-6.5425,-6.5425,-6.5425,-6.5425,-6.5425,-6.5425,-6.5425,-6.5559,-4.391,0.0,0.0,0.0,0.0,0.0,0.0,0.0,0.0,0.0,0.0,0.0,0.0,0.0,0.0,0.0,0.0,-3.3193,0.0,0.0,0.0,0.0,0.0,0.0,0.0,-4.9691,-5.0122,-5.0817,0.0,-5.1347,-5.35,-5.4692,-5.5653,-5.6382,-5.6581,-5.668,-5.668,-5.8171,-5.8899,-5.8933,-6.039,-6.1119,-6.1119,-6.1119,-6.1119,-6.1119,-6.1119,-6.1119,-6.1119,-6.1119,-6.1119,-6.1251,-6.2709,-6.3315,-6.3481,-6.4895,-6.5425,-6.5425,-6.5425,-6.5425,-6.5425,-6.5425,-6.5425,-6.5425,-6.5425,-6.5425,-6.5425,-6.5425,-6.5425,-6.5425,-6.5425,-6.5425,-6.5425,-6.5425,-6.5425,-6.5425,-6.5425,-6.5425,-6.5425,-6.5425,-6.5425,-6.5425,-6.5425,-6.5425,-6.5425,-6.5425,-6.5425,-6.5425,-6.5425,-6.5425,-6.5425,-6.5425,-6.5425,-6.5425,-6.5425,-6.5425,-6.5425,-6.5425,-6.5425,-6.5425,-6.5425,-6.5425,-6.5425,-6.5425,-6.5425,-6.5425,-6.5425,-6.5425,-6.5425,-6.5425,-6.5425,-6.5514,0.0,0.0,0.0,-4.2528,0.0,0.0,0.0,0.0,-3.3116,0.0,0.0,0.0,0.0,0.0,0.0,0.0,0.0,0.0,0.0,0.0,0.0,0.0,0.0,0.0,0.0,-4.5549,-4.6278,0.0,-4.7736,-4.9061,-5.1282,-5.34,-5.4854,-5.5582,-5.6316,-5.668,-5.668,-5.8171,-5.8899,-5.8933,-6.039,-6.1119,-6.1119,-6.1119,-6.1119,-6.1119,-6.1119,-6.1119,-6.1119,-6.1119,-6.1119,-6.1251,-6.2709,-6.3315,-6.3481,-6.4895,-6.5425,-6.5425,-6.5425,-6.5425,-6.5425,-6.5425,-6.5425,-6.5425,-6.5425,-6.5425,-6.5425,-6.5425,-6.5425,-6.5425,-6.5425,-6.5425,-6.5425,-6.5425,-6.5425,-6.5425,-6.5425,-6.5425,-6.5425,-6.5425,-6.5425,-6.5425,-6.5425,-6.5425,-6.5425,-6.5425,-6.5425,-6.5425,-6.5425,-6.5425,-6.5425,-6.5425,-6.5425,-6.5425,-6.5425,-6.5425,-6.5425,-6.5425,-6.5425,-6.5425,-6.5425,-6.5425,-6.5425,-6.5425,-6.5425,-6.5425,-6.5425,-6.5425,-6.5425,-6.5425,-6.5425,-6.5425,0.0,0.0,-4.6416,-4.4984,0.0,0.0,0.0,0.0,0.0,0.0,0.0,0.0,0.0,0.0,0.0,0.0,0.0,0.0,0.0,0.0,0.0,0.0,0.0,0.0,0.0,0.0,0.0,0.0,-4.4522,0.0,-4.8928,-5.1181,-5.3135,-5.4787,-5.6051,-5.668,-5.668,-5.8171,-5.8899,-5.8933,-6.039,-6.1119,-6.1119,-6.1119,-6.1119,-6.1119,-6.1119,-6.1119,-6.1152,-6.1616,-6.1815,-6.1947,-6.3438,-6.4045,-6.4133,-6.5061,-6.5425,-6.5425,-6.5425,-6.5425,-6.5425,-6.5425,-6.5425,-6.5425,-6.5425,-6.5425,-6.5425,-6.5425,-6.5425,-6.5425,-6.5425,-6.5425,-6.5425,-6.5425,-6.5425,-6.5425,-6.5425,-6.5425,-6.5425,-6.5425,-6.5425,-6.5425,-6.5425,-6.5425,-6.5425,-6.5425,-6.5425,-6.5425,-6.5425,-6.5425,-6.5425,-6.5425,-6.5425,-6.5425,-6.5425,-6.5425,-6.5425,-6.5425,-6.5425,-6.5425,-6.5425,-6.5425,-6.5425,-6.5425,-6.5425,-6.5425,-6.5425,-6.5425,-6.5425,-6.5425,-6.5425,-6.5425,-5.223,-5.1,0.0,-4.7791,-4.5397,0.0,-3.965,0.0,0.0,0.0,0.0,0.0,0.0,0.0,0.0,0.0,0.0,0.0,0.0,-3.0166,0.0,0.0,0.0,0.0,0.0,0.0,-4.1475,-4.1645,-4.174,-4.3131,0.0,-4.9028,-5.1512,-5.3699,-5.5653,-5.668,-5.668,-5.8171,-5.8899,-5.8933,-6.039,-6.1119,-6.1119,-6.1119,-6.1119,-6.1119,-6.1119,-6.1119,-6.1152,-6.1923,-6.2221,-6.2354,-6.3846,-6.4365,-6.4465,-6.516,-6.5425,-6.5425,-6.5425,-6.5425,-6.5425,-6.5425,-6.5425,-6.5425,-6.5425,-6.5425,-6.5425,-6.5425,-6.5425,-6.5425,-6.5425,-6.5425,-6.5425,-6.5425,-6.5425,-6.5425,-6.5425,-6.5425,-6.5425,-6.5425,-6.5425,-6.5425,-6.5425,-6.5425,-6.5425,-6.5425,-6.5425,-6.5425,-6.5425,-6.5425,-6.5425,-6.5425,-6.5425,-6.5425,-6.5425,-6.5425,-6.5425,-6.5425,-6.5425,-6.5425,-6.5425,-6.5425,-6.5425,-6.5425,-6.5425,-6.5425,-6.5425,-6.5425,-6.5425,-6.5425,-6.5425,-6.5425]},{"header":{"parameterUnit":"m.s-1","parameterCategory":1,"la1":30.6,"la2":29.2853,"lo1":-89.7004,"lo2":-87.6739,"dy":0.0162,"dx":0.0183,"nx":112,"ny":82,"refTime":"2026-04-08T12:00:00:Z","depth":0,"parameterNumber":3,"parameterNumberName":"V-component_of_WINDS"},"data":[0.0,0.0,0.0,0.0,0.0,0.0,0.0,0.0,0.0,0.0,0.0,0.0,0.0,0.0,0.0,0.0,0.0,0.0,0.0,0.0,0.0,0.0,0.0,0.0,0.0,0.0,0.0,0.0,0.0,0.0,0.0,0.0,0.0,0.0,0.0,0.0,0.0,0.0,0.0,0.0,0.0,0.0,0.0,0.0,0.0,0.0,0.0,0.0,0.0,0.0,0.0,0.0,0.0,0.0,0.0,0.0,0.0,0.0,0.0,0.0,0.0,0.0,0.0,0.0,0.0,0.0,0.0,0.0,0.0,0.0,0.0,0.0,0.0,0.0,0.0,0.0,0.0,0.0,0.0,0.0,0.0,0.0,0.0,0.0,0.0,0.0,0.0,0.0,0.0,0.0,1.957,2.2852,2.6758,2.8594,2.7324,2.6016,2.4114,2.1253,0.0,0.0,0.0,0.0,0.0,0.0,0.0,0.0,0.0,0.0,0.0,0.0,0.0,0.0,0.0,0.0,0.0,0.0,0.0,0.0,0.0,0.0,0.0,0.0,0.0,0.0,0.0,0.0,0.0,0.0,0.0,0.0,0.0,0.0,0.0,0.0,0.0,0.0,0.0,0.0,0.0,0.0,0.0,0.0,0.0,0.0,0.0,0.0,0.0,0.0,0.0,0.0,0.0,0.0,0.0,0.0,0.0,0.0,0.0,0.0,0.0,0.0,0.0,0.0,0.0,0.0,0.0,0.0,0.0,0.0,0.0,0.0,0.0,0.0,0.0,0.0,0.0,0.0,0.0,0.0,0.0,0.0,0.0,0.0,0.0,0.0,0.0,0.0,0.0,0.0,0.0,0.0,0.0,0.0,0.0,0.0,0.0,0.0,0.0,0.0,0.0,0.0,0.0,0.0,2.1348,2.5859,2.8535,2.9492,2.8203,2.6934,2.5059,2.2425,0.0,0.0,0.0,0.0,0.0,0.0,0.0,0.0,0.0,0.0,0.0,0.0,0.0,0.0,0.0,0.0,0.0,0.0,0.0,0.0,0.0,0.0,0.0,0.0,0.0,0.0,0.0,0.0,0.0,0.0,0.0,0.0,0.0,0.0,0.0,0.0,0.0,0.0,0.0,0.0,0.0,0.0,0.0,0.0,0.0,0.0,0.0,0.0,0.0,0.0,0.0,0.0,0.0,0.0,0.0,0.0,0.0,0.0,0.0,0.0,0.0,0.0,0.0,0.0,0.0,0.0,0.0,0.0,0.0,0.0,0.0,0.0,0.0,0.0,0.0,0.0,0.0,0.0,0.0,0.0,0.0,0.0,0.0,0.0,0.0,0.0,0.0,0.0,0.0,0.0,0.0,0.0,0.0,0.0,0.0,0.0,0.0,0.0,0.0,0.0,0.0,0.0,0.0,2.1289,2.4531,2.7402,2.9199,2.9668,2.8398,2.6914,2.4824,2.1951,1.8719,0.0,0.0,0.0,0.0,0.0,0.0,0.0,0.0,0.0,0.0,0.0,0.0,0.0,0.0,0.0,0.0,0.0,0.0,0.0,0.0,0.0,0.0,0.0,0.0,0.0,0.0,0.0,0.0,0.0,0.0,0.0,0.0,0.0,0.0,0.0,0.0,0.0,0.0,0.0,0.0,0.0,0.0,0.0,0.0,0.0,0.0,0.0,0.0,0.0,0.0,0.0,0.0,0.0,0.0,0.0,0.0,0.0,0.0,0.0,0.0,0.0,0.0,0.0,0.0,0.0,0.0,0.0,0.0,0.0,0.0,0.0,0.0,0.0,0.0,0.0,0.0,0.0,0.0,0.0,0.0,0.0,0.0,0.0,0.0,0.0,0.0,0.0,0.0,0.0,0.0,0.0,0.0,0.0,0.0,0.0,0.0,0.0,0.0,0.0,0.0,0.0,0.0,2.4844,2.7402,2.8476,2.9648,2.9805,2.8418,2.6523,2.4134,2.1229,1.811,0.0,0.0,0.0,0.0,0.0,0.0,0.0,0.0,0.0,0.0,0.0,0.0,0.0,0.0,0.0,0.0,0.0,0.0,0.0,0.0,0.0,0.0,0.0,0.0,0.0,0.0,0.0,0.0,0.0,0.0,0.0,0.0,0.0,0.0,0.0,0.0,0.0,0.0,0.0,0.0,0.0,0.0,0.0,0.0,0.0,0.0,0.0,0.0,0.0,0.0,0.0,0.0,0.0,0.0,0.0,0.0,0.0,0.0,0.0,0.0,0.0,0.0,0.0,0.0,0.0,0.0,0.0,0.0,0.0,0.0,0.0,0.0,0.0,0.0,0.0,0.0,0.0,0.0,0.0,0.0,0.0,0.0,0.0,0.0,0.0,0.0,0.0,0.0,0.0,0.0,0.0,0.0,0.0,0.0,0.0,0.0,0.0,0.0,0.0,0.0,0.0,0.0,2.6621,2.8926,2.9434,3.0293,3.0156,2.8437,2.5977,2.3398,2.082,1.7402,0.0,0.0,0.0,0.0,0.0,0.0,0.0,0.0,0.0,0.0,0.0,0.0,0.0,0.0,0.0,0.0,0.0,0.0,0.0,0.0,0.0,0.0,0.0,0.0,0.0,0.0,0.0,0.0,0.0,0.0,0.0,0.0,0.0,0.0,0.0,0.0,0.0,0.0,0.0,0.0,0.0,0.0,0.0,0.0,0.0,0.0,0.0,0.0,0.0,0.0,0.0,0.0,0.0,0.0,0.0,0.0,0.0,0.0,0.0,0.0,0.0,0.0,0.0,0.0,0.0,0.0,0.0,0.0,0.0,0.0,0.0,0.0,0.0,0.0,0.0,0.0,0.0,0.0,0.0,0.0,0.0,0.0,0.0,0.0,0.0,0.0,0.0,0.0,0.0,0.0,0.0,0.0,0.0,0.0,0.0,0.0,0.0,0.0,0.0,0.0,0.0,0.0,2.6797,2.9082,0.0,3.0371,3.0176,2.8437,2.6152,2.3594,2.0781,0.0,0.0,0.0,0.0,0.0,0.0,0.0,0.0,0.0,0.0,0.0,0.0,0.0,0.0,0.0,0.0,0.0,0.0,0.0,0.0,0.0,0.0,0.0,0.0,0.0,0.0,0.0,0.0,0.0,0.0,0.0,0.0,0.0,0.0,0.0,0.0,0.0,0.0,0.0,0.0,0.0,0.0,0.0,0.0,0.0,0.0,0.0,0.0,0.0,0.0,0.0,0.0,0.0,0.0,0.0,0.0,0.0,0.0,0.0,0.0,0.0,0.0,0.0,0.0,0.0,0.0,0.0,0.0,0.0,0.0,0.0,0.0,0.0,0.0,0.0,0.0,0.0,0.0,0.0,0.0,0.0,0.0,0.0,0.0,0.0,0.0,0.0,0.0,0.0,0.0,0.0,0.0,0.0,0.0,0.0,0.0,0.0,0.0,0.0,0.0,0.0,0.0,2.3379,2.6914,2.9238,0.0,3.0371,3.0176,2.8437,2.6309,2.3834,2.0801,0.0,0.0,0.0,0.0,0.0,0.0,0.0,0.0,0.0,0.0,0.0,0.0,0.0,0.0,0.0,0.0,0.0,0.0,0.0,0.0,0.0,0.0,0.0,0.0,0.0,0.0,0.0,0.0,0.0,0.0,0.0,0.0,0.0,0.0,0.0,0.0,0.0,0.0,0.0,0.0,0.0,0.0,0.0,0.0,0.0,0.0,0.0,0.0,0.0,0.0,0.0,0.0,0.0,0.0,0.0,0.0,0.0,0.0,0.0,0.0,0.0,0.0,0.0,0.0,0.0,0.0,0.0,0.0,0.0,0.0,0.0,0.0,0.0,0.0,0.0,0.0,0.0,0.0,0.0,0.0,0.0,0.0,0.0,0.0,0.0,0.0,0.0,0.0,0.0,0.0,0.0,0.0,0.0,0.0,0.0,0.0,0.0,0.0,0.0,0.0,0.0,0.0,2.3457,2.7168,2.9626,2.9626,3.0371,3.0195,2.8437,2.6328,2.3834,0.0,0.0,0.0,0.0,0.0,0.0,0.0,0.0,0.0,0.0,0.0,0.0,0.0,0.0,0.0,0.0,0.0,0.0,0.0,0.0,0.0,0.0,0.0,0.0,0.0,0.0,0.0,0.0,0.0,0.0,0.0,0.0,0.0,0.0,0.0,0.0,0.0,0.0,0.0,0.0,0.0,0.0,0.0,0.0,0.0,0.0,0.0,0.0,0.0,0.0,0.0,0.0,0.0,0.0,0.0,0.0,0.0,0.0,0.0,0.0,0.0,0.0,0.0,0.0,0.0,0.0,0.0,0.0,0.0,0.0,0.0,0.0,0.0,0.0,0.0,0.0,0.0,0.0,0.0,0.0,0.0,0.0,0.0,0.0,0.0,0.0,0.0,0.0,0.0,0.0,0.0,0.0,0.0,0.0,0.0,0.0,0.0,0.0,0.0,0.0,0.0,0.0,0.0,2.3418,2.7168,2.9626,2.9626,3.0371,3.0312,2.8867,2.7324,2.5019,2.174,0.0,0.0,0.0,0.0,0.0,0.0,0.0,0.0,0.0,0.0,0.0,0.0,0.0,0.0,0.0,0.0,0.0,0.0,0.0,0.0,0.0,0.0,0.0,0.0,0.0,0.0,0.0,0.0,0.0,0.0,0.0,0.0,0.0,0.0,0.0,0.0,0.0,0.0,0.0,0.0,0.0,0.0,0.0,0.0,0.0,0.0,0.0,0.0,0.0,0.0,0.0,0.0,0.0,0.0,0.0,0.0,0.0,0.0,0.0,0.0,0.0,0.0,0.0,0.0,0.0,0.0,0.0,0.0,0.0,0.0,0.0,0.0,0.0,0.0,0.0,0.0,0.0,0.0,0.0,0.0,0.0,0.0,0.0,0.0,0.0,0.0,0.0,0.0,0.0,0.0,0.0,0.0,0.0,0.0,0.0,0.0,0.0,0.0,0.0,0.0,0.0,0.0,2.3164,2.707,2.9626,2.9626,3.0371,3.043,2.9277,2.832,2.623,2.2617,0.0,0.0,0.0,0.0,0.0,0.0,0.0,0.0,0.0,0.0,0.0,0.0,0.0,0.0,0.0,0.0,0.0,0.0,0.0,0.0,0.0,0.0,0.0,0.0,0.0,0.0,0.0,0.0,0.0,0.0,0.0,0.0,0.0,0.0,0.0,0.0,0.0,0.0,0.0,0.0,0.0,0.0,0.0,0.0,0.0,0.0,0.0,0.0,0.0,0.0,0.0,0.0,0.0,0.0,0.0,0.0,0.0,0.0,0.0,0.0,0.0,0.0,0.0,0.0,0.0,0.0,0.0,0.0,0.0,0.0,0.0,0.0,0.0,0.0,0.0,0.0,0.0,0.0,0.0,0.0,0.0,0.0,0.0,0.0,0.0,0.0,0.0,0.0,0.0,0.0,0.0,0.0,0.0,0.0,0.0,0.0,0.0,0.0,0.0,0.0,0.0,0.0,2.2828,2.6934,2.9626,2.9626,3.0371,3.0527,2.9648,2.916,2.7285,2.3393,0.0,0.0,0.0,0.0,0.0,0.0,0.0,0.0,0.0,0.0,0.0,0.0,0.0,0.0,0.0,0.0,0.0,0.0,0.0,0.0,0.0,0.0,0.0,0.0,0.0,0.0,0.0,0.0,0.0,0.0,0.0,0.0,0.0,0.0,0.0,0.0,0.0,0.0,0.0,0.0,0.0,0.0,0.0,0.0,0.0,0.0,0.0,0.0,0.0,0.0,0.0,0.0,0.0,0.0,0.0,0.0,0.0,0.0,0.0,0.0,1.9512,0.0,0.0,0.0,0.0,0.0,0.0,0.0,0.0,0.0,0.0,0.0,0.0,0.0,0.0,0.0,0.0,0.0,0.0,0.0,0.0,0.0,0.0,0.0,0.0,0.0,0.0,0.0,0.0,0.0,0.0,0.0,0.0,0.0,0.0,0.0,0.0,0.0,0.0,0.0,0.0,0.0,2.3281,2.7109,2.9626,2.9626,3.0371,3.0527,2.9648,2.916,2.7422,2.3867,2.1133,0.0,0.0,0.0,0.0,0.0,0.0,0.0,0.0,0.0,0.0,0.0,0.0,0.0,0.0,0.0,0.0,0.0,0.0,0.0,0.0,0.0,0.0,0.0,0.0,0.0,0.0,0.0,0.0,0.0,0.0,0.0,0.0,0.0,0.0,0.0,0.0,0.0,0.0,0.0,0.0,0.0,0.0,0.0,0.0,0.0,0.0,0.0,0.0,0.0,0.0,0.0,0.0,0.0,0.0,0.0,0.0,0.0,0.0,0.0,0.0,2.1172,0.0,0.0,0.0,0.0,0.0,0.0,0.0,0.0,0.0,0.0,0.0,0.0,0.0,0.0,0.0,0.0,0.0,0.0,0.0,0.0,0.0,0.0,0.0,0.0,0.0,0.0,0.0,0.0,0.0,0.0,0.0,0.0,0.0,0.0,0.0,0.0,0.0,0.0,0.0,0.0,2.3418,2.7168,2.9626,2.9626,3.0371,3.0527,2.9648,2.9355,2.7754,2.4316,2.2051,0.0,0.0,0.0,0.0,0.0,0.0,0.0,0.0,0.0,0.0,0.0,0.0,0.0,0.0,0.0,0.0,0.0,0.0,0.0,0.0,0.0,0.0,0.0,0.0,0.0,0.0,0.0,0.0,0.0,0.0,0.0,0.0,0.0,0.0,0.0,0.0,0.0,0.0,0.0,0.0,0.0,0.0,0.0,0.0,0.0,0.0,0.0,0.0,0.0,0.0,0.0,0.0,0.0,2.5911,2.6839,2.7753,2.9184,2.9949,2.991,2.7085,2.5382,2.4531,2.4167,0.0,0.0,0.0,0.0,0.0,0.0,0.0,0.0,0.0,0.0,0.0,0.0,0.0,0.0,0.0,0.0,0.0,0.0,0.0,0.0,0.0,0.0,0.0,0.0,2.4199,2.4004,0.0,0.0,0.0,0.0,0.0,0.0,0.0,0.0,0.0,0.0,0.0,0.0,2.3555,2.7148,2.9453,2.9453,3.0176,3.0332,2.9531,2.9453,2.8086,2.4844,2.3125,2.0742,0.0,0.0,0.0,0.0,0.0,0.0,0.0,0.0,0.0,0.0,0.0,0.0,0.0,0.0,0.0,0.0,0.0,0.0,0.0,0.0,0.0,0.0,0.0,0.0,0.0,0.0,0.0,0.0,0.0,0.0,0.0,0.0,1.6387,1.6388,0.0,0.0,0.0,0.0,0.0,0.0,0.0,0.0,0.0,0.0,0.0,0.0,0.0,2.435,2.5075,2.6141,2.6942,2.7316,2.7838,2.861,2.9658,3.0529,3.1294,3.1929,3.1816,0.0,2.7656,2.7246,0.0,0.0,0.0,0.0,0.0,0.0,0.0,0.0,0.0,0.0,0.0,0.0,0.0,0.0,0.0,0.0,0.0,0.0,0.0,0.0,0.0,0.0,2.6055,2.6406,2.7109,2.7695,0.0,2.5391,2.291,2.1621,2.0019,0.0,0.0,0.0,0.0,0.0,0.0,0.0,2.4004,2.707,2.9004,2.9004,2.9453,2.9551,2.9043,2.9004,2.8027,2.5654,2.4277,2.2324,1.9609,1.7852,0.0,0.0,0.0,0.0,0.0,0.0,0.0,0.0,0.0,0.0,0.0,0.0,0.0,0.0,0.0,0.0,0.0,0.0,0.0,0.0,0.0,0.0,0.0,0.0,0.0,0.0,0.0,0.0,0.0,1.6221,1.6946,1.6828,1.6496,1.6121,0.0,0.0,0.0,0.0,0.0,0.0,0.0,0.0,0.0,2.3857,2.57,2.6878,2.7283,2.847,2.9174,2.9352,3.003,3.0805,3.1693,3.2691,3.3622,3.4433,3.508,3.4483,3.288,3.0723,2.8691,2.6777,0.0,0.0,0.0,0.0,2.4394,2.4883,2.5742,2.5605,0.0,2.4563,0.0,0.0,0.0,0.0,0.0,0.0,0.0,0.0,0.0,0.0,2.7851,2.8047,2.8555,2.9062,2.9238,2.791,2.6289,0.0,2.3164,2.1269,1.9514,0.0,0.0,0.0,0.0,2.2422,2.4512,2.7207,2.8926,2.8926,2.9316,2.9394,2.8945,2.8926,2.8223,2.6562,2.5469,2.3945,2.1836,2.0116,1.8277,0.0,0.0,0.0,0.0,0.0,0.0,0.0,0.0,0.0,0.0,0.0,0.0,0.0,0.0,0.0,0.0,0.0,0.0,0.0,0.0,0.0,0.0,0.0,0.0,0.0,0.0,0.0,0.0,1.7312,1.798,1.8021,1.7871,1.753,0.0,0.0,0.0,0.0,0.0,0.0,2.2427,2.3623,2.4741,2.5814,2.7605,2.8692,2.9081,3.0033,3.0559,3.059,3.1261,3.1999,3.2703,3.3569,3.4433,3.5305,3.6029,3.6362,3.6099,3.39,3.1914,3.0078,2.8496,2.7598,2.7214,2.7578,2.7969,2.8457,2.9316,2.9121,2.8457,2.8242,2.6836,2.5098,2.4309,0.0,0.0,0.0,0.0,2.582,2.6914,2.8398,2.959,2.959,2.9922,3.0195,3.0098,2.9726,2.8984,0.0,2.5625,2.3769,2.2126,0.0,0.0,0.0,0.0,2.3711,2.5262,2.7461,2.8887,2.8769,2.9043,2.9101,2.8789,2.8769,2.8262,2.709,2.6309,2.5137,2.3443,2.1916,2.0155,1.8066,0.0,0.0,0.0,0.0,0.0,0.0,0.0,0.0,0.0,0.0,0.0,0.0,0.0,0.0,0.0,0.0,0.0,0.0,0.0,0.0,0.0,0.0,0.0,0.0,0.0,0.0,0.0,0.0,0.0,2.0823,2.0401,0.0,0.0,0.0,0.0,2.1305,2.2613,2.3841,2.5136,2.5827,2.6855,2.8262,2.8735,2.9299,3.0018,3.036,3.0493,3.0587,3.0953,3.1361,3.1729,3.1889,3.245,3.3304,3.378,3.4364,3.5193,3.6469,3.5742,3.3691,3.2383,3.1621,3.123,3.125,3.1543,3.2031,3.2871,3.2871,3.2363,3.1562,2.957,2.7422,2.6953,2.6484,0.0,0.0,2.7715,2.8809,2.9277,3.0391,3.1387,3.1387,3.1719,3.1934,3.1504,3.1094,3.0156,0.0,2.6562,2.5167,2.3887,0.0,2.1992,2.2914,2.4147,2.5321,2.6211,2.7851,2.8769,2.8359,2.834,2.8359,2.832,2.832,2.7949,2.707,2.6602,2.5566,2.3828,2.2891,2.1582,1.9824,1.7662,0.0,0.0,0.0,0.0,0.0,0.0,0.0,0.0,0.0,0.0,0.0,0.0,0.0,0.0,0.0,0.0,0.0,0.0,0.0,0.0,0.0,0.0,0.0,0.0,0.0,0.0,0.0,0.0,2.2289,2.2772,0.0,2.2725,2.2506,2.2874,2.4039,2.5352,2.6339,2.6959,2.7849,2.8552,2.9093,2.9634,3.0021,3.0286,3.0572,3.0714,3.0714,3.0832,3.0974,3.1123,3.0956,3.1354,3.222,3.2724,3.3607,3.4772,3.6331,3.6167,3.4901,3.4466,3.3965,3.3574,3.3574,3.3672,3.3848,3.4141,3.3965,3.3437,3.2305,3.1113,3.0019,2.9277,2.8769,2.8516,2.8945,2.9609,3.0293,3.0723,3.1367,3.1934,3.1934,3.2051,3.2051,3.1621,3.0957,3.0137,2.9101,2.8281,2.7559,2.6816,2.5859,2.5293,2.5586,2.6269,2.7004,2.7539,2.8379,2.8867,2.8711,2.8457,2.8301,2.8301,2.8047,2.7754,2.7461,2.6523,2.5684,2.5059,2.3945,2.2656,2.1211,1.9026,1.7187,0.0,0.0,0.0,0.0,0.0,0.0,0.0,0.0,0.0,0.0,0.0,0.0,0.0,0.0,0.0,0.0,0.0,0.0,0.0,0.0,0.0,0.0,0.0,0.0,0.0,2.1508,2.3315,2.3998,2.4759,2.514,2.492,2.4803,2.5096,2.5959,2.713,2.7891,2.8034,2.8812,2.9266,2.9369,2.9793,3.0211,3.0431,3.0671,3.0817,3.0817,3.0817,3.0817,3.0817,3.0495,3.084,3.1706,3.2235,3.3133,3.4274,3.5785,3.6073,3.5487,3.6062,3.6055,3.5762,3.5469,3.5371,3.5351,3.5195,3.4863,3.4375,3.3535,3.2851,3.2266,3.168,3.1211,3.0918,3.1211,3.1504,3.1816,3.209,3.2383,3.2598,3.2598,3.2598,3.2383,3.168,3.0937,3.0254,2.9687,2.9219,2.8789,2.8359,2.7949,2.7656,2.7656,2.8027,2.8472,2.8691,2.9101,2.9238,2.8945,2.8672,2.8437,2.8301,2.791,2.7591,2.7297,2.6289,2.5499,2.5098,2.4258,2.3184,2.1914,1.9473,1.7363,1.5654,0.0,0.0,0.0,0.0,0.0,0.0,0.0,0.0,0.0,0.0,0.0,0.0,0.0,0.0,0.0,0.0,0.0,0.0,0.0,0.0,0.0,0.0,0.0,2.0885,2.3142,2.4993,2.5959,2.6369,2.6574,2.6574,2.6296,2.6369,2.7013,2.7949,2.8476,2.8476,2.8754,2.9061,2.9383,2.9383,2.969,3.0431,3.0671,3.0817,3.0817,3.0817,3.0817,3.0817,3.0495,3.084,3.164,3.2171,3.293,3.3768,3.5075,3.5531,3.5736,3.7238,3.7877,3.778,3.7012,3.6699,3.6621,3.6191,3.5781,3.543,3.541,3.4805,3.4101,3.4082,3.3769,3.3418,3.3398,3.3398,3.3379,3.3398,3.3398,3.3398,3.3418,3.3418,3.3086,3.1816,3.1191,3.0625,2.9822,2.9238,2.8809,2.8418,2.8711,2.8984,2.8984,2.9336,0.0,2.9665,2.9961,2.9863,2.9023,2.8926,2.875,2.832,2.7891,2.7337,2.6426,2.5937,2.507,2.3848,2.3769,2.3164,2.1875,1.8961,1.6582,1.4872,0.0,0.0,0.0,0.0,0.0,0.0,0.0,0.0,0.0,0.0,0.0,0.0,0.0,0.0,0.0,0.0,0.0,0.0,0.0,0.0,0.0,2.0641,2.1642,2.242,2.4547,2.6339,2.7305,2.7905,2.8227,2.8227,2.8154,2.8271,2.8695,2.9178,2.9471,2.9471,2.9325,2.9398,2.972,2.95,2.969,3.0431,3.0671,3.0817,3.0817,3.0817,3.0817,3.0817,3.0495,3.084,3.1706,3.2235,3.2981,3.3731,3.4453,3.4741,3.4848,3.6182,3.6846,3.7083,3.6842,3.6958,3.707,3.6641,3.6406,3.6211,3.5605,3.5234,3.4902,3.4258,3.3769,3.3359,3.3047,3.2754,3.2578,3.2891,3.2969,3.3047,3.334,3.3418,3.3164,3.2207,3.1406,3.0723,3.0137,2.9687,2.9453,2.9648,3.0039,3.0351,3.0351,3.0449,0.0,3.0527,3.0332,3.0,2.9453,2.9101,2.8633,2.7891,2.7441,2.6836,2.5977,2.5195,2.4473,2.3828,2.3496,2.2559,2.0997,1.9199,1.7564,0.0,0.0,0.0,0.0,0.0,0.0,0.0,0.0,0.0,0.0,0.0,0.0,0.0,0.0,0.0,0.0,0.0,0.0,0.0,0.0,0.0,0.0,2.2675,2.3706,2.4613,2.6105,2.7422,2.8242,2.8783,2.9149,2.9281,2.9295,2.9383,2.9573,2.9881,3.0035,2.9676,2.9486,2.9398,2.9456,2.9398,2.9617,3.0225,3.0598,3.0817,3.0817,3.0817,3.0817,3.0817,3.0627,3.1115,3.2165,3.3081,3.3705,3.4192,3.4494,3.4333,0.0,0.0,0.0,0.0,0.0,3.7014,3.7266,3.7012,3.6816,3.6582,3.6094,3.5684,3.5254,3.4551,3.3789,3.3066,3.2656,3.2109,3.1738,3.2148,3.2402,3.2637,3.3066,3.3164,3.293,3.209,3.1211,3.0469,3.0019,2.9726,0.0,3.0117,3.0586,3.0898,3.0898,3.0898,3.0898,3.0898,3.0644,3.0312,2.9883,2.9453,2.8926,2.8242,2.7461,0.0,0.0,0.0,2.4414,2.3809,2.3203,0.0,0.0,0.0,0.0,0.0,0.0,0.0,0.0,1.5977,1.6555,0.0,0.0,0.0,0.0,0.0,0.0,0.0,0.0,0.0,0.0,0.0,0.0,0.0,0.0,0.0,0.0,2.4453,2.5677,2.6866,2.7627,2.8271,2.8871,2.9208,2.95,2.9837,2.9866,2.9881,2.991,3.0269,3.0181,2.9515,0.0,0.0,0.0,0.0,2.9544,2.991,3.0525,3.0817,3.0817,3.0817,3.0817,3.0817,3.0817,3.1565,3.2983,3.4246,3.4892,3.5071,3.5042,3.4182,3.2806,3.339,3.4203,3.5142,3.6365,3.7038,3.7441,3.7383,0.0,0.0,3.6699,3.6152,3.543,3.4863,3.3848,3.2773,3.2305,3.1543,3.0996,3.1465,3.1875,3.2285,3.2754,3.2871,3.2637,3.1836,3.0976,3.0234,2.9863,2.9707,2.9785,3.0195,3.0625,3.0898,3.0898,3.0898,3.0898,3.0898,3.0898,3.0703,3.0254,0.0,0.0,2.8887,2.7812,2.6934,2.6426,2.5595,2.4773,2.3965,2.3105,2.248,2.2109,2.1289,2.0664,2.0273,1.9902,1.9941,2.0312,1.8555,1.8574,0.0,0.0,0.0,0.0,0.0,0.0,0.0,0.0,0.0,0.0,0.0,0.0,0.0,0.0,0.0,2.4844,2.5449,2.6193,2.7232,2.8154,2.8856,2.9237,2.9339,2.95,2.9837,2.9866,2.9968,3.0313,3.0401,3.0372,3.0255,2.9661,2.9471,2.9676,2.9486,2.9661,3.0328,3.0627,3.0817,3.0817,0.0,0.0,3.0817,3.0817,3.173,3.3444,3.5042,3.5833,3.5863,3.5515,3.3283,3.0366,3.249,3.3995,3.5178,3.6331,3.7451,3.8281,3.793,3.7754,3.7578,3.6894,3.6562,3.6211,3.5059,3.4043,0.0,3.2383,3.1543,3.1074,3.1836,3.2109,3.2363,3.3125,3.3301,3.3164,3.2656,3.1875,3.123,3.1152,3.0566,3.0215,3.0684,3.084,3.0898,3.0898,3.0898,3.0898,3.0898,3.0898,3.0703,3.0254,3.0117,2.9629,2.8516,2.8184,2.7578,2.6465,2.5595,2.5047,2.4871,2.4004,2.3496,2.3418,2.291,2.2555,2.2477,2.2441,2.2679,2.2988,2.0957,2.0312,0.0,0.0,0.0,0.0,0.0,0.0,0.0,0.0,0.0,0.0,0.0,2.485,2.509,0.0,2.536,2.6101,2.6359,2.6837,2.7817,2.8491,2.9076,2.9559,2.9617,2.9807,3.029,3.0349,3.0407,3.0568,3.0583,3.051,3.0446,3.0042,2.9866,2.9866,2.9866,3.0027,3.0431,3.0671,3.0817,3.0817,3.0817,3.0817,3.0817,3.0817,3.1647,3.3214,3.4734,3.548,3.574,3.5156,3.3206,3.0853,3.278,3.3881,3.4504,3.5978,3.7383,3.8555,3.832,3.8105,3.7851,3.7441,3.7012,3.6504,3.5625,3.4609,3.3613,3.2969,3.2187,3.168,3.2305,3.248,3.2637,3.3281,3.3262,3.3047,3.2832,3.2129,3.1523,3.1523,3.0996,3.0625,3.0859,3.0898,3.0898,3.0898,3.0898,3.0898,3.0898,3.0898,3.0801,3.0566,3.0332,2.9844,2.9004,2.834,2.7617,2.6758,2.5879,2.541,2.541,2.457,2.4102,2.4102,2.3887,2.3725,2.3725,2.3789,2.3906,2.4082,2.2988,2.2617,0.0,0.0,0.0,0.0,0.0,0.0,0.0,2.4727,2.5092,2.621,2.6939,2.7252,2.699,2.6729,2.6687,2.7113,2.7266,2.7615,2.8529,2.8928,2.9341,2.9865,2.9903,3.0115,3.0759,3.0817,3.0817,3.0817,3.0817,3.0715,3.0451,3.0437,3.032,3.0056,3.0305,3.0437,3.0437,3.07,3.0817,3.0817,3.0817,3.0817,3.0817,3.0817,3.1482,3.2736,3.4099,3.4994,3.5463,3.4789,3.3796,3.2689,3.3741,3.4238,3.4458,3.5847,3.731,3.8574,3.8574,3.834,3.8027,3.7949,3.7402,3.6699,3.6172,3.5156,3.4101,3.3672,3.2988,3.2519,3.293,3.3047,3.3125,3.3457,3.3281,3.3027,3.293,3.2305,3.1758,3.1758,3.1367,3.1016,3.1016,3.0937,3.0898,3.0898,3.0898,3.0898,3.0898,3.0898,3.0898,3.0898,3.0547,3.0156,2.9726,2.8594,2.7754,2.7402,2.6582,2.6113,2.6113,2.5352,2.4922,2.4922,2.4922,2.4922,2.4922,2.4922,2.4922,2.4922,2.4922,2.4746,2.0059,2.1309,2.3477,2.4836,2.6172,2.7258,0.0,2.8066,2.8362,2.8351,2.9058,2.9305,2.8161,2.7668,2.7534,2.789,2.8255,2.8742,2.9473,2.9761,2.997,2.9953,2.9931,3.0115,3.0759,3.0817,3.0817,3.0817,3.0817,3.0803,3.0773,3.0773,3.0759,3.0715,3.0759,3.0773,3.0773,3.0803,3.0817,3.0817,3.0817,3.0817,3.0817,3.0817,3.1316,3.2293,3.4033,3.5237,3.5897,3.5555,3.5333,3.5083,3.5302,3.5843,3.649,3.6627,3.7549,3.8574,3.8574,3.8555,3.8437,3.8047,3.7617,3.707,3.6269,3.5371,3.4531,3.4121,3.3652,3.3379,3.3809,3.3926,3.3945,3.3984,3.3965,3.3828,3.3437,3.2988,3.2656,3.2656,3.1992,3.1445,3.1445,3.1133,3.0898,3.0898,3.0898,3.0898,3.0898,3.0898,3.0898,3.0898,3.084,3.0625,3.0156,2.9297,2.875,2.8711,2.791,2.7493,2.7493,2.6992,2.6719,2.6719,2.6719,2.6719,2.6719,2.6719,2.6719,2.6719,2.6719,2.5898,2.2793,2.4062,2.6094,2.7891,2.9687,3.1133,3.1562,3.1797,3.186,3.1625,3.1172,3.0429,2.9277,2.8048,2.7533,2.8301,2.8966,2.966,3.0307,3.0606,3.0639,3.0093,2.9453,2.9354,3.0188,3.0261,3.0349,3.0539,3.0715,3.0817,3.0817,3.0817,3.0817,3.0817,3.0817,3.0817,3.0817,3.0817,3.0817,3.0817,3.0817,3.09,3.1233,3.1482,3.2293,3.3706,3.5027,3.6063,3.6832,3.6931,3.7037,3.7023,3.7322,3.7438,3.7502,3.7258,3.777,3.8574,3.8574,3.8574,3.8555,3.8359,3.8008,3.7539,3.6953,3.6328,3.5762,3.5332,3.5078,3.498,3.5156,3.5019,3.4844,3.4844,3.4453,3.4023,3.3848,3.3262,3.2793,3.2793,3.2109,3.1523,3.1523,3.1172,3.0898,3.0898,3.0898,3.0898,3.0898,3.0898,3.0898,3.0898,3.0644,3.041,3.0215,2.9414,2.8926,2.8926,2.8125,2.7728,2.7728,2.7246,2.7012,2.7012,2.7012,2.7012,2.7012,2.7012,2.7012,2.7012,2.7012,2.6621,2.4766,2.6211,2.8184,3.0078,3.2285,3.4043,3.4355,3.4609,3.4622,3.384,3.2526,3.1145,3.005,2.8519,2.7877,2.9004,2.9939,3.0727,3.1297,3.151,3.1392,3.053,2.9473,2.9075,2.9867,2.9892,2.9866,3.0269,3.0598,3.0817,3.0817,3.0817,3.0817,3.0817,3.0817,3.0817,3.0817,3.0817,3.0817,3.0817,3.0817,3.1067,3.173,3.2458,3.369,3.5173,3.6063,3.6947,3.7729,3.8304,3.8693,3.8981,3.9101,3.8994,3.8612,3.8059,3.8159,3.8574,3.8574,3.8574,3.8574,3.8574,3.8281,3.7871,3.7559,3.709,3.6601,3.6289,3.6113,3.6016,3.6016,3.5801,3.5527,3.543,3.4902,3.4375,3.4121,3.3594,3.3105,3.2988,3.2383,3.1875,3.1875,3.1426,3.1055,3.1055,3.0957,3.0898,3.0898,3.0898,3.0898,3.0898,3.0586,3.0391,3.0391,2.9707,2.9277,2.9277,2.8594,2.8198,2.8027,2.7715,2.748,2.7363,2.7363,2.7363,2.7363,2.7363,2.7363,2.7363,2.7363,2.7363,2.5304,2.7559,2.9805,3.1152,3.3418,3.5332,3.5351,3.5996,3.607,3.4168,3.2879,3.165,3.015,2.9205,2.902,3.0177,3.1274,3.2142,3.2522,3.2588,3.2228,3.1491,3.0383,2.9892,3.0182,2.9759,2.9529,2.9851,3.0466,3.0817,3.0817,3.0817,3.0817,3.0817,3.0817,3.0817,3.0817,3.0817,3.0817,3.0817,3.0817,3.1233,3.2128,3.3838,3.5123,3.5994,3.6895,3.7773,3.8645,3.949,4.0372,4.1035,4.0607,4.0431,4.0295,3.9437,3.8926,3.8574,3.8574,3.8574,3.8574,3.8574,3.8281,3.793,3.791,3.7324,3.668,3.666,3.6348,3.6016,3.6016,3.6016,3.5898,3.5488,3.5371,3.5117,3.4258,3.4043,3.3906,3.3496,3.3047,3.2754,3.2754,3.2051,3.1504,3.1504,3.1152,3.0898,3.0898,3.0898,3.0898,3.0898,3.0879,3.0859,3.0859,3.043,3.0156,3.0156,2.9746,2.9316,2.8906,2.8867,2.8672,2.8262,2.8262,2.8262,2.8262,2.8262,2.8262,2.8262,2.8262,2.8262,2.7266,2.9531,3.168,3.3242,3.5156,3.6738,3.7012,3.7305,3.6958,3.5052,3.2985,3.123,3.0321,2.9385,2.9289,3.0868,3.2018,3.2909,3.3314,3.3331,3.3179,3.2675,3.1879,3.1231,3.1115,3.014,2.9945,3.0809,3.141,3.1888,3.2201,3.2433,3.2623,3.2623,3.2623,3.2623,3.2623,3.2623,3.2623,3.2623,3.3198,3.3935,3.4734,3.5867,3.6912,3.7791,3.8365,3.8919,3.949,4.004,4.0685,4.1152,4.1016,4.0781,4.0488,4.0195,3.9609,3.8945,3.8672,3.8574,3.8574,3.8574,3.8476,3.8301,3.8008,3.7734,3.7383,3.6836,3.6562,3.6387,3.6094,3.6016,3.5996,3.584,3.5605,3.5312,3.5019,3.4492,3.4023,3.3887,3.3281,3.2793,3.2793,3.209,3.1426,3.1133,3.0976,3.0898,3.0898,3.0898,3.0898,3.0898,3.0898,3.0898,3.0898,3.0469,3.0195,3.0195,2.9805,2.9512,2.9355,2.9355,2.9277,2.9196,2.8848,2.8711,2.8711,2.8437,2.8301,2.8301,2.8301,2.8301,2.918,3.1426,3.3418,3.4824,3.6348,3.7559,3.7676,3.7812,3.7248,3.4956,3.2465,3.048,2.9807,2.9159,2.9335,3.1209,3.2662,3.373,3.4145,3.4163,3.4082,3.3957,3.3474,3.3054,3.2808,3.1847,3.132,3.1479,3.2362,3.3139,3.3513,3.4066,3.4409,3.4409,3.4409,3.4409,3.4409,3.4409,3.4409,3.4409,3.5302,3.6109,3.6992,3.7809,3.87,3.9569,3.9823,4.0137,4.0372,4.0607,4.0919,4.1172,4.1172,4.0996,4.0742,4.0586,4.0156,3.959,3.9004,3.8691,3.8574,3.8574,3.8574,3.8516,3.8242,3.8047,3.7812,3.7266,3.6894,3.6601,3.6328,3.6133,3.6016,3.6016,3.582,3.5527,3.5215,3.4687,3.4199,3.3906,3.3398,3.3008,3.3008,3.2441,3.1777,3.1191,3.1113,3.1055,3.0918,3.0898,3.0898,3.0898,3.0898,3.0898,3.0898,3.0625,3.0449,3.0449,3.0195,2.9961,2.9805,2.9785,2.9726,2.957,2.9297,2.9141,2.9141,2.8887,2.875,2.875,2.875,2.875,3.1094,3.3262,3.5098,3.5918,3.7051,3.7871,3.7422,3.7617,3.6977,3.3879,3.13,2.9388,2.8738,2.8508,2.911,3.1217,3.3173,3.451,3.4993,3.5064,3.5107,3.5192,3.5248,3.5279,3.5261,3.4541,3.3529,3.2216,0.0,3.4393,3.4786,3.5663,3.6155,3.6155,3.6155,3.6155,3.6155,3.6155,3.6155,3.6155,3.6975,3.7852,3.8724,3.9569,4.0391,4.1172,4.1172,4.1172,4.1172,4.1172,4.1172,4.1172,4.1172,4.1172,4.1133,4.0703,4.0547,4.041,3.9531,3.8965,3.8613,3.8574,3.8574,3.8574,3.8574,3.8281,3.7949,3.793,3.7344,3.6719,3.668,3.6367,3.6055,3.6035,3.6016,3.5781,3.4922,3.4726,3.4453,3.3613,3.3437,3.3418,3.3398,3.3066,3.25,3.1641,3.1523,3.1367,3.0937,3.0898,3.0898,3.0898,3.0898,3.0898,3.0898,3.0898,3.0898,3.0898,3.0898,3.0703,3.0254,3.0234,3.0039,2.9648,2.9609,2.9609,2.9609,2.9646,2.9626,2.9626,2.9626,2.9626,3.3398,3.5703,3.7559,3.7461,3.8164,3.8672,3.793,3.7598,3.6526,3.3148,3.0157,2.8,2.7576,2.7442,2.8216,3.0768,3.2874,3.4504,3.5302,3.5703,3.6146,3.6755,3.7375,3.7547,3.722,3.6989,3.6751,3.6327,3.5925,3.598,3.6664,3.7517,3.795,3.795,3.795,3.795,3.795,3.795,3.795,3.795,3.8524,3.9096,3.9569,4.0118,4.0685,4.1172,4.1172,4.1172,4.1172,4.1172,4.1172,4.1172,4.1172,4.1172,4.1172,4.1055,4.0801,4.0449,3.9902,3.9414,3.8984,3.8672,3.8574,3.8574,3.8574,3.8496,3.834,3.8008,3.7773,3.7461,3.6836,3.6582,3.6426,3.6094,3.6016,3.5879,3.5332,3.4941,3.4551,3.4004,3.3652,3.332,3.3008,3.2871,3.25,3.1641,3.1523,3.1367,3.0937,3.0898,3.0898,3.0898,3.0898,3.0898,3.0898,3.0898,3.0898,3.0898,3.0898,3.084,3.0723,3.0703,3.0664,3.0566,3.0215,3.0039,3.0039,2.9726,2.9626,2.9626,2.9626,2.9626,3.5098,3.7031,3.8516,3.8281,3.8574,3.8613,3.7363,3.6465,3.4948,3.1477,2.84,2.6324,2.6191,2.6584,2.7766,3.0491,3.3101,3.5105,3.6013,3.631,3.6735,3.7549,3.8209,3.8555,3.8496,3.8496,3.8574,3.8769,3.7999,3.7802,3.8462,3.9273,3.9726,3.9726,3.9726,3.9726,3.9726,3.9726,3.9726,3.9726,3.9981,4.0216,4.047,4.0685,4.0919,4.1172,0.0,4.1172,4.1172,4.1172,4.1172,4.1172,4.1172,4.1172,4.1172,4.1172,4.1016,4.0742,4.0312,4.0,3.9648,3.8848,3.8574,3.8574,3.8574,3.8574,3.8516,3.8281,3.8066,3.7773,3.7109,3.6816,3.6562,3.6133,3.6016,3.5898,3.5488,3.5019,3.4512,3.3906,3.3594,3.334,3.3105,3.3066,3.2851,3.2187,3.207,3.1855,3.125,3.0996,3.0898,3.0898,3.0898,3.0898,3.0898,3.0898,3.0898,3.0898,3.0898,3.0898,3.0898,3.0898,3.0898,3.0898,3.0644,3.0508,3.0508,3.0273,3.0156,3.0156,3.0156,3.0156,3.6504,3.7851,3.8809,3.8691,3.8652,3.8164,3.6269,3.4746,3.2739,2.9237,2.6298,2.4463,2.4685,2.5631,2.7373,3.0279,3.335,3.5724,3.658,3.6732,3.7086,3.7874,3.8336,3.8769,3.9258,3.9394,3.9629,4.0039,3.9687,3.9609,3.9961,4.0742,4.1172,4.1172,4.1172,4.1172,4.1172,4.1172,4.1172,4.1172,4.1172,4.1172,4.1172,4.1172,4.1172,4.1172,4.1172,4.1172,4.1172,4.1172,4.1172,4.1172,4.1172,4.1172,4.1172,4.1172,4.1172,4.1113,4.0684,4.0527,4.0312,3.9062,3.8652,3.8652,3.8594,3.8574,3.8574,3.8574,3.8301,3.7891,3.7422,3.7031,3.6641,3.6133,3.6016,3.5898,3.5488,3.498,3.4394,3.3652,3.3457,3.3418,3.3418,3.3418,3.3281,3.2851,3.2793,3.248,3.1621,3.1191,3.0957,3.0898,3.0898,3.0898,3.0898,3.0898,3.0898,3.0898,3.0898,3.0898,3.0898,3.0898,3.0898,3.0898,3.0898,3.0898,3.0898,3.0898,3.0898,3.0898,3.0898,3.0898,3.8066,3.9199,4.0,3.9277,3.9101,3.8359,3.5566,3.3398,3.0937,2.7343,2.4263,2.2418,2.2991,2.424,2.6197,2.92,3.256,3.5151,3.6025,3.6452,3.7027,3.7806,3.8287,3.8887,3.9707,4.041,4.0859,4.0957,4.0879,4.0703,4.043,4.0898,4.1172,4.1172,4.1172,4.1172,4.1172,4.1172,4.1172,4.1172,4.1172,4.1172,4.1172,4.1172,4.1172,4.1172,4.1172,0.0,4.1172,4.1172,4.1172,4.1172,4.1172,4.1172,4.1172,4.1172,4.1172,4.1113,4.0684,4.0527,4.0351,3.9394,3.9101,3.9023,3.8672,3.8574,3.8574,3.8574,3.8516,3.8281,3.75,3.7246,3.6992,3.6211,3.6016,3.5898,3.5488,3.4746,3.4141,3.3984,3.3672,3.3418,3.3418,3.3418,3.3281,3.2851,3.2793,3.248,3.1621,3.1445,3.1269,3.0937,3.0898,3.0898,3.0898,3.0898,3.0898,3.0898,3.0898,3.0898,3.0898,3.0898,3.0898,3.0898,3.0898,3.0898,3.0898,3.0898,3.0898,3.0898,3.0898,3.0898,3.8789,3.9687,4.0254,3.916,3.8535,3.7363,3.4121,3.1367,2.8529,2.5339,2.2591,2.1001,2.1706,2.3038,2.4975,2.7809,3.1169,3.3769,3.4844,3.5586,3.6328,3.7168,3.7832,3.8574,3.9453,4.0527,4.1172,4.1172,4.1172,4.1074,4.0879,4.1055,4.1172,4.1172,4.1172,4.1172,4.1172,4.1172,4.1172,4.1172,4.1172,4.1172,4.1172,4.1172,4.1172,4.1172,4.1172,0.0,4.1172,4.1172,4.1172,4.1172,4.1172,4.1172,4.1172,4.1172,4.1172,4.1152,4.0937,4.0859,4.0723,3.9844,3.9394,3.9121,3.8691,3.8574,3.8574,3.8574,3.8574,3.8437,3.7793,3.7461,3.7129,3.6504,3.6191,3.5898,3.5488,3.5059,3.4629,3.416,3.3906,3.3691,3.3457,3.3418,3.3359,3.3144,3.3125,3.2891,3.2266,3.2187,3.1855,3.0976,3.0898,3.0898,3.0898,3.0898,3.0898,3.0898,3.0898,3.0898,3.0898,3.0898,3.0898,3.0898,3.0898,3.0898,3.0898,3.0898,3.0898,3.0898,3.0898,3.0898,3.9238,4.0,4.0332,3.8926,3.7715,3.5957,3.2422,2.9121,2.6014,2.3345,2.1039,1.9754,2.055,2.1854,2.3671,2.6377,2.9439,3.1953,3.334,3.4355,3.5332,3.6289,3.7226,3.8164,3.9101,4.0391,4.1172,4.1172,4.1172,4.1172,4.1172,4.1172,4.1172,4.1172,4.1172,4.1172,4.1172,4.1172,4.1172,4.1172,4.1172,4.1172,4.1172,4.1172,4.1172,4.1172,4.1172,0.0,0.0,4.1172,4.1172,4.1172,4.1172,4.1172,4.1172,4.1172,4.1172,4.1172,4.1172,4.1172,4.1035,4.0176,3.9648,3.9258,3.873,3.8574,3.8574,3.8574,3.8647,3.8622,3.8119,3.7747,3.7375,3.6866,3.6348,3.5937,3.5605,3.5449,3.5195,3.4492,3.4277,3.4101,3.375,3.3613,3.3555,3.3555,3.3476,3.3262,3.2851,3.2793,3.2383,3.1269,3.1172,3.1133,3.1035,3.1035,3.0996,3.0898,3.0898,3.0898,3.0898,3.0898,3.0898,3.0898,3.0898,3.0898,3.0898,3.0898,3.0898,3.0898,3.0898,3.0898,3.9707,4.0449,4.0703,3.9004,3.707,3.4551,3.0741,2.6875,2.3516,2.1309,1.9436,1.8426,1.9302,2.0508,2.222,2.4883,2.75,2.9805,3.1504,3.2812,3.4082,3.5351,3.6601,3.7832,3.9082,4.0391,4.1172,4.1172,4.1172,4.1172,4.1172,4.1172,4.1172,4.1172,4.1172,4.1172,4.1172,4.1172,4.1172,4.1172,4.1172,4.1172,4.1172,4.1172,4.1172,4.1172,4.1172,4.1172,0.0,4.1172,4.1172,4.1172,4.1172,4.1172,4.1172,4.1172,4.1172,4.1172,4.1172,4.1172,4.1035,4.0176,3.9863,3.9668,3.8828,3.8574,3.8574,3.8574,3.8885,3.9004,3.8569,3.841,3.8102,3.6995,3.6348,3.6016,3.5976,3.5664,3.5371,3.5293,3.4941,3.4629,3.459,3.4258,3.4023,3.4023,3.3672,3.3262,3.2851,3.2793,3.2598,3.2109,3.2051,3.1894,3.1504,3.1465,3.1289,3.0918,3.0898,3.0898,3.0898,3.0898,3.0898,3.0898,3.0898,3.0898,3.0898,3.0898,3.0898,3.0898,3.0898,3.0898,3.8516,3.9531,3.9922,3.793,3.5801,3.3184,2.9316,2.5625,2.248,2.0566,1.9023,1.8203,1.8789,1.9531,2.082,2.3144,2.5254,2.7305,2.9297,3.0918,3.2383,3.3672,3.4961,3.6348,3.791,3.9219,4.0312,4.1113,4.1172,4.1172,4.1172,4.1172,4.1172,4.1172,4.1172,4.1172,4.1172,4.1172,4.1172,4.1172,4.1172,4.1172,4.1172,4.1172,4.1172,4.1172,4.1172,0.0,0.0,4.1172,4.1172,4.1172,4.1172,4.1172,4.1172,4.1172,4.1172,4.1172,4.1172,4.1172,4.1035,4.0176,3.9902,3.9726,3.8848,3.8574,3.8647,3.8865,3.9103,3.9208,3.9226,3.8843,3.8232,3.7014,3.6543,3.6348,3.6074,3.5879,3.5703,3.5449,3.5234,3.5019,3.4746,3.4355,3.4082,3.4082,3.3691,3.3359,3.3184,3.3164,3.3105,3.2949,3.248,3.1992,3.1562,3.1523,3.1348,3.0918,3.0898,3.0898,3.0898,3.0898,3.0898,3.0898,3.0898,3.0898,3.0898,3.0898,3.0898,3.0898,3.0898,3.0898,3.7246,3.8594,3.918,3.7012,3.4648,3.1875,2.8144,2.4512,2.1523,2.0039,1.8809,1.8105,1.8364,1.8809,1.9727,2.1621,2.3379,2.5215,2.7246,2.9238,3.0937,3.209,3.3476,3.4961,3.6582,3.8223,3.9746,4.1074,4.1172,4.1172,4.1172,4.1172,4.1172,4.1172,4.1172,4.1172,4.1172,4.1172,4.1172,4.1172,4.1172,4.1172,4.1172,4.1172,4.1172,4.1172,4.1172,0.0,0.0,4.1172,4.1172,4.1172,4.1172,4.1172,4.1172,4.1172,4.1172,4.1172,4.1172,4.1172,4.1035,4.0176,3.9902,3.9726,3.8994,3.8793,3.8865,3.9103,3.9393,3.9518,3.9642,3.9178,3.8434,3.7328,3.6855,3.6582,3.6289,3.6113,3.5937,3.5644,3.5586,3.5469,3.5156,3.4746,3.4414,3.4277,3.3887,3.3574,3.3437,3.3418,3.3418,3.3418,3.2891,3.2363,3.1934,3.1894,3.1719,3.1289,3.1269,3.1211,3.1074,3.1074,3.1016,3.0898,3.0898,3.0898,3.0898,3.0898,3.0898,3.0898,3.0898,3.0898,3.6211,3.791,3.8691,3.6562,3.3769,3.0644,2.7187,2.3423,2.037,1.9473,1.8613,1.8008,1.8008,1.8325,1.9026,2.041,2.2031,2.3725,2.5479,2.7969,2.9922,3.0801,3.2402,3.3945,3.5293,3.7715,3.9746,4.1074,4.1172,0.0,4.1172,4.1172,4.1172,4.1172,4.1172,4.1172,4.1172,4.1172,4.1172,4.1172,4.1172,4.1172,4.1172,4.1172,4.1172,4.1172,0.0,0.0,0.0,4.1172,4.1172,4.1172,4.1172,4.1172,4.1172,4.1172,4.1172,4.1172,4.1172,4.1172,4.1035,4.0176,3.9902,3.9802,3.938,3.9176,3.9176,3.9176,3.9754,4.0166,3.9786,3.9392,3.8928,3.8053,3.7266,3.668,3.666,3.6328,3.6016,3.6016,3.6016,3.6016,3.6016,3.5664,3.5234,3.4766,3.4336,3.3906,3.3476,3.3418,3.3418,3.3418,3.3418,3.3242,3.2812,3.2793,3.2598,3.2187,3.2209,3.1953,3.1523,3.1504,3.1328,3.0898,3.0898,3.0898,3.0898,3.0898,3.0898,3.0898,3.0898,3.0898,3.3047,3.4629,3.5254,3.3398,3.1328,2.8906,2.5762,2.2715,2.0351,1.9453,1.8613,1.8008,1.8008,1.8091,1.8633,1.9902,2.1094,2.2594,2.4961,2.75,2.957,3.0762,3.3437,3.5586,3.6601,0.0,4.0098,4.1094,4.1172,4.1172,4.1172,4.1172,4.1172,4.1172,4.1172,4.1172,4.1172,4.1172,4.1172,4.1172,4.1172,4.1172,4.1172,4.1172,4.1172,0.0,0.0,0.0,0.0,4.1172,4.1172,4.1172,4.1172,4.1172,4.1172,4.1172,4.1172,4.1172,4.1172,4.1405,4.148,4.0535,4.0464,4.0604,3.9778,3.9373,3.9321,3.9827,4.031,4.0525,3.9858,3.9614,3.9218,3.8132,3.75,3.7012,3.6738,3.6328,3.6016,3.6016,3.6016,3.6016,3.6016,3.5664,3.5351,3.5195,3.4785,3.4453,3.4316,3.4043,3.3867,3.3867,3.3594,3.3242,3.2832,3.2793,3.2617,3.2268,3.2229,3.1973,3.1543,3.1523,3.1328,3.0898,3.0898,3.0898,3.0898,3.0898,3.0898,3.0898,3.0898,3.0898,2.9707,3.1523,3.2246,3.0684,2.9121,2.7207,2.4355,2.1953,2.0078,1.9219,1.8496,1.8008,1.8008,1.811,1.852,1.9531,2.0508,2.2029,2.4473,2.7187,2.9766,3.2051,3.4512,3.6426,3.7441,3.8809,4.0059,4.1094,4.1172,4.1172,4.1172,4.1172,4.1172,4.1172,4.1172,4.1172,4.1172,4.1172,4.1172,4.1172,4.1172,4.1172,4.1172,4.1172,4.1172,0.0,0.0,0.0,0.0,4.1172,4.1172,4.1172,4.1172,4.1172,4.1172,4.1172,4.1172,4.1152,4.0976,4.1227,4.1376,4.0504,4.0478,4.0679,4.0112,3.9806,3.9754,4.0382,4.074,4.074,4.0074,3.995,3.9654,3.8675,3.7948,3.7437,3.7162,3.6632,3.62,3.62,3.62,3.62,3.62,3.5984,3.5768,3.5591,3.5336,3.5014,3.4726,3.4473,3.4258,3.4082,3.3828,3.3496,3.3066,3.3027,3.293,3.2656,3.2637,3.2441,3.2012,3.1992,3.1797,3.1387,3.1367,3.1367,3.1367,3.1367,3.1367,3.1367,3.1367,3.1367,0.0,2.8496,2.957,2.832,2.7109,2.5547,2.3008,2.1094,0.0,1.8773,1.8266,1.8008,1.8008,1.8325,1.8754,1.9258,2.043,2.2009,2.4258,2.7266,3.0644,3.4434,3.5644,3.6641,3.7891,3.8789,3.9824,4.1074,4.1172,4.1172,4.1172,4.1172,4.1172,4.1172,4.1172,4.1172,4.1172,4.1172,4.1172,4.1172,4.1172,4.1172,4.1172,4.1172,4.1172,0.0,0.0,0.0,0.0,4.1172,4.1172,4.1172,4.1172,4.1172,4.1172,4.1172,4.1172,4.1113,4.0684,4.0737,4.1056,4.0162,4.0096,4.031,4.031,4.031,4.0382,4.0811,4.0882,4.0811,4.0382,4.031,4.0094,3.9393,3.8612,3.7977,3.7797,3.7173,3.6559,3.6519,3.6519,3.6519,3.6519,3.6519,3.638,3.5984,3.5924,3.5653,3.4909,3.4766,3.459,3.4219,3.4121,3.3906,3.3496,3.3437,3.3418,3.3418,3.3418,3.3242,3.2812,3.2793,3.2598,3.2229,3.2229,3.2229,3.2229,3.2229,3.2229,3.2229,3.2229,3.2229,2.1858,0.0,2.6543,2.5566,2.4863,2.3906,0.0,2.0449,1.9277,1.8715,1.8266,1.8008,1.8008,1.8325,1.8851,1.9648,2.0879,2.2715,2.5527,2.9648,3.3437,3.6348,3.7148,3.7851,3.8809,3.9687,4.0488,4.1133,4.1172,4.1172,4.1172,4.1172,4.1172,4.1172,4.1172,4.1172,4.1172,4.1172,4.1172,4.1172,4.1172,4.1172,4.1172,4.1172,4.1172,0.0,0.0,0.0,4.1172,4.1172,4.1172,4.1172,4.1172,4.1172,4.1172,4.1172,4.1172,4.1113,4.0684,4.0966,4.151,4.1269,4.0966,4.074,4.074,4.074,4.0811,4.0882,4.0882,4.0811,4.0382,4.031,4.0094,3.9393,3.8974,3.8617,3.7927,3.7639,3.7277,3.6646,3.6722,3.6876,3.6586,3.6722,3.6836,3.6447,3.636,3.6206,3.5723,3.543,3.5195,3.5098,3.4473,3.4023,3.3926,3.3613,3.3418,3.3418,3.3418,3.3242,3.2812,3.2793,3.2598,3.2229,3.2229,3.2229,3.2229,3.2229,3.2229,3.2229,3.2229,3.2229,1.9842,2.1934,2.3809,2.3081,2.2793,2.2227,2.0684,1.9629,1.8867,1.8403,1.813,1.8066,1.8227,1.8617,1.9277,2.0313,2.1777,2.4297,2.8711,3.2383,3.5586,3.8184,3.8691,3.916,0.0,4.0527,4.0918,4.1152,4.1172,4.1172,4.1172,4.1172,4.1172,4.1172,4.1172,4.1172,4.1172,4.1172,4.1172,4.1172,4.1172,4.1172,4.1172,4.1172,4.1172,0.0,0.0,0.0,4.1172,4.1172,4.1172,4.1152,4.0957,4.0879,4.0859,4.0664,4.0586,4.0527,4.0305,4.0554,4.1109,4.1203,4.1089,4.0882,4.0882,4.0882,4.0882,4.0882,4.0882,4.0882,4.0596,4.0596,4.0453,3.9827,3.9555,3.9222,3.8698,3.8344,3.7887,3.7421,3.7355,3.728,3.7079,3.7213,3.728,3.7079,3.6991,3.6809,3.6355,3.6071,3.5787,3.541,3.4961,3.4512,3.4101,3.3848,3.3633,3.3437,3.3418,3.332,3.3086,3.3086,3.2969,3.2754,3.2734,3.2734,3.2734,3.2734,3.2734,3.2734,3.2734,3.2734,1.916,2.0469,2.1621,2.1268,2.1249,2.1035,1.9863,1.9238,1.8773,1.8398,1.8301,1.8398,1.8734,1.9297,2.0117,2.1366,2.3457,2.6777,3.2226,3.4805,3.7031,3.9492,3.9785,0.0,4.0898,4.0976,4.0976,4.0976,4.0976,4.0976,4.0976,4.0976,4.0976,4.0976,4.0976,4.0976,4.0976,4.1113,4.1172,4.1172,4.1172,4.1172,4.1172,4.1172,4.1172,4.1172,0.0,0.0,4.1172,4.1172,4.1172,4.1133,4.0684,4.0527,4.0469,4.0059,3.9958,3.9975,3.9969,4.0117,4.0382,4.074,4.0882,4.0882,4.0882,4.0882,4.0882,4.0882,4.0882,4.0882,4.0882,4.0882,4.0811,4.0382,4.0095,3.9809,3.9657,3.9044,3.8541,3.833,3.7983,3.7764,3.7636,3.7616,3.7683,3.7616,3.7616,3.7348,3.6674,3.6519,3.6245,3.5594,3.543,3.5098,3.4336,3.4219,3.4004,3.3633,3.3496,3.3418,3.3418,3.3418,3.3418,3.3418,3.3418,3.3418,3.3418,3.3418,3.3418,3.3418,3.3418,3.3418,1.9082,2.0019,2.084,2.1112,2.1504,2.1641,2.1034,2.0586,2.0137,1.9707,1.9629,1.9648,1.9707,2.0684,2.1914,2.3184,2.6992,3.0762,3.3496,3.543,3.7246,3.9082,0.0,3.9512,4.0039,4.0098,4.0098,4.0098,4.0098,4.0098,4.0098,4.0098,4.0098,4.0098,4.0098,4.0098,4.0098,4.082,4.1172,4.1172,4.1172,4.1172,4.1172,4.1172,4.1172,4.1172,0.0,4.1172,4.1172,4.1172,4.1172,4.1133,4.0684,4.0527,4.0469,4.0059,4.0109,4.0385,4.0706,4.0625,4.0382,4.074,4.0882,4.0882,4.0882,4.0882,4.0882,4.0882,4.0882,4.0882,4.0882,4.0882,4.0811,4.0382,4.0535,4.0533,3.9789,3.9745,3.9577,3.8521,3.8452,3.8403,3.7697,3.7904,3.7971,3.7616,3.7616,3.7348,3.6586,3.6539,3.6384,3.5918,3.5605,3.5332,3.5195,3.4824,3.457,3.4512,3.3828,3.3418,3.3418,3.3418,3.3418,3.3418,3.3418,3.3418,3.3418,3.3418,3.3418,3.3418,3.3418,3.3418,1.9121,1.9959,2.0762,2.1406,2.2266,2.2852,2.2656,2.2637,2.2461,2.1756,2.1484,2.1387,2.1621,2.2539,2.4219,2.7148,3.043,3.3203,3.4883,3.6406,3.7812,0.0,0.0,3.9394,3.9844,3.9902,3.9902,3.9902,3.9902,3.9902,3.9902,3.9902,3.9902,3.9902,3.9902,3.9902,3.9902,4.0293,4.0488,4.0488,4.0488,4.0488,4.0488,4.0488,4.0488,4.0488,0.0,4.0488,4.0488,4.0488,4.0488,4.043,3.998,3.9805,3.9766,3.9578,3.9844,4.0391,4.0553,4.0638,4.0668,4.0811,4.0882,4.0882,4.0882,4.0882,4.0882,4.0882,4.0882,4.0882,4.0882,4.0882,4.0882,4.0668,4.074,4.082,4.04,4.0244,4.0026,3.9474,3.9254,3.9096,3.8664,3.8574,3.8476,3.8253,3.8048,3.7703,3.6944,3.6876,3.6674,3.6084,3.584,3.5644,3.541,3.5195,3.4863,3.4394,3.3984,3.3672,3.3437,3.3418,3.3418,3.3418,3.3418,3.3418,3.3418,3.3418,3.3418,3.3418,3.3418,3.3418,1.9232,1.9881,2.0683,2.1641,2.2852,2.3848,2.4043,2.4492,2.4687,2.3978,2.3652,2.3496,2.373,2.4707,2.6758,3.0703,3.2949,3.4707,3.6113,3.7246,3.8203,3.8965,3.9062,3.9199,3.9551,3.959,3.959,3.959,3.959,3.959,3.959,3.959,3.959,3.959,3.959,3.959,3.959,3.959,3.9687,3.9902,3.9902,3.9902,3.9902,3.9902,3.9902,3.9902,3.9902,3.9902,3.9902,3.9902,3.9958,3.9994,3.9543,3.9362,3.9298,3.944,3.9827,4.031,4.0382,4.0668,4.0882,4.0882,4.0882,4.0882,4.0882,4.0882,4.0882,4.0882,4.0882,4.0882,4.0882,4.0882,4.0882,4.0882,4.0882,4.0882,4.0882,4.0613,4.0344,4.0241,3.993,3.9661,3.9488,3.9096,3.8786,3.8786,3.846,3.7904,3.7213,3.7079,3.6809,3.6084,3.6016,3.5898,3.5566,3.5547,3.5215,3.4434,3.418,3.3926,3.3594,3.3476,3.3418,3.3418,3.3418,3.3418,3.3418,3.3418,3.3418,3.3418,3.3418,3.3418,1.9485,1.9757,2.0273,2.1562,2.2852,2.4004,2.4832,2.5625,2.623,2.6172,2.6133,2.5996,2.5577,2.7175,2.9492,3.2226,3.3789,3.5254,3.6973,0.0,3.8086,3.8574,3.8613,3.8633,3.8672,3.8672,3.8672,3.8672,3.8672,3.8672,3.8672,3.8672,3.8672,3.8672,3.8672,3.8672,3.8672,3.8672,3.9082,3.9902,3.9902,3.9902,3.9902,3.9902,3.9902,3.9902,3.9902,3.9902,3.9902,3.9902,4.0109,4.033,3.9914,3.9699,3.9682,4.0094,4.0238,4.0382,4.074,4.0882,4.0882,4.0882,4.0882,4.0882,4.0882,4.0882,4.0882,4.0882,4.0882,4.0882,4.0882,4.0882,4.0882,4.0882,4.0882,4.0882,4.0882,4.0841,4.0717,4.0303,4.0179,4.0013,3.962,3.9096,3.8786,3.8786,3.846,3.7904,3.7213,3.7079,3.6809,3.6084,3.6016,3.6016,3.5976,3.5976,3.5781,3.5332,3.4531,3.4062,3.4023,3.3633,3.3418,3.3418,3.3418,3.3418,3.3418,3.3418,3.3418,3.3418,3.3418,3.3418,1.9925,2.0131,2.0566,2.1621,2.3047,2.4609,2.6358,2.7773,2.8867,2.9141,2.918,2.8887,2.7891,2.9492,3.1426,3.2949,3.4726,3.6328,3.7519,3.8066,3.8398,3.8555,3.8574,3.8574,3.8574,3.8574,3.8574,3.8574,3.8574,3.8574,3.8574,3.8574,3.8574,3.8574,3.8574,3.8574,3.8574,3.8574,3.875,3.9082,3.9082,3.9082,3.9082,3.9082,3.9082,3.9082,3.9082,3.9082,3.9082,3.9082,3.9303,3.9651,3.9745,3.9875,4.0094,4.0238,4.0453,4.0668,4.0882,4.0882,4.0882,4.0882,4.0882,4.0882,4.0882,4.0882,4.0882,4.0882,4.0882,4.0882,4.0882,4.0882,4.0882,4.0882,4.0882,4.0882,4.0882,4.0882,4.082,4.0655,4.0613,4.0551,4.0406,3.9992,3.9633,3.9633,3.9081,3.8382,3.7909,3.7597,3.7213,3.6742,3.6471,3.6336,3.6336,3.6152,3.5957,3.5801,3.5234,3.4766,3.4473,3.4297,3.4219,3.4219,3.4219,3.4219,3.4219,3.4219,3.4219,3.4219,3.4219,3.4082,2.0409,2.0516,2.0858,2.1885,2.3382,2.5255,2.7653,2.9309,3.0644,3.1348,3.1387,3.0976,2.9941,3.1172,3.2695,3.3672,3.543,3.7012,3.7988,3.8379,3.8574,3.8574,3.8574,3.8574,3.8574,3.8574,3.8574,3.8574,3.8574,3.8574,3.8574,3.8574,3.8574,3.8574,3.8574,3.8574,3.8574,3.8574,3.8574,3.8574,3.872,3.8793,3.8793,3.8793,3.8865,3.8938,3.8938,3.8865,3.8793,3.8793,3.9011,3.9373,3.9858,4.0218,4.0525,4.0525,4.0668,4.0882,4.0882,4.0882,4.0882,4.0882,4.0882,4.0882,4.0882,4.0882,4.0882,4.0882,4.0882,4.0882,4.0882,4.0882,4.0882,4.0882,4.0882,4.0882,4.0882,4.0882,4.0882,4.0882,4.0882,4.0882,4.0882,4.051,4.022,4.022,3.9364,3.8718,3.8357,3.7901,3.7482,3.7146,3.6722,3.6519,3.6519,3.62,3.6016,3.6016,3.5742,3.5391,3.4941,3.4766,3.4707,3.4707,3.4707,3.4707,3.4707,3.4707,3.4707,3.4707,3.4707,3.4551,2.0896,2.0768,2.0941,2.2292,2.3924,2.592,2.862,3.0115,3.1269,3.2559,3.248,3.2051,3.1621,3.2226,3.3223,3.4492,3.582,3.7199,3.8398,3.8647,3.8647,3.8647,3.8647,3.8647,3.8574,3.8574,3.8574,3.8574,3.8574,3.8574,3.8574,3.8574,3.8574,3.8647,3.8647,3.8647,3.8647,3.8647,3.8647,3.8647,3.903,3.9176,3.9176,3.9176,3.9373,3.9714,3.9714,3.9518,3.9176,3.9176,3.9373,3.9786,4.0576,4.0882,4.0882,4.0882,4.0882,4.0882,4.0882,4.0882,4.0882,4.0882,4.0882,4.0882,4.0882,4.0882,4.0882,4.0882,4.0882,4.0882,4.0882,4.0882,4.0882,4.0882,4.0882,4.0882,4.0882,4.0882,4.0882,4.0882,4.0882,4.0882,4.0882,4.051,4.0241,4.0241,3.9385,3.8718,3.8378,3.7901,3.7482,3.7146,3.6722,3.6519,3.6519,3.62,3.6016,3.6016,3.6016,3.584,3.541,3.4961,3.4707,3.4707,3.4707,3.4707,3.4707,3.4707,3.4707,3.4707,3.4707,3.4707,2.1653,2.1905,2.2392,2.4005,2.6027,2.8208,3.0535,3.185,3.2994,3.465,3.4645,3.397,3.2679,3.3359,3.4322,3.4975,3.6482,3.7955,3.9214,3.9353,3.9353,3.9353,3.9353,3.9301,3.903,3.903,3.8885,3.8647,3.8574,3.872,3.903,3.903,3.9156,3.9353,3.9353,3.9353,3.9353,3.9353,3.9353,3.9353,3.9498,3.9445,3.9176,3.9445,3.957,3.9714,3.9714,3.9518,3.9248,3.9445,3.9806,4.0166,4.074,4.0882,4.0882,4.0882,4.0882,4.0882,4.0882,4.0882,4.0882,4.0882,4.0882,4.0882,4.0882,4.0882,4.0882,4.0882,4.0882,4.0882,4.0882,4.0882,4.0882,4.0882,4.0882,4.0882,4.0882,4.0882,4.0882,4.0882,4.0882,4.0882,4.0882,4.0779,4.0675,4.0675,4.0199,3.9509,3.8732,3.8527,3.8321,3.7945,3.7482,3.728,3.728,3.6944,3.6742,3.6742,3.6539,3.6209,3.584,3.5703,3.5625,3.5625,3.5625,3.5625,3.5625,3.5625,3.5625,3.5625,3.5625,3.5469,2.1996,2.2961,2.4061,2.5813,2.8288,3.0921,3.3534,3.4308,3.4802,3.5891,3.5785,3.5125,3.3794,3.4446,3.535,3.5726,3.7072,3.8447,3.9522,3.9714,3.9714,3.9714,3.9714,3.959,3.9248,3.9176,3.903,3.8647,3.8563,3.8682,3.8918,3.8903,3.8946,3.9211,3.9372,3.9453,3.9453,3.9634,3.9714,3.9714,3.9858,3.9806,3.961,3.9878,4.0002,4.0146,4.0002,3.9806,3.9682,3.9878,4.0094,4.031,4.074,4.0882,4.0882,4.0882,4.0882,4.0882,4.0882,4.0882,4.0882,4.0882,4.0882,4.0882,4.0882,4.0882,4.0882,4.0882,4.0882,4.0882,4.0882,4.0882,4.0882,4.0882,4.0882,4.0882,4.0882,4.0882,4.0882,4.0882,4.0882,4.0882,4.0882,4.0882,4.0882,4.0882,4.051,3.9819,3.8889,3.8786,3.8688,3.8233,3.7837,3.7616,3.7616,3.728,3.7079,3.7079,3.6722,3.6384,3.62,3.6084,3.6016,3.6016,3.6016,3.6016,3.6016,3.6016,3.6016,3.6016,3.6016,3.5879,2.2149,2.3929,2.5768,2.7696,3.0603,3.3886,3.6929,3.7044,3.6576,3.6574,3.6336,3.5825,3.508,3.5574,3.6209,3.6674,3.7706,3.8738,3.9565,3.9665,3.9665,3.9665,3.9665,3.9542,3.9201,3.9201,3.8984,3.8602,3.8537,3.8533,3.8533,3.8507,3.8447,3.8516,3.8879,3.9172,3.9212,3.9524,3.9746,3.9786,4.0166,4.0382,4.0382,4.0382,4.0525,4.0882,4.0453,4.031,4.031,4.031,4.031,4.0382,4.074,4.0882,4.0882,4.0882,4.0882,4.0882,4.0882,4.0882,4.0882,4.0882,4.0882,4.0882,4.0882,4.0882,4.0882,4.0882,4.0882,4.0882,4.0882,4.0882,4.0882,4.0882,4.0882,4.0882,4.0882,4.0882,4.0882,4.0882,4.0882,4.0882,4.0882,4.0882,4.0882,4.0882,4.0551,3.9972,3.9013,3.891,3.8812,3.8357,3.8027,3.7738,3.7677,3.7408,3.7254,3.7213,3.6789,3.6586,3.6586,3.62,3.6016,3.6016,3.6016,3.6016,3.6016,3.6016,3.6016,3.6016,3.6016,3.6016,2.2459,2.4633,2.6889,2.9456,3.3037,3.639,3.8083,3.814,3.7714,3.7461,3.7266,3.7119,3.6683,3.7004,3.7481,3.7854,3.8478,3.9044,3.9437,3.9548,3.9548,3.9548,3.9548,3.9409,3.9059,3.9059,3.8849,3.8497,3.8417,3.8567,3.8847,3.8905,3.8983,3.926,3.9363,3.9569,3.9939,4.0041,4.0247,0.0,4.074,4.074,4.074,4.074,4.0811,4.0882,4.0453,4.0453,4.074,4.0453,4.0453,4.0811,4.0882,4.0882,4.0882,4.0882,4.0882,4.0882,4.0882,4.0882,4.0882,4.0882,4.0882,4.0882,4.0882,4.0882,4.0882,4.0882,4.0882,4.0882,4.0882,4.0882,4.0882,4.0882,4.0882,4.0882,4.0882,4.0882,4.0882,4.0882,4.0882,4.0882,4.0882,4.0882,4.0882,4.0882,4.08,4.0551,4.0013,3.993,3.9744,3.9309,3.911,3.8966,3.8594,3.8506,3.8274,3.7991,3.7549,3.7348,3.7348,3.6491,3.6016,3.6016,3.6016,3.6016,3.6016,3.6016,3.6016,3.6016,3.6016,3.6016,2.277,2.5647,2.8897,3.3203,3.5873,3.7715,3.8579,3.8667,3.8373,3.7945,3.775,3.7482,3.7146,3.7395,3.7753,3.8269,3.863,3.9014,3.9447,3.9468,3.9468,3.9468,3.9468,3.9399,3.9053,3.8983,3.8844,3.8447,3.8364,3.845,3.8657,3.8658,3.8691,3.8895,3.9034,3.9261,3.9488,3.9716,4.0013,4.0241,4.0241,4.0241,4.0241,4.0675,4.0882,4.0882,4.0668,4.074,4.0882,4.0668,4.074,4.0882,4.0882,4.0882,4.0882,4.0882,4.0882,4.0882,4.0882,4.0882,4.0882,4.0882,4.0882,4.0882,4.0882,4.0882,4.0882,4.0882,4.0882,4.0882,4.0882,4.0882,4.0882,4.0882,4.0882,4.0882,4.0882,4.0882,4.0882,4.0882,4.0882,4.0882,4.0882,4.0882,4.0882,4.0882,4.0882,4.0717,4.0282,4.022,4.0054,3.953,3.9468,3.9282,3.8827,3.8786,3.8667,3.8212,3.7837,3.7616,3.7616,3.6742,3.6268,3.6268,3.6084,3.6016,3.6016,3.6016,3.6016,3.6016,3.6016,3.6016,2.2873,2.6765,3.1215,3.6701,3.8129,3.8295,3.8683,3.8724,3.8626,3.8253,3.7971,3.7616,3.7348,3.7482,3.7826,3.8194,3.8527,3.8807,3.9247,3.9309,3.9309,3.9309,3.9309,3.9172,3.8897,3.8897,3.8759,3.8413,3.8343,3.8255,3.8255,3.8244,3.8191,3.8191,3.8543,3.8703,3.8786,3.9158,3.9385,3.9468,3.9468,3.9468,3.9488,4.0303,4.0655,4.0655,4.0737,4.0758,4.0779,4.0841,4.0882,4.0882,4.0882,4.0882,4.0882,4.0882,4.0882,4.0882,4.0882,4.0882,4.0862,4.08,4.0758,4.0737,4.0675,4.0696,4.0758,4.0758,4.082,4.0882,4.0882,4.0882,4.0882,4.0882,4.0882,4.0882,4.0882,4.0882,4.0882,4.0882,4.0882,4.0882,4.0882,4.0882,4.0882,4.0882,4.0882,4.0737,4.0386,4.0344,4.0199,3.9806,3.9765,3.9578,3.9055,3.9013,3.8895,3.844,3.813,3.7928,3.7928,3.73,3.6921,3.6841,3.6239,3.6016,3.6016,3.6016,3.6016,3.6016,3.6016,3.6016,2.2397,2.7676,3.312,3.6701,3.7881,3.8295,3.8683,3.8543,3.8253,3.8191,3.8191,3.8125,3.8058,3.8125,3.8125,3.8187,3.8274,3.8295,3.8357,3.8357,3.8357,3.8357,3.8357,3.8357,3.829,3.829,3.829,3.8223,3.8249,3.8207,3.8207,3.8212,3.8191,3.8191,3.8253,3.846,3.8786,3.8848,3.9075,3.9468,3.9468,3.9468,3.9468,3.9661,3.9723,3.9744,4.0137,4.0323,4.0344,4.0717,4.0882,4.0882,4.0882,4.0882,4.0882,4.0882,4.0882,4.0882,4.0882,4.0882,4.082,4.0448,4.0323,4.0241,3.9847,3.9972,4.0282,4.0303,4.0593,4.0882,4.0882,4.0882,4.0882,4.0882,4.0882,4.0882,4.0882,4.0882,4.0882,4.0882,4.0882,4.0882,4.0882,4.0882,4.0882,4.0882,4.0882,4.0862,4.08,4.08,4.0758,4.0696,4.0696,4.051,4.0075,3.9984,3.9847,3.9392,3.9282,3.9213,3.9213,3.8869,3.8478,3.8072,3.6669,3.6016,3.6016,3.6016,3.6016,3.6016,3.6016,3.6016,2.4426,2.9187,3.3534,3.7011,3.8026,3.8295,3.8683,3.8621,3.8481,3.8233,3.8191,3.8191,3.8191,3.8191,3.8191,3.8191,3.8191,3.8191,3.8191,3.8191,3.8191,3.8191,3.8191,3.8191,3.8191,3.8191,3.8191,3.8191,3.8191,3.8191,3.8191,3.8191,3.8191,3.8191,3.8191,3.8274,3.8481,3.8481,3.8585,3.8771,3.8771,3.8771,3.8771,3.8771,3.9061,3.9488,4.0034,4.022,4.0261,4.0696,4.0882,4.0882,4.0882,4.0882,4.0882,4.0882,4.0882,4.0882,4.0882,4.0717,4.0468,4.0282,4.0034,3.9806,3.953,3.9682,3.9868,4.0158,4.0365,4.0572,4.082,4.0882,4.0882,4.0882,4.0882,4.0882,4.0882,4.0882,4.0882,4.0882,4.0882,4.0882,4.0882,4.0882,4.0882,4.0882,4.0882,4.0882,4.0882,4.0882,4.0882,4.0882,4.0882,4.0696,4.0261,4.022,4.0034,3.9509,3.9468,3.9468,3.9468,3.9191,3.8759,3.831,3.722,3.6504,3.6268,3.6084,3.6016,3.6016,3.6016,3.6016,2.5478,2.9311,3.2478,3.5935,3.697,3.7281,3.7839,3.8001,3.8129,3.8026,3.8005,3.8046,3.8171,3.8191,3.8191,3.8191,3.8191,3.8191,3.8191,3.8191,3.8191,3.8191,3.8191,3.8191,3.8191,3.8191,3.8191,3.8191,3.8191,3.8191,3.8191,3.8191,3.8191,3.8191,3.8191,3.8191,3.8191,3.8191,3.8191,3.8191,3.8191,3.8191,3.8191,3.8191,3.8543,3.9226,3.9682,3.9798,3.993,4.0489,4.0717,4.0717,4.082,4.0882,4.0882,4.0882,4.0882,4.0882,4.0882,4.0655,4.0365,4.0096,3.9806,3.9426,3.9268,3.9351,3.953,3.9881,4.022,4.0468,4.08,4.0882,4.0882,4.0882,4.0882,4.0882,4.0882,4.0882,4.0882,4.0882,4.0882,4.0882,4.0882,4.0882,4.0882,4.0882,4.0882,4.0882,4.0882,4.0882,4.0882,4.0882,4.0882,4.0737,4.0427,4.0386,4.0241,3.9909,3.9868,3.9868,3.9868,3.961,3.9245,3.8794,3.8154,3.7399,3.6519,3.6132,3.6016,3.6016,3.6016,3.6016,2.3991,2.6677,2.9497,3.2313,3.3658,3.4507,3.5397,3.5935,3.6494,3.7363,3.7529,3.7653,3.8109,3.8191,3.8191,3.8191,3.8191,3.8191,3.8191,3.8191,3.8191,3.8191,3.8191,3.8191,3.8191,3.8191,3.8191,3.8191,3.8191,3.8191,3.8191,3.8191,3.8191,3.8191,3.8191,3.8191,3.8191,3.8191,3.8191,3.8191,3.8191,3.8191,3.8191,3.8191,3.8212,3.8274,3.873,3.8848,3.8931,3.9889,4.0261,4.0303,4.0717,4.0882,4.0882,4.0882,4.0882,4.0882,4.0882,4.0862,4.0696,3.9847,3.9488,3.9371,3.8523,3.8854,3.9468,3.9509,4.0179,4.0841,4.0862,4.0882,4.0882,4.0882,4.0882,4.0882,4.0882,4.0882,4.0882,4.0882,4.0882,4.0882,4.0882,4.0882,4.0882,4.0882,4.0882,4.0882,4.0882,4.0882,4.0882,4.0882,4.0882,4.0862,4.0841,4.0841,4.082,4.08,4.08,4.08,4.08,4.08,4.0593,4.0088,3.9736,3.8575,3.6519,3.6132,3.6016,3.6016,3.6016,3.6016,2.1842,2.4094,2.6553,2.9042,3.0553,3.1919,3.3699,3.4693,3.5666,3.7177,3.7488,3.755,3.7715,3.7984,3.8191,3.8191,3.8191,3.8191,3.8191,3.8191,3.8191,3.8191,3.8191,3.8191,3.8191,3.8191,3.8191,3.8191,3.8191,3.8191,3.8191,3.8191,3.8191,3.8191,3.8191,3.8191,3.8191,3.8191,3.8191,3.8191,3.8191,3.8191,3.8191,3.8191,3.8191,3.8191,3.8357,3.8585,3.8848,3.9778,4.022,4.0282,4.0717,4.0882,4.0882,4.0882,4.0882,4.0882,4.0882,4.0696,4.0406,4.0096,3.9785,3.9406,3.9144,3.9288,3.953,3.9868,4.0179,4.051,4.08,4.0882,4.0882,4.0882,4.0882,4.0882,4.0882,4.0882,4.0882,4.0882,4.0882,4.0882,4.0882,4.0882,4.0882,4.0882,4.0882,4.0882,4.0882,4.0882,4.0882,4.0882,4.0882,4.0882,4.0882,4.0882,4.0882,4.0882,4.0882,4.0882,4.0882,4.0882,4.0675,4.0241,3.9868,3.9056,3.7637,3.7092,3.6612,3.6355,3.6152,3.6016,2.0286,2.2004,2.3867,2.6041,2.7593,2.9125,3.1091,3.2623,3.4134,3.5976,3.6577,3.6887,3.7198,3.7508,3.7715,3.7715,3.7715,3.7715,3.7715,3.786,3.7964,3.7964,3.8088,3.8191,3.8191,3.8191,3.8191,3.8191,3.8191,0.0,3.8191,3.8191,3.8191,3.8191,3.8191,3.8191,3.8191,3.8191,3.8191,3.8191,3.8191,3.8191,3.8191,3.8191,3.8191,3.8191,3.8191,3.8357,3.8709,3.962,3.9992,4.0054,4.0655,4.0882,4.0882,4.0882,4.0882,4.0882,4.0882,4.0696,4.0427,4.0282,4.0013,3.9744,3.953,3.9571,3.9827,4.0096,4.0303,4.0489,4.08,4.0882,4.0882,4.0882,4.0882,4.0882,4.0882,4.0882,4.0882,4.0882,4.0882,4.0882,4.0882,4.0882,4.0882,4.0882,4.0882,4.0882,4.0882,4.0882,4.0882,4.0882,4.0882,4.0882,4.0882,4.0882,4.0882,4.0882,4.0882,4.0882,4.0882,4.0882,4.0737,4.0448,4.0236,3.9704,3.8945,3.7746,3.6955,3.6539,3.6152,3.6016,0.0,0.0,0.0,2.3267,2.478,2.6103,2.7489,2.9529,3.1698,3.3637,3.4755,3.5666,3.6618,3.6784,3.6784,3.6763,3.6784,3.6804,3.6804,3.7198,3.7488,3.7488,3.7881,3.8171,3.8191,3.8191,3.8191,3.8191,3.8191,3.8191,3.8191,3.8191,3.8191,3.8191,3.8191,3.8191,3.8191,3.8191,3.8191,3.8191,3.8191,3.8191,3.8191,3.8191,3.8191,3.8191,3.8191,3.8191,3.8253,3.9164,3.9468,3.955,4.053,4.0882,4.0882,4.0882,4.0882,4.0882,4.0882,4.0882,4.08,4.0386,4.0241,4.0158,3.9654,3.9889,4.0241,4.022,4.053,4.0882,4.0882,4.0882,4.0882,4.0882,4.0882,4.0882,4.0882,4.0882,4.0882,4.0882,4.0882,4.0882,4.0882,4.0882,4.0882,4.0882,4.0882,4.0882,4.0882,4.0882,4.0882,4.0882,4.0882,4.0882,4.0882,4.0882,4.0882,4.0882,4.0882,4.0882,4.0882,4.0882,4.0882,4.0882,4.0882,4.0655,4.0179,3.8254,3.7063,3.6559,3.6239,3.6055,1.775,0.0,0.0,0.0,0.0,0.0,0.0,0.0,2.929,3.2457,3.3824,3.4817,3.608,3.6308,3.6183,3.5852,3.637,3.6804,3.6804,3.6908,3.7115,3.7446,3.7612,3.7819,3.815,3.8191,3.8191,0.0,3.8191,3.8191,3.8191,3.8191,3.8191,3.8191,3.8191,3.8191,3.8191,3.8191,3.8191,3.8191,3.8191,3.8191,3.8191,3.8191,3.8191,3.8191,3.8191,3.8191,3.8253,3.9164,3.9468,3.955,4.053,4.0882,4.0882,4.0882,4.0882,4.0882,4.0882,4.0882,4.0862,4.0737,4.0696,4.0675,4.0551,4.0593,4.0696,4.0696,4.0779,4.0882,4.0882,4.0882,4.0882,4.0882,4.0882,4.0882,4.0882,4.0882,4.0882,4.0882,4.0882,4.0882,4.0882,4.0882,4.0882,4.0882,4.0882,4.0882,4.0882,4.0882,4.0882,4.0882,4.0882,4.0882,4.0882,4.0882,4.0882,4.0882,4.0882,4.0882,4.0882,4.0882,4.0882,4.0882,4.0882,4.0655,4.0179,3.9391,3.8766,3.832,3.7649,3.7232,1.7968,1.8278,1.8745,1.8932,0.0,0.0,2.2439,2.4633,2.7179,0.0,3.1464,3.2727,3.3927,3.4134,3.4113,3.4031,3.4631,3.5376,3.6121,3.639,3.6618,3.6887,3.7094,3.7322,3.7591,3.7612,3.7612,3.7612,3.7612,3.7612,3.7612,3.7798,3.7902,3.7902,3.8088,3.8191,3.8191,3.8191,3.8191,3.8191,3.8191,3.8191,3.8191,3.8191,3.8191,3.8191,3.8191,3.8191,3.8233,3.8957,3.9179,3.9261,4.0241,4.0593,4.0634,4.082,4.0882,4.0882,4.0882,4.0882,4.0882,4.0882,4.0882,4.0882,4.0882,4.0882,4.0882,4.0882,4.0882,4.0882,4.0882,4.0882,4.0882,4.0882,4.0882,4.0882,4.0882,4.0882,4.0882,4.0882,4.0882,4.0882,4.0882,4.0882,4.0882,4.0882,4.0882,4.0882,4.0882,4.0882,4.0882,4.0882,4.0882,4.0882,4.0882,4.0882,4.0882,4.0882,4.0882,4.0882,4.0882,4.0882,4.0882,4.0882,4.0882,4.0737,4.0468,3.995,3.9292,3.8496,3.8077,3.7656,1.931,1.9243,0.0,1.9699,2.0058,0.0,2.0741,2.2873,2.5171,0.0,2.8297,2.9849,3.0884,3.1071,3.1195,3.1533,3.2029,3.3099,3.5004,3.5666,3.5997,3.6101,3.6473,3.6742,3.6804,3.6804,3.6804,3.6804,3.6804,3.6804,3.6804,3.7198,3.7425,3.7425,3.7819,3.8067,3.8109,3.8109,3.8129,3.8191,3.8191,3.8191,3.8191,3.8191,3.8191,3.8191,3.8191,3.8191,3.8212,3.8605,3.8745,3.8869,3.9847,4.0199,4.0282,4.0717,4.0882,4.0882,4.0882,4.0882,4.0882,4.0882,4.0882,4.0882,4.0882,4.0882,4.0882,4.0882,4.0882,4.0882,4.0882,4.0882,4.0882,4.0882,4.0882,4.0882,4.0882,4.0882,4.0882,4.0882,4.0882,4.0882,4.0882,4.0882,4.0882,4.0882,4.0882,4.0882,4.0882,4.0882,4.0882,4.0882,4.0882,4.0882,4.0882,4.0882,4.0882,4.0882,4.0882,4.0882,4.0882,4.0882,4.0882,4.0882,4.0882,4.0882,4.0882,4.0206,3.9252,3.8166,3.8166,3.7955,2.0232,2.0162,2.01,1.9865,0.0,0.0,1.9065,2.0472,2.2418,0.0,2.5689,2.7179,2.8856,2.9145,2.9187,2.927,2.9973,3.1422,3.3969,3.4795,3.5293,3.6018,3.6183,3.639,3.6763,3.6804,3.6804,3.6804,3.6804,3.6804,3.6804,3.6887,3.6929,3.6929,3.7032,3.7239,3.7632,3.7632,3.7819,3.8191,3.8191,3.8191,3.8191,3.8191,3.8191,3.8191,3.8191,3.8191,3.8191,3.8274,3.8523,3.8869,3.9868,4.022,4.0282,4.0717,4.0882,4.0882,4.0882,4.0882,4.0882,4.0882,4.0882,4.0882,4.0882,4.0882,4.0882,4.0882,4.0882,4.0882,4.0882,4.0882,4.0882,4.0882,4.0882,4.0882,4.0882,4.0882,4.0882,4.0882,4.0882,4.0882,4.0882,4.0882,4.0882,4.0882,4.0882,4.0882,4.0882,4.0882,4.0882,4.0882,4.0882,4.0882,4.0882,4.0882,4.0882,4.0882,4.0882,4.0882,4.0882,4.0882,4.0882,4.0882,4.0882,4.0882,4.0882,4.0728,4.0361,3.9851,3.9851,3.9493,2.1956,2.1539,2.112,2.0591,0.0,0.0,0.0,1.9789,2.1155,2.2563,2.3743,2.4881,2.6041,2.6248,2.6248,2.6248,2.72,2.8669,3.0719,3.2768,3.4403,3.5335,3.5625,3.5769,3.579,3.5976,3.6121,3.6121,3.6121,3.6121,3.6121,3.6328,3.6453,3.6453,3.668,3.6908,3.7156,3.7384,3.7612,3.7839,3.8067,3.8191,3.8191,3.8191,3.8191,3.8191,3.8191,3.8191,3.8191,3.8191,3.8316,3.8605,3.9537,3.9889,3.9972,4.0634,4.0882,4.0882,4.0882,4.0882,4.0882,4.0882,4.0882,4.0882,4.0882,4.0882,4.0882,4.0882,4.0882,4.0882,4.0882,4.0882,4.0882,4.0882,4.0882,4.0882,4.0882,4.0882,4.0882,4.0882,4.0882,4.0882,4.0882,4.0882,4.0882,4.0882,4.0882,4.0882,4.0882,4.0882,4.0882,4.0882,4.0882,4.0882,4.0882,4.0882,4.0882,4.0882,4.0882,4.0882,4.0882,4.0882,4.0882,4.0882,4.0882,4.0882,4.0882,4.0882,4.0668,4.031,4.031,3.9878,0.0,0.0,0.0,0.0,0.0,1.9886,0.0,0.0,0.0,2.1238,2.2004,0.0,0.0,0.0,0.0,0.0,0.0,0.0,0.0,2.9953,0.0,3.3927,3.4486,3.4672,3.4403,3.4776,3.5066,3.5148,3.5169,3.5211,3.5293,3.5728,3.5976,3.5976,3.6349,3.6577,3.666,3.7136,3.7405,3.7508,3.7964,3.8191,3.8191,3.8191,3.8191,3.8191,3.8191,3.8191,3.8191,3.8191,3.8191,3.8274,3.9185,3.9468,3.9571,4.0551,4.0882,4.0882,4.0882,4.0882,4.0882,4.0882,4.0882,4.0882,4.0882,4.0882,4.0882,4.0882,4.0882,4.0882,4.0882,4.0882,4.0882,4.0882,4.0882,4.0882,4.0882,4.0882,4.0882,4.0882,4.0882,4.0882,4.0882,4.0882,4.0882,4.0882,4.0882,4.0882,4.0882,4.0882,4.0882,4.0882,4.0882,4.0882,4.0882,4.0882,4.0882,4.0882,4.0882,4.0882,4.0882,4.0882,4.0882,4.0882,4.0882,4.0882,4.0882,4.0882,4.074,4.0382,4.0382,4.0022,0.0,0.0,0.0,0.0,2.1942,0.0,0.0,0.0,1.9409,1.9927,0.0,0.0,0.0,0.0,0.0,0.0,0.0,0.0,2.4631,2.5958,2.7986,3.1285,3.2091,3.2504,3.2934,3.3348,3.3782,3.4196,3.4217,3.4403,3.4878,3.5252,3.55,3.55,3.5562,3.5769,3.6183,3.666,3.7094,3.7508,3.7964,3.8191,3.8191,3.8191,3.8191,3.8191,3.8191,3.8191,3.8191,3.8191,3.8191,3.8274,3.9185,3.9468,3.9571,4.0551,4.0882,4.0882,4.0882,4.0882,4.0882,4.0882,4.0882,4.0882,4.0882,4.0882,4.0882,4.0882,4.0882,4.0882,4.0882,4.0882,4.0882,4.0882,4.0882,4.0882,4.0882,4.0882,4.0882,4.0882,4.0882,4.0882,4.0882,4.0882,4.0882,4.0882,4.0882,4.0882,4.0882,4.0882,4.0882,4.0882,4.0882,4.0882,4.0882,4.0882,4.0882,4.0882,4.0882,4.0882,4.0882,4.0882,4.0882,4.0882,4.0882,4.0882,4.0882,4.0882,4.0882,4.0811,4.0811,4.0596,0.0,0.0,0.0,0.0,0.0,0.0,1.9886,0.0,1.9913,0.0,0.0,0.0,0.0,0.0,0.0,0.0,2.0803,0.0,0.0,0.0,2.5275,0.0,0.0,0.0,3.2173,3.2499,3.2789,3.3265,3.3037,3.3327,3.436,3.4797,3.5148,3.5418,3.5418,3.5521,3.5707,3.6432,3.6908,3.7094,3.7839,3.8191,3.8191,3.8191,3.8191,3.8191,3.8191,3.8191,3.8191,3.8191,3.8191,3.8274,3.9185,3.9468,3.9571,4.0551,4.0882,4.0882,4.0882,4.0882,4.0882,4.0882,4.0882,4.0882,4.0882,4.0882,4.0882,4.0882,4.0882,4.0882,4.0882,4.0882,4.0882,4.0882,4.0882,4.0882,4.0882,4.0882,4.0882,4.0882,4.0882,4.0882,4.0882,4.0882,4.0882,4.0882,4.0882,4.0882,4.0882,4.0882,4.0882,4.0882,4.0882,4.0882,4.0882,4.0882,4.0882,4.0882,4.0882,4.0882,4.0882,4.0882,4.0882,4.0882,4.0882,4.0882,4.0882,4.0882,4.0882,4.0882,4.0882,4.0668,3.1538,0.0,0.0,0.0,0.0,0.0,0.0,0.0,0.0,0.0,0.0,0.0,0.0,0.0,0.0,0.0,0.0,2.0741,0.0,0.0,0.0,0.0,0.0,0.0,0.0,3.0975,3.1244,3.1754,0.0,3.2085,3.343,3.4176,3.4776,3.5231,3.5355,3.5418,3.5418,3.6349,3.6804,3.6825,3.7736,3.8191,3.8191,3.8191,3.8191,3.8191,3.8191,3.8191,3.8191,3.8191,3.8191,3.8274,3.9185,3.9468,3.9571,4.0551,4.0882,4.0882,4.0882,4.0882,4.0882,4.0882,4.0882,4.0882,4.0882,4.0882,4.0882,4.0882,4.0882,4.0882,4.0882,4.0882,4.0882,4.0882,4.0882,4.0882,4.0882,4.0882,4.0882,4.0882,4.0882,4.0882,4.0882,4.0882,4.0882,4.0882,4.0882,4.0882,4.0882,4.0882,4.0882,4.0882,4.0882,4.0882,4.0882,4.0882,4.0882,4.0882,4.0882,4.0882,4.0882,4.0882,4.0882,4.0882,4.0882,4.0882,4.0882,4.0882,4.0882,4.0882,4.0882,4.074,0.0,0.0,0.0,2.7028,0.0,0.0,0.0,0.0,2.0643,0.0,0.0,0.0,0.0,0.0,0.0,0.0,0.0,0.0,0.0,0.0,0.0,0.0,0.0,0.0,0.0,2.8462,2.8918,0.0,2.9829,3.0657,3.1967,3.3368,3.436,3.4816,3.519,3.5418,3.5418,3.6349,3.6804,3.6825,3.7736,3.8191,3.8191,3.8191,3.8191,3.8191,3.8191,3.8191,3.8191,3.8191,3.8191,3.8274,3.9185,3.9468,3.9571,4.0551,4.0882,4.0882,4.0882,4.0882,4.0882,4.0882,4.0882,4.0882,4.0882,4.0882,4.0882,4.0882,4.0882,4.0882,4.0882,4.0882,4.0882,4.0882,4.0882,4.0882,4.0882,4.0882,4.0882,4.0882,4.0882,4.0882,4.0882,4.0882,4.0882,4.0882,4.0882,4.0882,4.0882,4.0882,4.0882,4.0882,4.0882,4.0882,4.0882,4.0882,4.0882,4.0882,4.0882,4.0882,4.0882,4.0882,4.0882,4.0882,4.0882,4.0882,4.0882,4.0882,4.0882,4.0882,4.0882,4.0882,0.0,0.0,3.205,3.0057,0.0,0.0,0.0,0.0,0.0,0.0,0.0,0.0,0.0,0.0,0.0,0.0,0.0,0.0,0.0,0.0,0.0,0.0,0.0,0.0,0.0,0.0,0.0,0.0,2.7821,0.0,3.0574,3.1981,3.3203,3.4318,3.5024,3.5418,3.5418,3.6349,3.6804,3.6825,3.7736,3.8191,3.8191,3.8191,3.8191,3.8191,3.8191,3.8191,3.8212,3.8502,3.8626,3.8709,3.964,3.9922,4.0075,4.0655,4.0882,4.0882,4.0882,4.0882,4.0882,4.0882,4.0882,4.0882,4.0882,4.0882,4.0882,4.0882,4.0882,4.0882,4.0882,4.0882,4.0882,4.0882,4.0882,4.0882,4.0882,4.0882,4.0882,4.0882,4.0882,4.0882,4.0882,4.0882,4.0882,4.0882,4.0882,4.0882,4.0882,4.0882,4.0882,4.0882,4.0882,4.0882,4.0882,4.0882,4.0882,4.0882,4.0882,4.0882,4.0882,4.0882,4.0882,4.0882,4.0882,4.0882,4.0882,4.0882,4.0882,4.0882,4.0882,4.0882,3.8296,3.6799,0.0,3.3697,3.2009,0.0,2.7957,0.0,0.0,0.0,0.0,0.0,0.0,0.0,0.0,0.0,0.0,0.0,0.0,1.9171,0.0,0.0,0.0,0.0,0.0,0.0,2.5916,2.6086,2.6082,2.6951,0.0,3.0636,3.2188,3.3555,3.4776,3.5418,3.5418,3.6349,3.6804,3.6825,3.7736,3.8191,3.8191,3.8191,3.8191,3.8191,3.8191,3.8191,3.8212,3.86,3.8786,3.8869,3.9798,4.022,4.0282,4.0717,4.0882,4.0882,4.0882,4.0882,4.0882,4.0882,4.0882,4.0882,4.0882,4.0882,4.0882,4.0882,4.0882,4.0882,4.0882,4.0882,4.0882,4.0882,4.0882,4.0882,4.0882,4.0882,4.0882,4.0882,4.0882,4.0882,4.0882,4.0882,4.0882,4.0882,4.0882,4.0882,4.0882,4.0882,4.0882,4.0882,4.0882,4.0882,4.0882,4.0882,4.0882,4.0882,4.0882,4.0882,4.0882,4.0882,4.0882,4.0882,4.0882,4.0882,4.0882,4.0882,4.0882,4.0882,4.0882,4.0882]}]]